<?xml version="1.0" encoding="UTF-8" standalone="no" ?>
<gpx xmlns="http://www.topografix.com/GPX/1/1" xmlns:xsi="http://www.w3.org/2001/XMLSchema-instance" xsi:schemaLocation="http://www.topografix.com/GPX/1/1 http://www.topografix.com/GPX/1/1/gpx.xsd" version="1.1" creator="VisuGPX - https://www.visugpx.com">
  <metadata>
    <name>BOISSY AVIGNON du 03 mai 2012</name>
    <desc><![CDATA[BOISSY AVIGNON du 03 mai 2012 en ULM]]></desc>
  </metadata>
  <trk>
    <name><![CDATA[03-MAI-12 AVIGNON-BOISSY]]></name>
    <trkseg>
      <trkpt lat="43.91171" lon="4.90589">
        <ele>34.74</ele>
        <time>2012-05-03T10:02:18Z</time>
      </trkpt>
      <trkpt lat="43.91171" lon="4.90588">
        <ele>34.74</ele>
        <time>2012-05-03T10:02:49Z</time>
      </trkpt>
      <trkpt lat="43.91171" lon="4.90588">
        <ele>34.74</ele>
        <time>2012-05-03T10:03:21Z</time>
      </trkpt>
      <trkpt lat="43.91171" lon="4.90588">
        <ele>35.23</ele>
        <time>2012-05-03T10:03:59Z</time>
      </trkpt>
      <trkpt lat="43.91171" lon="4.90588">
        <ele>35.23</ele>
        <time>2012-05-03T10:04:33Z</time>
      </trkpt>
      <trkpt lat="43.91176" lon="4.9059">
        <ele>35.23</ele>
        <time>2012-05-03T10:05:03Z</time>
      </trkpt>
      <trkpt lat="43.91189" lon="4.90561">
        <ele>36.67</ele>
        <time>2012-05-03T10:05:17Z</time>
      </trkpt>
      <trkpt lat="43.91171" lon="4.9051">
        <ele>36.19</ele>
        <time>2012-05-03T10:05:30Z</time>
      </trkpt>
      <trkpt lat="43.91123" lon="4.90403">
        <ele>34.26</ele>
        <time>2012-05-03T10:05:50Z</time>
      </trkpt>
      <trkpt lat="43.91083" lon="4.90312">
        <ele>33.3</ele>
        <time>2012-05-03T10:06:09Z</time>
      </trkpt>
      <trkpt lat="43.91078" lon="4.903">
        <ele>33.3</ele>
        <time>2012-05-03T10:06:21Z</time>
      </trkpt>
      <trkpt lat="43.91078" lon="4.903">
        <ele>33.3</ele>
        <time>2012-05-03T10:07:01Z</time>
      </trkpt>
      <trkpt lat="43.91078" lon="4.90299">
        <ele>33.3</ele>
        <time>2012-05-03T10:07:41Z</time>
      </trkpt>
      <trkpt lat="43.91078" lon="4.90299">
        <ele>32.82</ele>
        <time>2012-05-03T10:08:24Z</time>
      </trkpt>
      <trkpt lat="43.91071" lon="4.90284">
        <ele>32.82</ele>
        <time>2012-05-03T10:08:55Z</time>
      </trkpt>
      <trkpt lat="43.91032" lon="4.90197">
        <ele>32.82</ele>
        <time>2012-05-03T10:09:17Z</time>
      </trkpt>
      <trkpt lat="43.91012" lon="4.90151">
        <ele>32.34</ele>
        <time>2012-05-03T10:09:36Z</time>
      </trkpt>
      <trkpt lat="43.91003" lon="4.90116">
        <ele>32.82</ele>
        <time>2012-05-03T10:09:53Z</time>
      </trkpt>
      <trkpt lat="43.91014" lon="4.90108">
        <ele>32.82</ele>
        <time>2012-05-03T10:10:08Z</time>
      </trkpt>
      <trkpt lat="43.91035" lon="4.90101">
        <ele>32.82</ele>
        <time>2012-05-03T10:10:24Z</time>
      </trkpt>
      <trkpt lat="43.91105" lon="4.9008">
        <ele>32.82</ele>
        <time>2012-05-03T10:10:29Z</time>
      </trkpt>
      <trkpt lat="43.91242" lon="4.90045">
        <ele>33.78</ele>
        <time>2012-05-03T10:10:35Z</time>
      </trkpt>
      <trkpt lat="43.91476" lon="4.89981">
        <ele>43.4</ele>
        <time>2012-05-03T10:10:43Z</time>
      </trkpt>
      <trkpt lat="43.91652" lon="4.89937">
        <ele>55.89</ele>
        <time>2012-05-03T10:10:49Z</time>
      </trkpt>
      <trkpt lat="43.91955" lon="4.89875">
        <ele>101.08</ele>
        <time>2012-05-03T10:11:00Z</time>
      </trkpt>
      <trkpt lat="43.92196" lon="4.89801">
        <ele>132.32</ele>
        <time>2012-05-03T10:11:09Z</time>
      </trkpt>
      <trkpt lat="43.92442" lon="4.8971">
        <ele>167.89</ele>
        <time>2012-05-03T10:11:19Z</time>
      </trkpt>
      <trkpt lat="43.92727" lon="4.8962">
        <ele>201.53</ele>
        <time>2012-05-03T10:11:30Z</time>
      </trkpt>
      <trkpt lat="43.93061" lon="4.89534">
        <ele>235.66</ele>
        <time>2012-05-03T10:11:43Z</time>
      </trkpt>
      <trkpt lat="43.93317" lon="4.89459">
        <ele>266.9</ele>
        <time>2012-05-03T10:11:53Z</time>
      </trkpt>
      <trkpt lat="43.93594" lon="4.89383">
        <ele>294.3</ele>
        <time>2012-05-03T10:12:03Z</time>
      </trkpt>
      <trkpt lat="43.93873" lon="4.89299">
        <ele>311.12</ele>
        <time>2012-05-03T10:12:13Z</time>
      </trkpt>
      <trkpt lat="43.94218" lon="4.89119">
        <ele>332.27</ele>
        <time>2012-05-03T10:12:26Z</time>
      </trkpt>
      <trkpt lat="43.94451" lon="4.88962">
        <ele>341.89</ele>
        <time>2012-05-03T10:12:35Z</time>
      </trkpt>
      <trkpt lat="43.94726" lon="4.8874">
        <ele>363.52</ele>
        <time>2012-05-03T10:12:46Z</time>
      </trkpt>
      <trkpt lat="43.95033" lon="4.88455">
        <ele>407.26</ele>
        <time>2012-05-03T10:12:59Z</time>
      </trkpt>
      <trkpt lat="43.95177" lon="4.88321">
        <ele>419.75</ele>
        <time>2012-05-03T10:13:05Z</time>
      </trkpt>
      <trkpt lat="43.95205" lon="4.88293">
        <ele>420.71</ele>
        <time>2012-05-03T10:13:06Z</time>
      </trkpt>
      <trkpt lat="43.95356" lon="4.88155">
        <ele>421.19</ele>
        <time>2012-05-03T10:13:11Z</time>
      </trkpt>
      <trkpt lat="43.95495" lon="4.88013">
        <ele>417.83</ele>
        <time>2012-05-03T10:13:15Z</time>
      </trkpt>
      <trkpt lat="43.95739" lon="4.87765">
        <ele>397.64</ele>
        <time>2012-05-03T10:13:22Z</time>
      </trkpt>
      <trkpt lat="43.95944" lon="4.8753">
        <ele>379.38</ele>
        <time>2012-05-03T10:13:28Z</time>
      </trkpt>
      <trkpt lat="43.96176" lon="4.87286">
        <ele>362.55</ele>
        <time>2012-05-03T10:13:35Z</time>
      </trkpt>
      <trkpt lat="43.96409" lon="4.87016">
        <ele>356.79</ele>
        <time>2012-05-03T10:13:43Z</time>
      </trkpt>
      <trkpt lat="43.9657" lon="4.86769">
        <ele>354.38</ele>
        <time>2012-05-03T10:13:50Z</time>
      </trkpt>
      <trkpt lat="43.96688" lon="4.865">
        <ele>361.11</ele>
        <time>2012-05-03T10:13:57Z</time>
      </trkpt>
      <trkpt lat="43.96767" lon="4.86172">
        <ele>372.65</ele>
        <time>2012-05-03T10:14:05Z</time>
      </trkpt>
      <trkpt lat="43.96787" lon="4.85835">
        <ele>384.18</ele>
        <time>2012-05-03T10:14:13Z</time>
      </trkpt>
      <trkpt lat="43.96784" lon="4.85461">
        <ele>395.24</ele>
        <time>2012-05-03T10:14:22Z</time>
      </trkpt>
      <trkpt lat="43.96783" lon="4.8497">
        <ele>413.5</ele>
        <time>2012-05-03T10:14:34Z</time>
      </trkpt>
      <trkpt lat="43.96798" lon="4.84617">
        <ele>437.06</ele>
        <time>2012-05-03T10:14:43Z</time>
      </trkpt>
      <trkpt lat="43.96811" lon="4.84528">
        <ele>440.9</ele>
        <time>2012-05-03T10:14:45Z</time>
      </trkpt>
      <trkpt lat="43.96819" lon="4.84221">
        <ele>447.63</ele>
        <time>2012-05-03T10:14:51Z</time>
      </trkpt>
      <trkpt lat="43.96824" lon="4.83927">
        <ele>442.82</ele>
        <time>2012-05-03T10:14:57Z</time>
      </trkpt>
      <trkpt lat="43.9682" lon="4.83555">
        <ele>426.48</ele>
        <time>2012-05-03T10:15:06Z</time>
      </trkpt>
      <trkpt lat="43.9678" lon="4.83073">
        <ele>396.2</ele>
        <time>2012-05-03T10:15:18Z</time>
      </trkpt>
      <trkpt lat="43.96774" lon="4.82758">
        <ele>388.51</ele>
        <time>2012-05-03T10:15:26Z</time>
      </trkpt>
      <trkpt lat="43.96796" lon="4.825">
        <ele>391.87</ele>
        <time>2012-05-03T10:15:33Z</time>
      </trkpt>
      <trkpt lat="43.96858" lon="4.82344">
        <ele>396.2</ele>
        <time>2012-05-03T10:15:38Z</time>
      </trkpt>
      <trkpt lat="43.96878" lon="4.82318">
        <ele>397.16</ele>
        <time>2012-05-03T10:15:39Z</time>
      </trkpt>
      <trkpt lat="43.97076" lon="4.82141">
        <ele>392.84</ele>
        <time>2012-05-03T10:15:47Z</time>
      </trkpt>
      <trkpt lat="43.97314" lon="4.81986">
        <ele>389.47</ele>
        <time>2012-05-03T10:15:56Z</time>
      </trkpt>
      <trkpt lat="43.97579" lon="4.81904">
        <ele>392.84</ele>
        <time>2012-05-03T10:16:05Z</time>
      </trkpt>
      <trkpt lat="43.97767" lon="4.81926">
        <ele>393.32</ele>
        <time>2012-05-03T10:16:11Z</time>
      </trkpt>
      <trkpt lat="43.98027" lon="4.82004">
        <ele>388.99</ele>
        <time>2012-05-03T10:16:19Z</time>
      </trkpt>
      <trkpt lat="43.98336" lon="4.82134">
        <ele>388.99</ele>
        <time>2012-05-03T10:16:29Z</time>
      </trkpt>
      <trkpt lat="43.98635" lon="4.82221">
        <ele>388.51</ele>
        <time>2012-05-03T10:16:39Z</time>
      </trkpt>
      <trkpt lat="43.98953" lon="4.82298">
        <ele>390.43</ele>
        <time>2012-05-03T10:16:49Z</time>
      </trkpt>
      <trkpt lat="43.99244" lon="4.82357">
        <ele>409.66</ele>
        <time>2012-05-03T10:16:58Z</time>
      </trkpt>
      <trkpt lat="43.99384" lon="4.82393">
        <ele>411.58</ele>
        <time>2012-05-03T10:17:02Z</time>
      </trkpt>
      <trkpt lat="43.99702" lon="4.82433">
        <ele>412.54</ele>
        <time>2012-05-03T10:17:10Z</time>
      </trkpt>
      <trkpt lat="44.00048" lon="4.82492">
        <ele>418.31</ele>
        <time>2012-05-03T10:17:19Z</time>
      </trkpt>
      <trkpt lat="44.00205" lon="4.82524">
        <ele>420.23</ele>
        <time>2012-05-03T10:17:23Z</time>
      </trkpt>
      <trkpt lat="44.00635" lon="4.82574">
        <ele>428.89</ele>
        <time>2012-05-03T10:17:34Z</time>
      </trkpt>
      <trkpt lat="44.00973" lon="4.82567">
        <ele>439.94</ele>
        <time>2012-05-03T10:17:43Z</time>
      </trkpt>
      <trkpt lat="44.01247" lon="4.82529">
        <ele>443.79</ele>
        <time>2012-05-03T10:17:50Z</time>
      </trkpt>
      <trkpt lat="44.01551" lon="4.82495">
        <ele>445.23</ele>
        <time>2012-05-03T10:17:57Z</time>
      </trkpt>
      <trkpt lat="44.01927" lon="4.82457">
        <ele>452.92</ele>
        <time>2012-05-03T10:18:06Z</time>
      </trkpt>
      <trkpt lat="44.02224" lon="4.82404">
        <ele>455.32</ele>
        <time>2012-05-03T10:18:13Z</time>
      </trkpt>
      <trkpt lat="44.02515" lon="4.8231">
        <ele>451.48</ele>
        <time>2012-05-03T10:18:20Z</time>
      </trkpt>
      <trkpt lat="44.0282" lon="4.82191">
        <ele>453.4</ele>
        <time>2012-05-03T10:18:28Z</time>
      </trkpt>
      <trkpt lat="44.03149" lon="4.8203">
        <ele>448.11</ele>
        <time>2012-05-03T10:18:37Z</time>
      </trkpt>
      <trkpt lat="44.03428" lon="4.81849">
        <ele>428.4</ele>
        <time>2012-05-03T10:18:45Z</time>
      </trkpt>
      <trkpt lat="44.03801" lon="4.81544">
        <ele>417.35</ele>
        <time>2012-05-03T10:18:56Z</time>
      </trkpt>
      <trkpt lat="44.04125" lon="4.81213">
        <ele>408.22</ele>
        <time>2012-05-03T10:19:06Z</time>
      </trkpt>
      <trkpt lat="44.04421" lon="4.80961">
        <ele>411.1</ele>
        <time>2012-05-03T10:19:15Z</time>
      </trkpt>
      <trkpt lat="44.04589" lon="4.80752">
        <ele>413.98</ele>
        <time>2012-05-03T10:19:21Z</time>
      </trkpt>
      <trkpt lat="44.04685" lon="4.80529">
        <ele>411.58</ele>
        <time>2012-05-03T10:19:26Z</time>
      </trkpt>
      <trkpt lat="44.04814" lon="4.80154">
        <ele>410.62</ele>
        <time>2012-05-03T10:19:34Z</time>
      </trkpt>
      <trkpt lat="44.04944" lon="4.79764">
        <ele>401.49</ele>
        <time>2012-05-03T10:19:42Z</time>
      </trkpt>
      <trkpt lat="44.05102" lon="4.79286">
        <ele>402.93</ele>
        <time>2012-05-03T10:19:52Z</time>
      </trkpt>
      <trkpt lat="44.05159" lon="4.7911">
        <ele>410.14</ele>
        <time>2012-05-03T10:19:56Z</time>
      </trkpt>
      <trkpt lat="44.0533" lon="4.78838">
        <ele>413.98</ele>
        <time>2012-05-03T10:20:03Z</time>
      </trkpt>
      <trkpt lat="44.05543" lon="4.78492">
        <ele>397.64</ele>
        <time>2012-05-03T10:20:11Z</time>
      </trkpt>
      <trkpt lat="44.0575" lon="4.78132">
        <ele>381.3</ele>
        <time>2012-05-03T10:20:19Z</time>
      </trkpt>
      <trkpt lat="44.06019" lon="4.77711">
        <ele>370.73</ele>
        <time>2012-05-03T10:20:29Z</time>
      </trkpt>
      <trkpt lat="44.06257" lon="4.77254">
        <ele>359.19</ele>
        <time>2012-05-03T10:20:39Z</time>
      </trkpt>
      <trkpt lat="44.06443" lon="4.76841">
        <ele>361.59</ele>
        <time>2012-05-03T10:20:48Z</time>
      </trkpt>
      <trkpt lat="44.06589" lon="4.76474">
        <ele>367.36</ele>
        <time>2012-05-03T10:20:56Z</time>
      </trkpt>
      <trkpt lat="44.06724" lon="4.7607">
        <ele>376.01</ele>
        <time>2012-05-03T10:21:05Z</time>
      </trkpt>
      <trkpt lat="44.06835" lon="4.75704">
        <ele>377.45</ele>
        <time>2012-05-03T10:21:13Z</time>
      </trkpt>
      <trkpt lat="44.07044" lon="4.75189">
        <ele>380.34</ele>
        <time>2012-05-03T10:21:24Z</time>
      </trkpt>
      <trkpt lat="44.07091" lon="4.75049">
        <ele>383.22</ele>
        <time>2012-05-03T10:21:27Z</time>
      </trkpt>
      <trkpt lat="44.0712" lon="4.74755">
        <ele>391.39</ele>
        <time>2012-05-03T10:21:33Z</time>
      </trkpt>
      <trkpt lat="44.07124" lon="4.74367">
        <ele>400.53</ele>
        <time>2012-05-03T10:21:41Z</time>
      </trkpt>
      <trkpt lat="44.07133" lon="4.73886">
        <ele>395.72</ele>
        <time>2012-05-03T10:21:50Z</time>
      </trkpt>
      <trkpt lat="44.0718" lon="4.73413">
        <ele>391.39</ele>
        <time>2012-05-03T10:21:59Z</time>
      </trkpt>
      <trkpt lat="44.07251" lon="4.72913">
        <ele>394.76</ele>
        <time>2012-05-03T10:22:09Z</time>
      </trkpt>
      <trkpt lat="44.07313" lon="4.72388">
        <ele>383.22</ele>
        <time>2012-05-03T10:22:19Z</time>
      </trkpt>
      <trkpt lat="44.07391" lon="4.72027">
        <ele>376.01</ele>
        <time>2012-05-03T10:22:26Z</time>
      </trkpt>
      <trkpt lat="44.07473" lon="4.71605">
        <ele>372.65</ele>
        <time>2012-05-03T10:22:34Z</time>
      </trkpt>
      <trkpt lat="44.0755" lon="4.71148">
        <ele>384.18</ele>
        <time>2012-05-03T10:22:43Z</time>
      </trkpt>
      <trkpt lat="44.07616" lon="4.70698">
        <ele>391.39</ele>
        <time>2012-05-03T10:22:52Z</time>
      </trkpt>
      <trkpt lat="44.07677" lon="4.70456">
        <ele>393.8</ele>
        <time>2012-05-03T10:22:57Z</time>
      </trkpt>
      <trkpt lat="44.0779" lon="4.70016">
        <ele>393.32</ele>
        <time>2012-05-03T10:23:06Z</time>
      </trkpt>
      <trkpt lat="44.07921" lon="4.69552">
        <ele>390.91</ele>
        <time>2012-05-03T10:23:15Z</time>
      </trkpt>
      <trkpt lat="44.0808" lon="4.68986">
        <ele>399.08</ele>
        <time>2012-05-03T10:23:26Z</time>
      </trkpt>
      <trkpt lat="44.0822" lon="4.6842">
        <ele>417.83</ele>
        <time>2012-05-03T10:23:37Z</time>
      </trkpt>
      <trkpt lat="44.08324" lon="4.67955">
        <ele>424.08</ele>
        <time>2012-05-03T10:23:46Z</time>
      </trkpt>
      <trkpt lat="44.08396" lon="4.67619">
        <ele>423.6</ele>
        <time>2012-05-03T10:23:52Z</time>
      </trkpt>
      <trkpt lat="44.08501" lon="4.67209">
        <ele>430.33</ele>
        <time>2012-05-03T10:24:00Z</time>
      </trkpt>
      <trkpt lat="44.08616" lon="4.66771">
        <ele>433.69</ele>
        <time>2012-05-03T10:24:09Z</time>
      </trkpt>
      <trkpt lat="44.08746" lon="4.66378">
        <ele>426.48</ele>
        <time>2012-05-03T10:24:17Z</time>
      </trkpt>
      <trkpt lat="44.08896" lon="4.65961">
        <ele>423.6</ele>
        <time>2012-05-03T10:24:26Z</time>
      </trkpt>
      <trkpt lat="44.08989" lon="4.65667">
        <ele>422.16</ele>
        <time>2012-05-03T10:24:32Z</time>
      </trkpt>
      <trkpt lat="44.09144" lon="4.65435">
        <ele>418.79</ele>
        <time>2012-05-03T10:24:38Z</time>
      </trkpt>
      <trkpt lat="44.09331" lon="4.65265">
        <ele>417.83</ele>
        <time>2012-05-03T10:24:44Z</time>
      </trkpt>
      <trkpt lat="44.09594" lon="4.65092">
        <ele>423.12</ele>
        <time>2012-05-03T10:24:52Z</time>
      </trkpt>
      <trkpt lat="44.09886" lon="4.64925">
        <ele>420.23</ele>
        <time>2012-05-03T10:25:01Z</time>
      </trkpt>
      <trkpt lat="44.10241" lon="4.64679">
        <ele>423.12</ele>
        <time>2012-05-03T10:25:12Z</time>
      </trkpt>
      <trkpt lat="44.10479" lon="4.64502">
        <ele>429.37</ele>
        <time>2012-05-03T10:25:20Z</time>
      </trkpt>
      <trkpt lat="44.1089" lon="4.64174">
        <ele>425.52</ele>
        <time>2012-05-03T10:25:34Z</time>
      </trkpt>
      <trkpt lat="44.11121" lon="4.63937">
        <ele>421.68</ele>
        <time>2012-05-03T10:25:42Z</time>
      </trkpt>
      <trkpt lat="44.11377" lon="4.6365">
        <ele>421.19</ele>
        <time>2012-05-03T10:25:51Z</time>
      </trkpt>
      <trkpt lat="44.11549" lon="4.63395">
        <ele>420.23</ele>
        <time>2012-05-03T10:25:58Z</time>
      </trkpt>
      <trkpt lat="44.11784" lon="4.63039">
        <ele>426.96</ele>
        <time>2012-05-03T10:26:08Z</time>
      </trkpt>
      <trkpt lat="44.11963" lon="4.62746">
        <ele>432.25</ele>
        <time>2012-05-03T10:26:16Z</time>
      </trkpt>
      <trkpt lat="44.12222" lon="4.62363">
        <ele>418.79</ele>
        <time>2012-05-03T10:26:26Z</time>
      </trkpt>
      <trkpt lat="44.12433" lon="4.62015">
        <ele>409.18</ele>
        <time>2012-05-03T10:26:35Z</time>
      </trkpt>
      <trkpt lat="44.12684" lon="4.61528">
        <ele>408.7</ele>
        <time>2012-05-03T10:26:47Z</time>
      </trkpt>
      <trkpt lat="44.12834" lon="4.61266">
        <ele>413.5</ele>
        <time>2012-05-03T10:26:54Z</time>
      </trkpt>
      <trkpt lat="44.12997" lon="4.60997">
        <ele>409.66</ele>
        <time>2012-05-03T10:27:01Z</time>
      </trkpt>
      <trkpt lat="44.13171" lon="4.60704">
        <ele>410.62</ele>
        <time>2012-05-03T10:27:08Z</time>
      </trkpt>
      <trkpt lat="44.1322" lon="4.60622">
        <ele>409.66</ele>
        <time>2012-05-03T10:27:10Z</time>
      </trkpt>
      <trkpt lat="44.13409" lon="4.6043">
        <ele>397.16</ele>
        <time>2012-05-03T10:27:16Z</time>
      </trkpt>
      <trkpt lat="44.13695" lon="4.60139">
        <ele>382.26</ele>
        <time>2012-05-03T10:27:25Z</time>
      </trkpt>
      <trkpt lat="44.1396" lon="4.59843">
        <ele>383.22</ele>
        <time>2012-05-03T10:27:34Z</time>
      </trkpt>
      <trkpt lat="44.1419" lon="4.59579">
        <ele>392.84</ele>
        <time>2012-05-03T10:27:42Z</time>
      </trkpt>
      <trkpt lat="44.14417" lon="4.59411">
        <ele>394.76</ele>
        <time>2012-05-03T10:27:49Z</time>
      </trkpt>
      <trkpt lat="44.14665" lon="4.59176">
        <ele>381.3</ele>
        <time>2012-05-03T10:27:57Z</time>
      </trkpt>
      <trkpt lat="44.14966" lon="4.58914">
        <ele>364.96</ele>
        <time>2012-05-03T10:28:06Z</time>
      </trkpt>
      <trkpt lat="44.15284" lon="4.5861">
        <ele>359.67</ele>
        <time>2012-05-03T10:28:16Z</time>
      </trkpt>
      <trkpt lat="44.1553" lon="4.58323">
        <ele>370.24</ele>
        <time>2012-05-03T10:28:25Z</time>
      </trkpt>
      <trkpt lat="44.15755" lon="4.58075">
        <ele>387.07</ele>
        <time>2012-05-03T10:28:34Z</time>
      </trkpt>
      <trkpt lat="44.16045" lon="4.57764">
        <ele>412.54</ele>
        <time>2012-05-03T10:28:46Z</time>
      </trkpt>
      <trkpt lat="44.16226" lon="4.57579">
        <ele>435.13</ele>
        <time>2012-05-03T10:28:54Z</time>
      </trkpt>
      <trkpt lat="44.16396" lon="4.57397">
        <ele>454.84</ele>
        <time>2012-05-03T10:29:01Z</time>
      </trkpt>
      <trkpt lat="44.16608" lon="4.57162">
        <ele>492.33</ele>
        <time>2012-05-03T10:29:10Z</time>
      </trkpt>
      <trkpt lat="44.16802" lon="4.56896">
        <ele>537.51</ele>
        <time>2012-05-03T10:29:20Z</time>
      </trkpt>
      <trkpt lat="44.16981" lon="4.56688">
        <ele>567.8</ele>
        <time>2012-05-03T10:29:28Z</time>
      </trkpt>
      <trkpt lat="44.17221" lon="4.56443">
        <ele>600</ele>
        <time>2012-05-03T10:29:38Z</time>
      </trkpt>
      <trkpt lat="44.17446" lon="4.56215">
        <ele>626.44</ele>
        <time>2012-05-03T10:29:47Z</time>
      </trkpt>
      <trkpt lat="44.17656" lon="4.56021">
        <ele>654.8</ele>
        <time>2012-05-03T10:29:56Z</time>
      </trkpt>
      <trkpt lat="44.17833" lon="4.55859">
        <ele>670.18</ele>
        <time>2012-05-03T10:30:03Z</time>
      </trkpt>
      <trkpt lat="44.18096" lon="4.55637">
        <ele>695.65</ele>
        <time>2012-05-03T10:30:13Z</time>
      </trkpt>
      <trkpt lat="44.1828" lon="4.55465">
        <ele>723.53</ele>
        <time>2012-05-03T10:30:21Z</time>
      </trkpt>
      <trkpt lat="44.18417" lon="4.55286">
        <ele>749</ele>
        <time>2012-05-03T10:30:28Z</time>
      </trkpt>
      <trkpt lat="44.18614" lon="4.55026">
        <ele>777.84</ele>
        <time>2012-05-03T10:30:38Z</time>
      </trkpt>
      <trkpt lat="44.18832" lon="4.54714">
        <ele>810.05</ele>
        <time>2012-05-03T10:30:49Z</time>
      </trkpt>
      <trkpt lat="44.18969" lon="4.54532">
        <ele>818.7</ele>
        <time>2012-05-03T10:30:55Z</time>
      </trkpt>
      <trkpt lat="44.19217" lon="4.5424">
        <ele>814.85</ele>
        <time>2012-05-03T10:31:04Z</time>
      </trkpt>
      <trkpt lat="44.19409" lon="4.53965">
        <ele>804.76</ele>
        <time>2012-05-03T10:31:11Z</time>
      </trkpt>
      <trkpt lat="44.19783" lon="4.53535">
        <ele>777.36</ele>
        <time>2012-05-03T10:31:22Z</time>
      </trkpt>
      <trkpt lat="44.20022" lon="4.53323">
        <ele>778.32</ele>
        <time>2012-05-03T10:31:29Z</time>
      </trkpt>
      <trkpt lat="44.20377" lon="4.53027">
        <ele>784.09</ele>
        <time>2012-05-03T10:31:40Z</time>
      </trkpt>
      <trkpt lat="44.2063" lon="4.5277">
        <ele>780.73</ele>
        <time>2012-05-03T10:31:48Z</time>
      </trkpt>
      <trkpt lat="44.20868" lon="4.52567">
        <ele>777.36</ele>
        <time>2012-05-03T10:31:55Z</time>
      </trkpt>
      <trkpt lat="44.2117" lon="4.52279">
        <ele>774</ele>
        <time>2012-05-03T10:32:04Z</time>
      </trkpt>
      <trkpt lat="44.21481" lon="4.5193">
        <ele>773.04</ele>
        <time>2012-05-03T10:32:14Z</time>
      </trkpt>
      <trkpt lat="44.2186" lon="4.51456">
        <ele>770.15</ele>
        <time>2012-05-03T10:32:27Z</time>
      </trkpt>
      <trkpt lat="44.22186" lon="4.51071">
        <ele>770.15</ele>
        <time>2012-05-03T10:32:38Z</time>
      </trkpt>
      <trkpt lat="44.22445" lon="4.5077">
        <ele>777.36</ele>
        <time>2012-05-03T10:32:47Z</time>
      </trkpt>
      <trkpt lat="44.22718" lon="4.50474">
        <ele>780.73</ele>
        <time>2012-05-03T10:32:56Z</time>
      </trkpt>
      <trkpt lat="44.22976" lon="4.50222">
        <ele>777.84</ele>
        <time>2012-05-03T10:33:04Z</time>
      </trkpt>
      <trkpt lat="44.23284" lon="4.49886">
        <ele>777.36</ele>
        <time>2012-05-03T10:33:14Z</time>
      </trkpt>
      <trkpt lat="44.23634" lon="4.49482">
        <ele>783.61</ele>
        <time>2012-05-03T10:33:26Z</time>
      </trkpt>
      <trkpt lat="44.23915" lon="4.49143">
        <ele>790.34</ele>
        <time>2012-05-03T10:33:36Z</time>
      </trkpt>
      <trkpt lat="44.24106" lon="4.48898">
        <ele>796.59</ele>
        <time>2012-05-03T10:33:43Z</time>
      </trkpt>
      <trkpt lat="44.24418" lon="4.48538">
        <ele>790.82</ele>
        <time>2012-05-03T10:33:53Z</time>
      </trkpt>
      <trkpt lat="44.24665" lon="4.48211">
        <ele>787.46</ele>
        <time>2012-05-03T10:34:02Z</time>
      </trkpt>
      <trkpt lat="44.24848" lon="4.47915">
        <ele>776.4</ele>
        <time>2012-05-03T10:34:09Z</time>
      </trkpt>
      <trkpt lat="44.25096" lon="4.47532">
        <ele>761.5</ele>
        <time>2012-05-03T10:34:18Z</time>
      </trkpt>
      <trkpt lat="44.25374" lon="4.47191">
        <ele>748.52</ele>
        <time>2012-05-03T10:34:27Z</time>
      </trkpt>
      <trkpt lat="44.25578" lon="4.47001">
        <ele>742.28</ele>
        <time>2012-05-03T10:34:33Z</time>
      </trkpt>
      <trkpt lat="44.25867" lon="4.46812">
        <ele>743.24</ele>
        <time>2012-05-03T10:34:41Z</time>
      </trkpt>
      <trkpt lat="44.26188" lon="4.46648">
        <ele>751.89</ele>
        <time>2012-05-03T10:34:50Z</time>
      </trkpt>
      <trkpt lat="44.26553" lon="4.46522">
        <ele>758.14</ele>
        <time>2012-05-03T10:35:00Z</time>
      </trkpt>
      <trkpt lat="44.26885" lon="4.46429">
        <ele>760.54</ele>
        <time>2012-05-03T10:35:09Z</time>
      </trkpt>
      <trkpt lat="44.27195" lon="4.46351">
        <ele>764.39</ele>
        <time>2012-05-03T10:35:17Z</time>
      </trkpt>
      <trkpt lat="44.27544" lon="4.46279">
        <ele>765.35</ele>
        <time>2012-05-03T10:35:26Z</time>
      </trkpt>
      <trkpt lat="44.2784" lon="4.46238">
        <ele>775.92</ele>
        <time>2012-05-03T10:35:34Z</time>
      </trkpt>
      <trkpt lat="44.28068" lon="4.46184">
        <ele>776.88</ele>
        <time>2012-05-03T10:35:40Z</time>
      </trkpt>
      <trkpt lat="44.28529" lon="4.46063">
        <ele>784.57</ele>
        <time>2012-05-03T10:35:52Z</time>
      </trkpt>
      <trkpt lat="44.28875" lon="4.46015">
        <ele>798.51</ele>
        <time>2012-05-03T10:36:01Z</time>
      </trkpt>
      <trkpt lat="44.29154" lon="4.45972">
        <ele>801.88</ele>
        <time>2012-05-03T10:36:08Z</time>
      </trkpt>
      <trkpt lat="44.29467" lon="4.45938">
        <ele>800.92</ele>
        <time>2012-05-03T10:36:16Z</time>
      </trkpt>
      <trkpt lat="44.29792" lon="4.45891">
        <ele>794.67</ele>
        <time>2012-05-03T10:36:23Z</time>
      </trkpt>
      <trkpt lat="44.30192" lon="4.45859">
        <ele>783.13</ele>
        <time>2012-05-03T10:36:32Z</time>
      </trkpt>
      <trkpt lat="44.30553" lon="4.45793">
        <ele>777.36</ele>
        <time>2012-05-03T10:36:41Z</time>
      </trkpt>
      <trkpt lat="44.30871" lon="4.457">
        <ele>775.44</ele>
        <time>2012-05-03T10:36:49Z</time>
      </trkpt>
      <trkpt lat="44.31163" lon="4.45655">
        <ele>775.92</ele>
        <time>2012-05-03T10:36:56Z</time>
      </trkpt>
      <trkpt lat="44.31486" lon="4.45604">
        <ele>778.32</ele>
        <time>2012-05-03T10:37:04Z</time>
      </trkpt>
      <trkpt lat="44.31896" lon="4.45535">
        <ele>780.73</ele>
        <time>2012-05-03T10:37:14Z</time>
      </trkpt>
      <trkpt lat="44.32261" lon="4.45469">
        <ele>779.77</ele>
        <time>2012-05-03T10:37:23Z</time>
      </trkpt>
      <trkpt lat="44.32551" lon="4.45409">
        <ele>786.98</ele>
        <time>2012-05-03T10:37:30Z</time>
      </trkpt>
      <trkpt lat="44.32792" lon="4.45358">
        <ele>797.55</ele>
        <time>2012-05-03T10:37:36Z</time>
      </trkpt>
      <trkpt lat="44.33111" lon="4.45271">
        <ele>807.16</ele>
        <time>2012-05-03T10:37:44Z</time>
      </trkpt>
      <trkpt lat="44.33444" lon="4.45221">
        <ele>803.8</ele>
        <time>2012-05-03T10:37:52Z</time>
      </trkpt>
      <trkpt lat="44.33773" lon="4.45171">
        <ele>798.51</ele>
        <time>2012-05-03T10:38:00Z</time>
      </trkpt>
      <trkpt lat="44.34063" lon="4.45155">
        <ele>795.63</ele>
        <time>2012-05-03T10:38:07Z</time>
      </trkpt>
      <trkpt lat="44.34385" lon="4.45153">
        <ele>797.55</ele>
        <time>2012-05-03T10:38:15Z</time>
      </trkpt>
      <trkpt lat="44.34682" lon="4.45167">
        <ele>813.41</ele>
        <time>2012-05-03T10:38:23Z</time>
      </trkpt>
      <trkpt lat="44.34979" lon="4.45174">
        <ele>826.39</ele>
        <time>2012-05-03T10:38:31Z</time>
      </trkpt>
      <trkpt lat="44.35303" lon="4.45205">
        <ele>822.55</ele>
        <time>2012-05-03T10:38:39Z</time>
      </trkpt>
      <trkpt lat="44.35568" lon="4.45251">
        <ele>814.85</ele>
        <time>2012-05-03T10:38:45Z</time>
      </trkpt>
      <trkpt lat="44.35821" lon="4.45301">
        <ele>810.05</ele>
        <time>2012-05-03T10:38:51Z</time>
      </trkpt>
      <trkpt lat="44.36232" lon="4.45346">
        <ele>801.88</ele>
        <time>2012-05-03T10:39:01Z</time>
      </trkpt>
      <trkpt lat="44.36605" lon="4.45389">
        <ele>797.55</ele>
        <time>2012-05-03T10:39:10Z</time>
      </trkpt>
      <trkpt lat="44.36946" lon="4.45424">
        <ele>794.19</ele>
        <time>2012-05-03T10:39:18Z</time>
      </trkpt>
      <trkpt lat="44.37246" lon="4.455">
        <ele>789.86</ele>
        <time>2012-05-03T10:39:25Z</time>
      </trkpt>
      <trkpt lat="44.37619" lon="4.4557">
        <ele>782.65</ele>
        <time>2012-05-03T10:39:34Z</time>
      </trkpt>
      <trkpt lat="44.38005" lon="4.45596">
        <ele>773.04</ele>
        <time>2012-05-03T10:39:43Z</time>
      </trkpt>
      <trkpt lat="44.38336" lon="4.45648">
        <ele>762.94</ele>
        <time>2012-05-03T10:39:51Z</time>
      </trkpt>
      <trkpt lat="44.38742" lon="4.45669">
        <ele>756.21</ele>
        <time>2012-05-03T10:40:01Z</time>
      </trkpt>
      <trkpt lat="44.38783" lon="4.45667">
        <ele>756.21</ele>
        <time>2012-05-03T10:40:02Z</time>
      </trkpt>
      <trkpt lat="44.39059" lon="4.45591">
        <ele>759.58</ele>
        <time>2012-05-03T10:40:09Z</time>
      </trkpt>
      <trkpt lat="44.39245" lon="4.45532">
        <ele>762.46</ele>
        <time>2012-05-03T10:40:14Z</time>
      </trkpt>
      <trkpt lat="44.39479" lon="4.45491">
        <ele>774</ele>
        <time>2012-05-03T10:40:20Z</time>
      </trkpt>
      <trkpt lat="44.39767" lon="4.45439">
        <ele>784.09</ele>
        <time>2012-05-03T10:40:28Z</time>
      </trkpt>
      <trkpt lat="44.40104" lon="4.45409">
        <ele>785.53</ele>
        <time>2012-05-03T10:40:37Z</time>
      </trkpt>
      <trkpt lat="44.40383" lon="4.45416">
        <ele>786.98</ele>
        <time>2012-05-03T10:40:44Z</time>
      </trkpt>
      <trkpt lat="44.407" lon="4.45453">
        <ele>788.42</ele>
        <time>2012-05-03T10:40:52Z</time>
      </trkpt>
      <trkpt lat="44.41053" lon="4.45444">
        <ele>796.59</ele>
        <time>2012-05-03T10:41:01Z</time>
      </trkpt>
      <trkpt lat="44.41353" lon="4.45382">
        <ele>800.92</ele>
        <time>2012-05-03T10:41:09Z</time>
      </trkpt>
      <trkpt lat="44.41654" lon="4.45287">
        <ele>807.64</ele>
        <time>2012-05-03T10:41:17Z</time>
      </trkpt>
      <trkpt lat="44.41921" lon="4.45166">
        <ele>811.49</ele>
        <time>2012-05-03T10:41:24Z</time>
      </trkpt>
      <trkpt lat="44.42031" lon="4.45119">
        <ele>812.45</ele>
        <time>2012-05-03T10:41:27Z</time>
      </trkpt>
      <trkpt lat="44.42302" lon="4.44956">
        <ele>809.57</ele>
        <time>2012-05-03T10:41:34Z</time>
      </trkpt>
      <trkpt lat="44.42588" lon="4.44744">
        <ele>796.59</ele>
        <time>2012-05-03T10:41:41Z</time>
      </trkpt>
      <trkpt lat="44.42833" lon="4.44582">
        <ele>790.82</ele>
        <time>2012-05-03T10:41:47Z</time>
      </trkpt>
      <trkpt lat="44.43077" lon="4.44436">
        <ele>782.65</ele>
        <time>2012-05-03T10:41:53Z</time>
      </trkpt>
      <trkpt lat="44.43397" lon="4.44264">
        <ele>777.84</ele>
        <time>2012-05-03T10:42:01Z</time>
      </trkpt>
      <trkpt lat="44.43747" lon="4.44107">
        <ele>775.44</ele>
        <time>2012-05-03T10:42:10Z</time>
      </trkpt>
      <trkpt lat="44.4412" lon="4.43934">
        <ele>772.56</ele>
        <time>2012-05-03T10:42:20Z</time>
      </trkpt>
      <trkpt lat="44.4444" lon="4.43808">
        <ele>761.02</ele>
        <time>2012-05-03T10:42:28Z</time>
      </trkpt>
      <trkpt lat="44.44767" lon="4.43659">
        <ele>749.97</ele>
        <time>2012-05-03T10:42:36Z</time>
      </trkpt>
      <trkpt lat="44.45116" lon="4.43485">
        <ele>749.97</ele>
        <time>2012-05-03T10:42:45Z</time>
      </trkpt>
      <trkpt lat="44.45416" lon="4.43371">
        <ele>752.37</ele>
        <time>2012-05-03T10:42:53Z</time>
      </trkpt>
      <trkpt lat="44.4571" lon="4.43228">
        <ele>749.97</ele>
        <time>2012-05-03T10:43:01Z</time>
      </trkpt>
      <trkpt lat="44.46035" lon="4.43087">
        <ele>754.77</ele>
        <time>2012-05-03T10:43:10Z</time>
      </trkpt>
      <trkpt lat="44.46455" lon="4.42874">
        <ele>760.54</ele>
        <time>2012-05-03T10:43:22Z</time>
      </trkpt>
      <trkpt lat="44.46733" lon="4.42712">
        <ele>765.35</ele>
        <time>2012-05-03T10:43:30Z</time>
      </trkpt>
      <trkpt lat="44.47179" lon="4.42425">
        <ele>774.48</ele>
        <time>2012-05-03T10:43:43Z</time>
      </trkpt>
      <trkpt lat="44.47557" lon="4.42186">
        <ele>773.52</ele>
        <time>2012-05-03T10:43:54Z</time>
      </trkpt>
      <trkpt lat="44.47829" lon="4.41992">
        <ele>766.79</ele>
        <time>2012-05-03T10:44:02Z</time>
      </trkpt>
      <trkpt lat="44.48145" lon="4.41776">
        <ele>759.58</ele>
        <time>2012-05-03T10:44:11Z</time>
      </trkpt>
      <trkpt lat="44.48342" lon="4.4159">
        <ele>756.69</ele>
        <time>2012-05-03T10:44:17Z</time>
      </trkpt>
      <trkpt lat="44.48556" lon="4.41424">
        <ele>754.29</ele>
        <time>2012-05-03T10:44:23Z</time>
      </trkpt>
      <trkpt lat="44.48848" lon="4.41216">
        <ele>750.45</ele>
        <time>2012-05-03T10:44:31Z</time>
      </trkpt>
      <trkpt lat="44.49047" lon="4.41111">
        <ele>751.41</ele>
        <time>2012-05-03T10:44:36Z</time>
      </trkpt>
      <trkpt lat="44.49297" lon="4.40933">
        <ele>758.14</ele>
        <time>2012-05-03T10:44:43Z</time>
      </trkpt>
      <trkpt lat="44.49626" lon="4.40697">
        <ele>757.18</ele>
        <time>2012-05-03T10:44:52Z</time>
      </trkpt>
      <trkpt lat="44.49949" lon="4.40449">
        <ele>751.89</ele>
        <time>2012-05-03T10:45:01Z</time>
      </trkpt>
      <trkpt lat="44.50204" lon="4.40246">
        <ele>751.41</ele>
        <time>2012-05-03T10:45:08Z</time>
      </trkpt>
      <trkpt lat="44.50457" lon="4.40032">
        <ele>749</ele>
        <time>2012-05-03T10:45:15Z</time>
      </trkpt>
      <trkpt lat="44.50655" lon="4.39892">
        <ele>746.12</ele>
        <time>2012-05-03T10:45:20Z</time>
      </trkpt>
      <trkpt lat="44.51007" lon="4.39616">
        <ele>735.55</ele>
        <time>2012-05-03T10:45:29Z</time>
      </trkpt>
      <trkpt lat="44.51308" lon="4.39388">
        <ele>733.14</ele>
        <time>2012-05-03T10:45:37Z</time>
      </trkpt>
      <trkpt lat="44.51587" lon="4.3916">
        <ele>738.91</ele>
        <time>2012-05-03T10:45:45Z</time>
      </trkpt>
      <trkpt lat="44.51895" lon="4.38923">
        <ele>751.89</ele>
        <time>2012-05-03T10:45:54Z</time>
      </trkpt>
      <trkpt lat="44.5218" lon="4.38668">
        <ele>763.9</ele>
        <time>2012-05-03T10:46:03Z</time>
      </trkpt>
      <trkpt lat="44.52381" lon="4.38514">
        <ele>780.25</ele>
        <time>2012-05-03T10:46:10Z</time>
      </trkpt>
      <trkpt lat="44.52631" lon="4.38352">
        <ele>808.13</ele>
        <time>2012-05-03T10:46:19Z</time>
      </trkpt>
      <trkpt lat="44.52857" lon="4.38176">
        <ele>826.87</ele>
        <time>2012-05-03T10:46:27Z</time>
      </trkpt>
      <trkpt lat="44.53167" lon="4.37939">
        <ele>849.94</ele>
        <time>2012-05-03T10:46:38Z</time>
      </trkpt>
      <trkpt lat="44.53362" lon="4.37761">
        <ele>861.96</ele>
        <time>2012-05-03T10:46:45Z</time>
      </trkpt>
      <trkpt lat="44.53614" lon="4.376">
        <ele>874.46</ele>
        <time>2012-05-03T10:46:53Z</time>
      </trkpt>
      <trkpt lat="44.5385" lon="4.37488">
        <ele>892.72</ele>
        <time>2012-05-03T10:47:01Z</time>
      </trkpt>
      <trkpt lat="44.5408" lon="4.37379">
        <ele>923.96</ele>
        <time>2012-05-03T10:47:10Z</time>
      </trkpt>
      <trkpt lat="44.54316" lon="4.3727">
        <ele>953.77</ele>
        <time>2012-05-03T10:47:20Z</time>
      </trkpt>
      <trkpt lat="44.54565" lon="4.37196">
        <ele>971.55</ele>
        <time>2012-05-03T10:47:29Z</time>
      </trkpt>
      <trkpt lat="44.54824" lon="4.37116">
        <ele>990.3</ele>
        <time>2012-05-03T10:47:38Z</time>
      </trkpt>
      <trkpt lat="44.55089" lon="4.37043">
        <ele>1013.37</ele>
        <time>2012-05-03T10:47:47Z</time>
      </trkpt>
      <trkpt lat="44.55386" lon="4.36979">
        <ele>1046.53</ele>
        <time>2012-05-03T10:47:58Z</time>
      </trkpt>
      <trkpt lat="44.55586" lon="4.36927">
        <ele>1059.03</ele>
        <time>2012-05-03T10:48:05Z</time>
      </trkpt>
      <trkpt lat="44.55919" lon="4.3685">
        <ele>1072.97</ele>
        <time>2012-05-03T10:48:16Z</time>
      </trkpt>
      <trkpt lat="44.5621" lon="4.36772">
        <ele>1085.47</ele>
        <time>2012-05-03T10:48:25Z</time>
      </trkpt>
      <trkpt lat="44.56525" lon="4.36699">
        <ele>1109.98</ele>
        <time>2012-05-03T10:48:35Z</time>
      </trkpt>
      <trkpt lat="44.56834" lon="4.36602">
        <ele>1145.55</ele>
        <time>2012-05-03T10:48:46Z</time>
      </trkpt>
      <trkpt lat="44.57073" lon="4.36516">
        <ele>1158.05</ele>
        <time>2012-05-03T10:48:54Z</time>
      </trkpt>
      <trkpt lat="44.5733" lon="4.36401">
        <ele>1180.64</ele>
        <time>2012-05-03T10:49:03Z</time>
      </trkpt>
      <trkpt lat="44.5759" lon="4.36245">
        <ele>1215.24</ele>
        <time>2012-05-03T10:49:13Z</time>
      </trkpt>
      <trkpt lat="44.57886" lon="4.36072">
        <ele>1256.58</ele>
        <time>2012-05-03T10:49:25Z</time>
      </trkpt>
      <trkpt lat="44.58379" lon="4.35766">
        <ele>1312.34</ele>
        <time>2012-05-03T10:49:44Z</time>
      </trkpt>
      <trkpt lat="44.58694" lon="4.35573">
        <ele>1351.75</ele>
        <time>2012-05-03T10:49:57Z</time>
      </trkpt>
      <trkpt lat="44.58888" lon="4.35422">
        <ele>1368.09</ele>
        <time>2012-05-03T10:50:05Z</time>
      </trkpt>
      <trkpt lat="44.5908" lon="4.35338">
        <ele>1384.92</ele>
        <time>2012-05-03T10:50:12Z</time>
      </trkpt>
      <trkpt lat="44.59339" lon="4.35237">
        <ele>1411.83</ele>
        <time>2012-05-03T10:50:22Z</time>
      </trkpt>
      <trkpt lat="44.59664" lon="4.35148">
        <ele>1441.63</ele>
        <time>2012-05-03T10:50:34Z</time>
      </trkpt>
      <trkpt lat="44.59983" lon="4.35034">
        <ele>1469.03</ele>
        <time>2012-05-03T10:50:46Z</time>
      </trkpt>
      <trkpt lat="44.60122" lon="4.34909">
        <ele>1482.49</ele>
        <time>2012-05-03T10:50:52Z</time>
      </trkpt>
      <trkpt lat="44.60371" lon="4.34603">
        <ele>1513.25</ele>
        <time>2012-05-03T10:51:04Z</time>
      </trkpt>
      <trkpt lat="44.60613" lon="4.34351">
        <ele>1543.53</ele>
        <time>2012-05-03T10:51:15Z</time>
      </trkpt>
      <trkpt lat="44.60837" lon="4.3412">
        <ele>1563.72</ele>
        <time>2012-05-03T10:51:25Z</time>
      </trkpt>
      <trkpt lat="44.61108" lon="4.3386">
        <ele>1575.74</ele>
        <time>2012-05-03T10:51:36Z</time>
      </trkpt>
      <trkpt lat="44.61389" lon="4.33588">
        <ele>1587.27</ele>
        <time>2012-05-03T10:51:47Z</time>
      </trkpt>
      <trkpt lat="44.61645" lon="4.33339">
        <ele>1601.21</ele>
        <time>2012-05-03T10:51:57Z</time>
      </trkpt>
      <trkpt lat="44.61823" lon="4.33056">
        <ele>1606.5</ele>
        <time>2012-05-03T10:52:05Z</time>
      </trkpt>
      <trkpt lat="44.62051" lon="4.32651">
        <ele>1617.56</ele>
        <time>2012-05-03T10:52:16Z</time>
      </trkpt>
      <trkpt lat="44.62219" lon="4.3242">
        <ele>1623.8</ele>
        <time>2012-05-03T10:52:23Z</time>
      </trkpt>
      <trkpt lat="44.62416" lon="4.32131">
        <ele>1623.8</ele>
        <time>2012-05-03T10:52:31Z</time>
      </trkpt>
      <trkpt lat="44.62669" lon="4.31751">
        <ele>1608.42</ele>
        <time>2012-05-03T10:52:40Z</time>
      </trkpt>
      <trkpt lat="44.62945" lon="4.31301">
        <ele>1587.27</ele>
        <time>2012-05-03T10:52:50Z</time>
      </trkpt>
      <trkpt lat="44.63113" lon="4.31066">
        <ele>1584.39</ele>
        <time>2012-05-03T10:52:56Z</time>
      </trkpt>
      <trkpt lat="44.63305" lon="4.30908">
        <ele>1586.79</ele>
        <time>2012-05-03T10:53:02Z</time>
      </trkpt>
      <trkpt lat="44.63568" lon="4.3077">
        <ele>1590.64</ele>
        <time>2012-05-03T10:53:10Z</time>
      </trkpt>
      <trkpt lat="44.63878" lon="4.30673">
        <ele>1586.79</ele>
        <time>2012-05-03T10:53:19Z</time>
      </trkpt>
      <trkpt lat="44.64142" lon="4.30566">
        <ele>1585.83</ele>
        <time>2012-05-03T10:53:27Z</time>
      </trkpt>
      <trkpt lat="44.64415" lon="4.30401">
        <ele>1576.7</ele>
        <time>2012-05-03T10:53:35Z</time>
      </trkpt>
      <trkpt lat="44.64778" lon="4.30173">
        <ele>1577.18</ele>
        <time>2012-05-03T10:53:46Z</time>
      </trkpt>
      <trkpt lat="44.65092" lon="4.29993">
        <ele>1587.75</ele>
        <time>2012-05-03T10:53:56Z</time>
      </trkpt>
      <trkpt lat="44.65466" lon="4.29783">
        <ele>1605.06</ele>
        <time>2012-05-03T10:54:08Z</time>
      </trkpt>
      <trkpt lat="44.65846" lon="4.29608">
        <ele>1626.69</ele>
        <time>2012-05-03T10:54:20Z</time>
      </trkpt>
      <trkpt lat="44.66242" lon="4.29465">
        <ele>1655.05</ele>
        <time>2012-05-03T10:54:33Z</time>
      </trkpt>
      <trkpt lat="44.66587" lon="4.29338">
        <ele>1683.41</ele>
        <time>2012-05-03T10:54:45Z</time>
      </trkpt>
      <trkpt lat="44.66995" lon="4.29235">
        <ele>1710.8</ele>
        <time>2012-05-03T10:54:59Z</time>
      </trkpt>
      <trkpt lat="44.67338" lon="4.29134">
        <ele>1733.39</ele>
        <time>2012-05-03T10:55:11Z</time>
      </trkpt>
      <trkpt lat="44.6763" lon="4.29069">
        <ele>1751.66</ele>
        <time>2012-05-03T10:55:21Z</time>
      </trkpt>
      <trkpt lat="44.67958" lon="4.2901">
        <ele>1780.98</ele>
        <time>2012-05-03T10:55:33Z</time>
      </trkpt>
      <trkpt lat="44.68295" lon="4.28952">
        <ele>1815.11</ele>
        <time>2012-05-03T10:55:47Z</time>
      </trkpt>
      <trkpt lat="44.68577" lon="4.28926">
        <ele>1823.76</ele>
        <time>2012-05-03T10:55:57Z</time>
      </trkpt>
      <trkpt lat="44.6892" lon="4.28911">
        <ele>1837.22</ele>
        <time>2012-05-03T10:56:08Z</time>
      </trkpt>
      <trkpt lat="44.6927" lon="4.28908">
        <ele>1848.75</ele>
        <time>2012-05-03T10:56:19Z</time>
      </trkpt>
      <trkpt lat="44.69639" lon="4.289">
        <ele>1861.73</ele>
        <time>2012-05-03T10:56:30Z</time>
      </trkpt>
      <trkpt lat="44.6998" lon="4.28929">
        <ele>1870.38</ele>
        <time>2012-05-03T10:56:40Z</time>
      </trkpt>
      <trkpt lat="44.70347" lon="4.28963">
        <ele>1873.75</ele>
        <time>2012-05-03T10:56:50Z</time>
      </trkpt>
      <trkpt lat="44.70736" lon="4.29046">
        <ele>1882.88</ele>
        <time>2012-05-03T10:57:01Z</time>
      </trkpt>
      <trkpt lat="44.71036" lon="4.29104">
        <ele>1877.59</ele>
        <time>2012-05-03T10:57:09Z</time>
      </trkpt>
      <trkpt lat="44.71402" lon="4.29182">
        <ele>1858.85</ele>
        <time>2012-05-03T10:57:18Z</time>
      </trkpt>
      <trkpt lat="44.71933" lon="4.29331">
        <ele>1842.5</ele>
        <time>2012-05-03T10:57:31Z</time>
      </trkpt>
      <trkpt lat="44.72455" lon="4.29514">
        <ele>1828.08</ele>
        <time>2012-05-03T10:57:44Z</time>
      </trkpt>
      <trkpt lat="44.72909" lon="4.29623">
        <ele>1816.07</ele>
        <time>2012-05-03T10:57:55Z</time>
      </trkpt>
      <trkpt lat="44.73361" lon="4.29684">
        <ele>1814.15</ele>
        <time>2012-05-03T10:58:06Z</time>
      </trkpt>
      <trkpt lat="44.736" lon="4.29641">
        <ele>1816.55</ele>
        <time>2012-05-03T10:58:12Z</time>
      </trkpt>
      <trkpt lat="44.73861" lon="4.29505">
        <ele>1820.87</ele>
        <time>2012-05-03T10:58:19Z</time>
      </trkpt>
      <trkpt lat="44.74334" lon="4.2921">
        <ele>1817.03</ele>
        <time>2012-05-03T10:58:32Z</time>
      </trkpt>
      <trkpt lat="44.74614" lon="4.28977">
        <ele>1812.22</ele>
        <time>2012-05-03T10:58:40Z</time>
      </trkpt>
      <trkpt lat="44.74924" lon="4.28706">
        <ele>1815.11</ele>
        <time>2012-05-03T10:58:49Z</time>
      </trkpt>
      <trkpt lat="44.75209" lon="4.28403">
        <ele>1822.8</ele>
        <time>2012-05-03T10:58:58Z</time>
      </trkpt>
      <trkpt lat="44.75479" lon="4.28106">
        <ele>1831.93</ele>
        <time>2012-05-03T10:59:07Z</time>
      </trkpt>
      <trkpt lat="44.75656" lon="4.27835">
        <ele>1839.14</ele>
        <time>2012-05-03T10:59:14Z</time>
      </trkpt>
      <trkpt lat="44.75871" lon="4.27482">
        <ele>1848.75</ele>
        <time>2012-05-03T10:59:23Z</time>
      </trkpt>
      <trkpt lat="44.76121" lon="4.2713">
        <ele>1852.12</ele>
        <time>2012-05-03T10:59:33Z</time>
      </trkpt>
      <trkpt lat="44.76325" lon="4.26857">
        <ele>1854.52</ele>
        <time>2012-05-03T10:59:41Z</time>
      </trkpt>
      <trkpt lat="44.76478" lon="4.26753">
        <ele>1857.4</ele>
        <time>2012-05-03T10:59:46Z</time>
      </trkpt>
      <trkpt lat="44.76685" lon="4.26691">
        <ele>1859.33</ele>
        <time>2012-05-03T10:59:52Z</time>
      </trkpt>
      <trkpt lat="44.76797" lon="4.26646">
        <ele>1859.81</ele>
        <time>2012-05-03T10:59:55Z</time>
      </trkpt>
      <trkpt lat="44.7721" lon="4.26542">
        <ele>1864.13</ele>
        <time>2012-05-03T11:00:05Z</time>
      </trkpt>
      <trkpt lat="44.77547" lon="4.26429">
        <ele>1864.13</ele>
        <time>2012-05-03T11:00:13Z</time>
      </trkpt>
      <trkpt lat="44.77925" lon="4.26283">
        <ele>1862.69</ele>
        <time>2012-05-03T11:00:22Z</time>
      </trkpt>
      <trkpt lat="44.78206" lon="4.26232">
        <ele>1864.61</ele>
        <time>2012-05-03T11:00:29Z</time>
      </trkpt>
      <trkpt lat="44.78527" lon="4.26163">
        <ele>1862.21</ele>
        <time>2012-05-03T11:00:37Z</time>
      </trkpt>
      <trkpt lat="44.78875" lon="4.26056">
        <ele>1866.54</ele>
        <time>2012-05-03T11:00:46Z</time>
      </trkpt>
      <trkpt lat="44.79329" lon="4.25867">
        <ele>1870.86</ele>
        <time>2012-05-03T11:00:58Z</time>
      </trkpt>
      <trkpt lat="44.79496" lon="4.2572">
        <ele>1872.79</ele>
        <time>2012-05-03T11:01:03Z</time>
      </trkpt>
      <trkpt lat="44.79526" lon="4.25684">
        <ele>1873.75</ele>
        <time>2012-05-03T11:01:04Z</time>
      </trkpt>
      <trkpt lat="44.79724" lon="4.2536">
        <ele>1880.48</ele>
        <time>2012-05-03T11:01:12Z</time>
      </trkpt>
      <trkpt lat="44.79858" lon="4.25132">
        <ele>1885.28</ele>
        <time>2012-05-03T11:01:18Z</time>
      </trkpt>
      <trkpt lat="44.80004" lon="4.24793">
        <ele>1883.84</ele>
        <time>2012-05-03T11:01:26Z</time>
      </trkpt>
      <trkpt lat="44.80146" lon="4.24494">
        <ele>1882.4</ele>
        <time>2012-05-03T11:01:33Z</time>
      </trkpt>
      <trkpt lat="44.80328" lon="4.24094">
        <ele>1880</ele>
        <time>2012-05-03T11:01:42Z</time>
      </trkpt>
      <trkpt lat="44.80541" lon="4.23604">
        <ele>1884.32</ele>
        <time>2012-05-03T11:01:53Z</time>
      </trkpt>
      <trkpt lat="44.8077" lon="4.2305">
        <ele>1885.76</ele>
        <time>2012-05-03T11:02:05Z</time>
      </trkpt>
      <trkpt lat="44.80937" lon="4.22564">
        <ele>1887.21</ele>
        <time>2012-05-03T11:02:15Z</time>
      </trkpt>
      <trkpt lat="44.81173" lon="4.21935">
        <ele>1889.61</ele>
        <time>2012-05-03T11:02:28Z</time>
      </trkpt>
      <trkpt lat="44.81355" lon="4.2153">
        <ele>1892.01</ele>
        <time>2012-05-03T11:02:37Z</time>
      </trkpt>
      <trkpt lat="44.81529" lon="4.21042">
        <ele>1883.84</ele>
        <time>2012-05-03T11:02:47Z</time>
      </trkpt>
      <trkpt lat="44.81745" lon="4.2039">
        <ele>1881.92</ele>
        <time>2012-05-03T11:03:00Z</time>
      </trkpt>
      <trkpt lat="44.81933" lon="4.19933">
        <ele>1894.9</ele>
        <time>2012-05-03T11:03:10Z</time>
      </trkpt>
      <trkpt lat="44.82041" lon="4.1962">
        <ele>1904.51</ele>
        <time>2012-05-03T11:03:17Z</time>
      </trkpt>
      <trkpt lat="44.82149" lon="4.1936">
        <ele>1906.91</ele>
        <time>2012-05-03T11:03:23Z</time>
      </trkpt>
      <trkpt lat="44.82319" lon="4.19096">
        <ele>1908.35</ele>
        <time>2012-05-03T11:03:30Z</time>
      </trkpt>
      <trkpt lat="44.82573" lon="4.1873">
        <ele>1910.76</ele>
        <time>2012-05-03T11:03:40Z</time>
      </trkpt>
      <trkpt lat="44.82801" lon="4.18395">
        <ele>1913.16</ele>
        <time>2012-05-03T11:03:49Z</time>
      </trkpt>
      <trkpt lat="44.83036" lon="4.17978">
        <ele>1913.16</ele>
        <time>2012-05-03T11:03:59Z</time>
      </trkpt>
      <trkpt lat="44.83087" lon="4.17893">
        <ele>1912.2</ele>
        <time>2012-05-03T11:04:01Z</time>
      </trkpt>
      <trkpt lat="44.83282" lon="4.17715">
        <ele>1910.76</ele>
        <time>2012-05-03T11:04:07Z</time>
      </trkpt>
      <trkpt lat="44.83386" lon="4.1765">
        <ele>1910.76</ele>
        <time>2012-05-03T11:04:10Z</time>
      </trkpt>
      <trkpt lat="44.83606" lon="4.17592">
        <ele>1913.64</ele>
        <time>2012-05-03T11:04:16Z</time>
      </trkpt>
      <trkpt lat="44.83885" lon="4.17581">
        <ele>1917.97</ele>
        <time>2012-05-03T11:04:24Z</time>
      </trkpt>
      <trkpt lat="44.84271" lon="4.17523">
        <ele>1916.04</ele>
        <time>2012-05-03T11:04:35Z</time>
      </trkpt>
      <trkpt lat="44.84587" lon="4.17461">
        <ele>1917.97</ele>
        <time>2012-05-03T11:04:44Z</time>
      </trkpt>
      <trkpt lat="44.84847" lon="4.17347">
        <ele>1930.95</ele>
        <time>2012-05-03T11:04:52Z</time>
      </trkpt>
      <trkpt lat="44.85071" lon="4.17197">
        <ele>1944.4</ele>
        <time>2012-05-03T11:04:59Z</time>
      </trkpt>
      <trkpt lat="44.85299" lon="4.17088">
        <ele>1967.48</ele>
        <time>2012-05-03T11:05:06Z</time>
      </trkpt>
      <trkpt lat="44.85508" lon="4.16961">
        <ele>1987.18</ele>
        <time>2012-05-03T11:05:13Z</time>
      </trkpt>
      <trkpt lat="44.85751" lon="4.16778">
        <ele>2013.14</ele>
        <time>2012-05-03T11:05:22Z</time>
      </trkpt>
      <trkpt lat="44.86004" lon="4.16578">
        <ele>2023.71</ele>
        <time>2012-05-03T11:05:31Z</time>
      </trkpt>
      <trkpt lat="44.86264" lon="4.16355">
        <ele>2031.4</ele>
        <time>2012-05-03T11:05:40Z</time>
      </trkpt>
      <trkpt lat="44.86491" lon="4.1617">
        <ele>2031.88</ele>
        <time>2012-05-03T11:05:48Z</time>
      </trkpt>
      <trkpt lat="44.8672" lon="4.15938">
        <ele>2027.56</ele>
        <time>2012-05-03T11:05:56Z</time>
      </trkpt>
      <trkpt lat="44.87079" lon="4.15625">
        <ele>2028.04</ele>
        <time>2012-05-03T11:06:08Z</time>
      </trkpt>
      <trkpt lat="44.87391" lon="4.154">
        <ele>2033.33</ele>
        <time>2012-05-03T11:06:18Z</time>
      </trkpt>
      <trkpt lat="44.87727" lon="4.15209">
        <ele>2031.88</ele>
        <time>2012-05-03T11:06:28Z</time>
      </trkpt>
      <trkpt lat="44.87912" lon="4.15175">
        <ele>2031.88</ele>
        <time>2012-05-03T11:06:33Z</time>
      </trkpt>
      <trkpt lat="44.88262" lon="4.15187">
        <ele>2023.71</ele>
        <time>2012-05-03T11:06:42Z</time>
      </trkpt>
      <trkpt lat="44.885" lon="4.15229">
        <ele>2018.91</ele>
        <time>2012-05-03T11:06:48Z</time>
      </trkpt>
      <trkpt lat="44.88787" lon="4.15358">
        <ele>2018.43</ele>
        <time>2012-05-03T11:06:56Z</time>
      </trkpt>
      <trkpt lat="44.89129" lon="4.15482">
        <ele>2033.33</ele>
        <time>2012-05-03T11:07:06Z</time>
      </trkpt>
      <trkpt lat="44.8945" lon="4.15572">
        <ele>2041.02</ele>
        <time>2012-05-03T11:07:15Z</time>
      </trkpt>
      <trkpt lat="44.89818" lon="4.15654">
        <ele>2039.09</ele>
        <time>2012-05-03T11:07:25Z</time>
      </trkpt>
      <trkpt lat="44.90141" lon="4.1573">
        <ele>2046.3</ele>
        <time>2012-05-03T11:07:34Z</time>
      </trkpt>
      <trkpt lat="44.90413" lon="4.15792">
        <ele>2053.03</ele>
        <time>2012-05-03T11:07:42Z</time>
      </trkpt>
      <trkpt lat="44.90725" lon="4.1578">
        <ele>2060.24</ele>
        <time>2012-05-03T11:07:51Z</time>
      </trkpt>
      <trkpt lat="44.9108" lon="4.15752">
        <ele>2074.18</ele>
        <time>2012-05-03T11:08:02Z</time>
      </trkpt>
      <trkpt lat="44.91393" lon="4.15744">
        <ele>2070.82</ele>
        <time>2012-05-03T11:08:11Z</time>
      </trkpt>
      <trkpt lat="44.91739" lon="4.15733">
        <ele>2068.41</ele>
        <time>2012-05-03T11:08:21Z</time>
      </trkpt>
      <trkpt lat="44.92103" lon="4.1573">
        <ele>2055.92</ele>
        <time>2012-05-03T11:08:31Z</time>
      </trkpt>
      <trkpt lat="44.92409" lon="4.15695">
        <ele>2046.3</ele>
        <time>2012-05-03T11:08:39Z</time>
      </trkpt>
      <trkpt lat="44.92641" lon="4.15703">
        <ele>2045.82</ele>
        <time>2012-05-03T11:08:45Z</time>
      </trkpt>
      <trkpt lat="44.93055" lon="4.15712">
        <ele>2054.47</ele>
        <time>2012-05-03T11:08:56Z</time>
      </trkpt>
      <trkpt lat="44.93399" lon="4.15716">
        <ele>2066.49</ele>
        <time>2012-05-03T11:09:06Z</time>
      </trkpt>
      <trkpt lat="44.93759" lon="4.15703">
        <ele>2067.45</ele>
        <time>2012-05-03T11:09:16Z</time>
      </trkpt>
      <trkpt lat="44.94174" lon="4.15662">
        <ele>2050.63</ele>
        <time>2012-05-03T11:09:27Z</time>
      </trkpt>
      <trkpt lat="44.94464" lon="4.15593">
        <ele>2025.15</ele>
        <time>2012-05-03T11:09:34Z</time>
      </trkpt>
      <trkpt lat="44.94799" lon="4.15589">
        <ele>2016.02</ele>
        <time>2012-05-03T11:09:42Z</time>
      </trkpt>
      <trkpt lat="44.95124" lon="4.1558">
        <ele>2013.62</ele>
        <time>2012-05-03T11:09:50Z</time>
      </trkpt>
      <trkpt lat="44.95362" lon="4.1556">
        <ele>2015.06</ele>
        <time>2012-05-03T11:09:56Z</time>
      </trkpt>
      <trkpt lat="44.95791" lon="4.15548">
        <ele>2003.52</ele>
        <time>2012-05-03T11:10:07Z</time>
      </trkpt>
      <trkpt lat="44.96192" lon="4.15533">
        <ele>1986.7</ele>
        <time>2012-05-03T11:10:17Z</time>
      </trkpt>
      <trkpt lat="44.96704" lon="4.15509">
        <ele>1979.97</ele>
        <time>2012-05-03T11:10:30Z</time>
      </trkpt>
      <trkpt lat="44.97071" lon="4.15484">
        <ele>1985.74</ele>
        <time>2012-05-03T11:10:40Z</time>
      </trkpt>
      <trkpt lat="44.97462" lon="4.1547">
        <ele>1997.76</ele>
        <time>2012-05-03T11:10:51Z</time>
      </trkpt>
      <trkpt lat="44.97803" lon="4.15485">
        <ele>2037.17</ele>
        <time>2012-05-03T11:11:01Z</time>
      </trkpt>
      <trkpt lat="44.98104" lon="4.15532">
        <ele>2054.96</ele>
        <time>2012-05-03T11:11:10Z</time>
      </trkpt>
      <trkpt lat="44.98431" lon="4.1555">
        <ele>2051.59</ele>
        <time>2012-05-03T11:11:19Z</time>
      </trkpt>
      <trkpt lat="44.98768" lon="4.15564">
        <ele>2043.42</ele>
        <time>2012-05-03T11:11:28Z</time>
      </trkpt>
      <trkpt lat="44.99021" lon="4.15631">
        <ele>2041.5</ele>
        <time>2012-05-03T11:11:35Z</time>
      </trkpt>
      <trkpt lat="44.99353" lon="4.15689">
        <ele>2043.9</ele>
        <time>2012-05-03T11:11:44Z</time>
      </trkpt>
      <trkpt lat="44.99691" lon="4.15754">
        <ele>2044.38</ele>
        <time>2012-05-03T11:11:53Z</time>
      </trkpt>
      <trkpt lat="45.00118" lon="4.15817">
        <ele>2039.57</ele>
        <time>2012-05-03T11:12:04Z</time>
      </trkpt>
      <trkpt lat="45.00583" lon="4.15836">
        <ele>2027.08</ele>
        <time>2012-05-03T11:12:16Z</time>
      </trkpt>
      <trkpt lat="45.00927" lon="4.15831">
        <ele>2024.19</ele>
        <time>2012-05-03T11:12:25Z</time>
      </trkpt>
      <trkpt lat="45.01272" lon="4.15832">
        <ele>2020.83</ele>
        <time>2012-05-03T11:12:34Z</time>
      </trkpt>
      <trkpt lat="45.01638" lon="4.15859">
        <ele>2036.21</ele>
        <time>2012-05-03T11:12:44Z</time>
      </trkpt>
      <trkpt lat="45.01897" lon="4.15905">
        <ele>2044.38</ele>
        <time>2012-05-03T11:12:51Z</time>
      </trkpt>
      <trkpt lat="45.02226" lon="4.15964">
        <ele>2046.78</ele>
        <time>2012-05-03T11:13:00Z</time>
      </trkpt>
      <trkpt lat="45.02614" lon="4.16012">
        <ele>2027.08</ele>
        <time>2012-05-03T11:13:10Z</time>
      </trkpt>
      <trkpt lat="45.02936" lon="4.16083">
        <ele>2008.33</ele>
        <time>2012-05-03T11:13:18Z</time>
      </trkpt>
      <trkpt lat="45.03175" lon="4.16119">
        <ele>2009.29</ele>
        <time>2012-05-03T11:13:24Z</time>
      </trkpt>
      <trkpt lat="45.03505" lon="4.16172">
        <ele>2004.49</ele>
        <time>2012-05-03T11:13:32Z</time>
      </trkpt>
      <trkpt lat="45.03821" lon="4.16275">
        <ele>2006.41</ele>
        <time>2012-05-03T11:13:40Z</time>
      </trkpt>
      <trkpt lat="45.04172" lon="4.16373">
        <ele>2003.04</ele>
        <time>2012-05-03T11:13:49Z</time>
      </trkpt>
      <trkpt lat="45.04545" lon="4.16453">
        <ele>2005.45</ele>
        <time>2012-05-03T11:13:59Z</time>
      </trkpt>
      <trkpt lat="45.0487" lon="4.16481">
        <ele>1991.99</ele>
        <time>2012-05-03T11:14:07Z</time>
      </trkpt>
      <trkpt lat="45.05276" lon="4.16548">
        <ele>1984.78</ele>
        <time>2012-05-03T11:14:17Z</time>
      </trkpt>
      <trkpt lat="45.05544" lon="4.16595">
        <ele>1985.26</ele>
        <time>2012-05-03T11:14:24Z</time>
      </trkpt>
      <trkpt lat="45.06077" lon="4.16637">
        <ele>1978.53</ele>
        <time>2012-05-03T11:14:38Z</time>
      </trkpt>
      <trkpt lat="45.06382" lon="4.16673">
        <ele>1971.32</ele>
        <time>2012-05-03T11:14:46Z</time>
      </trkpt>
      <trkpt lat="45.06728" lon="4.16697">
        <ele>1960.75</ele>
        <time>2012-05-03T11:14:55Z</time>
      </trkpt>
      <trkpt lat="45.07116" lon="4.16741">
        <ele>1945.36</ele>
        <time>2012-05-03T11:15:05Z</time>
      </trkpt>
      <trkpt lat="45.07458" lon="4.16804">
        <ele>1944.4</ele>
        <time>2012-05-03T11:15:14Z</time>
      </trkpt>
      <trkpt lat="45.07763" lon="4.16875">
        <ele>1961.23</ele>
        <time>2012-05-03T11:15:23Z</time>
      </trkpt>
      <trkpt lat="45.08088" lon="4.16959">
        <ele>1981.9</ele>
        <time>2012-05-03T11:15:33Z</time>
      </trkpt>
      <trkpt lat="45.08353" lon="4.16992">
        <ele>1998.24</ele>
        <time>2012-05-03T11:15:42Z</time>
      </trkpt>
      <trkpt lat="45.08736" lon="4.16993">
        <ele>2004.49</ele>
        <time>2012-05-03T11:15:55Z</time>
      </trkpt>
      <trkpt lat="45.09081" lon="4.16986">
        <ele>2024.19</ele>
        <time>2012-05-03T11:16:07Z</time>
      </trkpt>
      <trkpt lat="45.09259" lon="4.17001">
        <ele>2036.69</ele>
        <time>2012-05-03T11:16:13Z</time>
      </trkpt>
      <trkpt lat="45.09561" lon="4.17025">
        <ele>2045.34</ele>
        <time>2012-05-03T11:16:21Z</time>
      </trkpt>
      <trkpt lat="45.09889" lon="4.17065">
        <ele>2046.3</ele>
        <time>2012-05-03T11:16:29Z</time>
      </trkpt>
      <trkpt lat="45.10266" lon="4.17063">
        <ele>2048.71</ele>
        <time>2012-05-03T11:16:38Z</time>
      </trkpt>
      <trkpt lat="45.10541" lon="4.17055">
        <ele>2065.05</ele>
        <time>2012-05-03T11:16:45Z</time>
      </trkpt>
      <trkpt lat="45.10741" lon="4.17065">
        <ele>2073.7</ele>
        <time>2012-05-03T11:16:50Z</time>
      </trkpt>
      <trkpt lat="45.11117" lon="4.17118">
        <ele>2071.3</ele>
        <time>2012-05-03T11:16:59Z</time>
      </trkpt>
      <trkpt lat="45.11551" lon="4.17164">
        <ele>2060.24</ele>
        <time>2012-05-03T11:17:09Z</time>
      </trkpt>
      <trkpt lat="45.11985" lon="4.17189">
        <ele>2040.54</ele>
        <time>2012-05-03T11:17:19Z</time>
      </trkpt>
      <trkpt lat="45.12422" lon="4.17204">
        <ele>2018.91</ele>
        <time>2012-05-03T11:17:29Z</time>
      </trkpt>
      <trkpt lat="45.12817" lon="4.1726">
        <ele>2005.45</ele>
        <time>2012-05-03T11:17:38Z</time>
      </trkpt>
      <trkpt lat="45.13231" lon="4.17333">
        <ele>2005.45</ele>
        <time>2012-05-03T11:17:48Z</time>
      </trkpt>
      <trkpt lat="45.1357" lon="4.17414">
        <ele>2015.06</ele>
        <time>2012-05-03T11:17:57Z</time>
      </trkpt>
      <trkpt lat="45.13983" lon="4.17521">
        <ele>2022.27</ele>
        <time>2012-05-03T11:18:08Z</time>
      </trkpt>
      <trkpt lat="45.14253" lon="4.17593">
        <ele>2012.18</ele>
        <time>2012-05-03T11:18:15Z</time>
      </trkpt>
      <trkpt lat="45.14509" lon="4.17673">
        <ele>2004.97</ele>
        <time>2012-05-03T11:18:21Z</time>
      </trkpt>
      <trkpt lat="45.14822" lon="4.17781">
        <ele>1994.39</ele>
        <time>2012-05-03T11:18:29Z</time>
      </trkpt>
      <trkpt lat="45.1521" lon="4.17869">
        <ele>1996.8</ele>
        <time>2012-05-03T11:18:39Z</time>
      </trkpt>
      <trkpt lat="45.15557" lon="4.1796">
        <ele>1996.32</ele>
        <time>2012-05-03T11:18:48Z</time>
      </trkpt>
      <trkpt lat="45.15881" lon="4.18049">
        <ele>1985.74</ele>
        <time>2012-05-03T11:18:56Z</time>
      </trkpt>
      <trkpt lat="45.16354" lon="4.1823">
        <ele>1961.71</ele>
        <time>2012-05-03T11:19:08Z</time>
      </trkpt>
      <trkpt lat="45.16616" lon="4.18349">
        <ele>1960.75</ele>
        <time>2012-05-03T11:19:15Z</time>
      </trkpt>
      <trkpt lat="45.16848" lon="4.18428">
        <ele>1951.61</ele>
        <time>2012-05-03T11:19:21Z</time>
      </trkpt>
      <trkpt lat="45.17215" lon="4.18532">
        <ele>1947.29</ele>
        <time>2012-05-03T11:19:30Z</time>
      </trkpt>
      <trkpt lat="45.17449" lon="4.1863">
        <ele>1960.27</ele>
        <time>2012-05-03T11:19:37Z</time>
      </trkpt>
      <trkpt lat="45.17718" lon="4.18706">
        <ele>1964.11</ele>
        <time>2012-05-03T11:19:45Z</time>
      </trkpt>
      <trkpt lat="45.18056" lon="4.18779">
        <ele>1955.46</ele>
        <time>2012-05-03T11:19:54Z</time>
      </trkpt>
      <trkpt lat="45.18429" lon="4.18908">
        <ele>1949.69</ele>
        <time>2012-05-03T11:20:04Z</time>
      </trkpt>
      <trkpt lat="45.18798" lon="4.19026">
        <ele>1955.46</ele>
        <time>2012-05-03T11:20:14Z</time>
      </trkpt>
      <trkpt lat="45.19065" lon="4.19106">
        <ele>1957.86</ele>
        <time>2012-05-03T11:20:21Z</time>
      </trkpt>
      <trkpt lat="45.1941" lon="4.19216">
        <ele>1960.75</ele>
        <time>2012-05-03T11:20:30Z</time>
      </trkpt>
      <trkpt lat="45.19493" lon="4.19254">
        <ele>1960.75</ele>
        <time>2012-05-03T11:20:32Z</time>
      </trkpt>
      <trkpt lat="45.19602" lon="4.19331">
        <ele>1961.71</ele>
        <time>2012-05-03T11:20:35Z</time>
      </trkpt>
      <trkpt lat="45.1971" lon="4.19554">
        <ele>1962.67</ele>
        <time>2012-05-03T11:20:40Z</time>
      </trkpt>
      <trkpt lat="45.19775" lon="4.19753">
        <ele>1963.63</ele>
        <time>2012-05-03T11:20:44Z</time>
      </trkpt>
      <trkpt lat="45.1984" lon="4.19881">
        <ele>1964.59</ele>
        <time>2012-05-03T11:20:47Z</time>
      </trkpt>
      <trkpt lat="45.1993" lon="4.19988">
        <ele>1964.59</ele>
        <time>2012-05-03T11:20:50Z</time>
      </trkpt>
      <trkpt lat="45.20117" lon="4.20094">
        <ele>1964.59</ele>
        <time>2012-05-03T11:20:55Z</time>
      </trkpt>
      <trkpt lat="45.20465" lon="4.20174">
        <ele>1961.23</ele>
        <time>2012-05-03T11:21:04Z</time>
      </trkpt>
      <trkpt lat="45.20813" lon="4.2025">
        <ele>1954.98</ele>
        <time>2012-05-03T11:21:13Z</time>
      </trkpt>
      <trkpt lat="45.21231" lon="4.20315">
        <ele>1952.09</ele>
        <time>2012-05-03T11:21:24Z</time>
      </trkpt>
      <trkpt lat="45.21489" lon="4.20374">
        <ele>1960.75</ele>
        <time>2012-05-03T11:21:31Z</time>
      </trkpt>
      <trkpt lat="45.2178" lon="4.20423">
        <ele>1979.97</ele>
        <time>2012-05-03T11:21:39Z</time>
      </trkpt>
      <trkpt lat="45.221" lon="4.20471">
        <ele>2016.5</ele>
        <time>2012-05-03T11:21:48Z</time>
      </trkpt>
      <trkpt lat="45.22416" lon="4.2054">
        <ele>2047.26</ele>
        <time>2012-05-03T11:21:57Z</time>
      </trkpt>
      <trkpt lat="45.22718" lon="4.2059">
        <ele>2058.32</ele>
        <time>2012-05-03T11:22:05Z</time>
      </trkpt>
      <trkpt lat="45.23102" lon="4.20627">
        <ele>2060.24</ele>
        <time>2012-05-03T11:22:15Z</time>
      </trkpt>
      <trkpt lat="45.23454" lon="4.20669">
        <ele>2047.75</ele>
        <time>2012-05-03T11:22:24Z</time>
      </trkpt>
      <trkpt lat="45.23921" lon="4.20728">
        <ele>2032.84</ele>
        <time>2012-05-03T11:22:36Z</time>
      </trkpt>
      <trkpt lat="45.24275" lon="4.20781">
        <ele>2020.83</ele>
        <time>2012-05-03T11:22:45Z</time>
      </trkpt>
      <trkpt lat="45.24848" lon="4.20823">
        <ele>1986.22</ele>
        <time>2012-05-03T11:22:59Z</time>
      </trkpt>
      <trkpt lat="45.25218" lon="4.20842">
        <ele>1971.32</ele>
        <time>2012-05-03T11:23:08Z</time>
      </trkpt>
      <trkpt lat="45.25502" lon="4.20922">
        <ele>1959.78</ele>
        <time>2012-05-03T11:23:15Z</time>
      </trkpt>
      <trkpt lat="45.25863" lon="4.21031">
        <ele>1947.77</ele>
        <time>2012-05-03T11:23:24Z</time>
      </trkpt>
      <trkpt lat="45.26067" lon="4.2105">
        <ele>1943.92</ele>
        <time>2012-05-03T11:23:29Z</time>
      </trkpt>
      <trkpt lat="45.26516" lon="4.21113">
        <ele>1941.04</ele>
        <time>2012-05-03T11:23:40Z</time>
      </trkpt>
      <trkpt lat="45.26771" lon="4.21123">
        <ele>1945.85</ele>
        <time>2012-05-03T11:23:46Z</time>
      </trkpt>
      <trkpt lat="45.27037" lon="4.21147">
        <ele>1966.51</ele>
        <time>2012-05-03T11:23:53Z</time>
      </trkpt>
      <trkpt lat="45.27264" lon="4.21158">
        <ele>1983.82</ele>
        <time>2012-05-03T11:23:59Z</time>
      </trkpt>
      <trkpt lat="45.27534" lon="4.21167">
        <ele>1987.66</ele>
        <time>2012-05-03T11:24:06Z</time>
      </trkpt>
      <trkpt lat="45.27865" lon="4.21173">
        <ele>1978.05</ele>
        <time>2012-05-03T11:24:14Z</time>
      </trkpt>
      <trkpt lat="45.28164" lon="4.21165">
        <ele>1967.48</ele>
        <time>2012-05-03T11:24:21Z</time>
      </trkpt>
      <trkpt lat="45.28717" lon="4.21165">
        <ele>1955.46</ele>
        <time>2012-05-03T11:24:34Z</time>
      </trkpt>
      <trkpt lat="45.29271" lon="4.2117">
        <ele>1942.48</ele>
        <time>2012-05-03T11:24:47Z</time>
      </trkpt>
      <trkpt lat="45.29731" lon="4.21176">
        <ele>1939.6</ele>
        <time>2012-05-03T11:24:58Z</time>
      </trkpt>
      <trkpt lat="45.3017" lon="4.212">
        <ele>1941.52</ele>
        <time>2012-05-03T11:25:09Z</time>
      </trkpt>
      <trkpt lat="45.30632" lon="4.21238">
        <ele>1946.33</ele>
        <time>2012-05-03T11:25:21Z</time>
      </trkpt>
      <trkpt lat="45.31141" lon="4.21235">
        <ele>1944.88</ele>
        <time>2012-05-03T11:25:34Z</time>
      </trkpt>
      <trkpt lat="45.31479" lon="4.21245">
        <ele>1933.83</ele>
        <time>2012-05-03T11:25:42Z</time>
      </trkpt>
      <trkpt lat="45.31909" lon="4.2129">
        <ele>1919.89</ele>
        <time>2012-05-03T11:25:52Z</time>
      </trkpt>
      <trkpt lat="45.32445" lon="4.21334">
        <ele>1890.09</ele>
        <time>2012-05-03T11:26:04Z</time>
      </trkpt>
      <trkpt lat="45.32811" lon="4.21432">
        <ele>1862.69</ele>
        <time>2012-05-03T11:26:12Z</time>
      </trkpt>
      <trkpt lat="45.33119" lon="4.21481">
        <ele>1863.17</ele>
        <time>2012-05-03T11:26:19Z</time>
      </trkpt>
      <trkpt lat="45.33639" lon="4.21511">
        <ele>1851.64</ele>
        <time>2012-05-03T11:26:31Z</time>
      </trkpt>
      <trkpt lat="45.33925" lon="4.21576">
        <ele>1849.71</ele>
        <time>2012-05-03T11:26:38Z</time>
      </trkpt>
      <trkpt lat="45.34234" lon="4.21631">
        <ele>1852.12</ele>
        <time>2012-05-03T11:26:46Z</time>
      </trkpt>
      <trkpt lat="45.34493" lon="4.21677">
        <ele>1857.89</ele>
        <time>2012-05-03T11:26:53Z</time>
      </trkpt>
      <trkpt lat="45.34804" lon="4.21762">
        <ele>1852.6</ele>
        <time>2012-05-03T11:27:01Z</time>
      </trkpt>
      <trkpt lat="45.35182" lon="4.21813">
        <ele>1835.77</ele>
        <time>2012-05-03T11:27:10Z</time>
      </trkpt>
      <trkpt lat="45.35508" lon="4.21847">
        <ele>1817.03</ele>
        <time>2012-05-03T11:27:18Z</time>
      </trkpt>
      <trkpt lat="45.3584" lon="4.21823">
        <ele>1799.73</ele>
        <time>2012-05-03T11:27:26Z</time>
      </trkpt>
      <trkpt lat="45.36205" lon="4.21793">
        <ele>1788.67</ele>
        <time>2012-05-03T11:27:35Z</time>
      </trkpt>
      <trkpt lat="45.36487" lon="4.21685">
        <ele>1785.31</ele>
        <time>2012-05-03T11:27:42Z</time>
      </trkpt>
      <trkpt lat="45.36893" lon="4.2152">
        <ele>1782.9</ele>
        <time>2012-05-03T11:27:52Z</time>
      </trkpt>
      <trkpt lat="45.37302" lon="4.21364">
        <ele>1770.89</ele>
        <time>2012-05-03T11:28:02Z</time>
      </trkpt>
      <trkpt lat="45.37614" lon="4.21216">
        <ele>1763.68</ele>
        <time>2012-05-03T11:28:10Z</time>
      </trkpt>
      <trkpt lat="45.37904" lon="4.21094">
        <ele>1739.64</ele>
        <time>2012-05-03T11:28:17Z</time>
      </trkpt>
      <trkpt lat="45.38261" lon="4.20983">
        <ele>1706.96</ele>
        <time>2012-05-03T11:28:25Z</time>
      </trkpt>
      <trkpt lat="45.3871" lon="4.20848">
        <ele>1683.41</ele>
        <time>2012-05-03T11:28:35Z</time>
      </trkpt>
      <trkpt lat="45.39087" lon="4.2078">
        <ele>1684.37</ele>
        <time>2012-05-03T11:28:44Z</time>
      </trkpt>
      <trkpt lat="45.3937" lon="4.20751">
        <ele>1689.65</ele>
        <time>2012-05-03T11:28:51Z</time>
      </trkpt>
      <trkpt lat="45.39447" lon="4.20764">
        <ele>1693.5</ele>
        <time>2012-05-03T11:28:53Z</time>
      </trkpt>
      <trkpt lat="45.39717" lon="4.20889">
        <ele>1701.19</ele>
        <time>2012-05-03T11:29:00Z</time>
      </trkpt>
      <trkpt lat="45.40005" lon="4.20979">
        <ele>1701.19</ele>
        <time>2012-05-03T11:29:07Z</time>
      </trkpt>
      <trkpt lat="45.40337" lon="4.21029">
        <ele>1704.07</ele>
        <time>2012-05-03T11:29:15Z</time>
      </trkpt>
      <trkpt lat="45.40603" lon="4.21008">
        <ele>1723.3</ele>
        <time>2012-05-03T11:29:22Z</time>
      </trkpt>
      <trkpt lat="45.40968" lon="4.20968">
        <ele>1733.39</ele>
        <time>2012-05-03T11:29:32Z</time>
      </trkpt>
      <trkpt lat="45.41391" lon="4.20898">
        <ele>1740.12</ele>
        <time>2012-05-03T11:29:43Z</time>
      </trkpt>
      <trkpt lat="45.41704" lon="4.20826">
        <ele>1745.41</ele>
        <time>2012-05-03T11:29:51Z</time>
      </trkpt>
      <trkpt lat="45.42073" lon="4.20767">
        <ele>1734.36</ele>
        <time>2012-05-03T11:30:00Z</time>
      </trkpt>
      <trkpt lat="45.42536" lon="4.20696">
        <ele>1701.67</ele>
        <time>2012-05-03T11:30:11Z</time>
      </trkpt>
      <trkpt lat="45.43011" lon="4.20643">
        <ele>1670.43</ele>
        <time>2012-05-03T11:30:22Z</time>
      </trkpt>
      <trkpt lat="45.43393" lon="4.20582">
        <ele>1660.81</ele>
        <time>2012-05-03T11:30:31Z</time>
      </trkpt>
      <trkpt lat="45.43823" lon="4.20469">
        <ele>1641.11</ele>
        <time>2012-05-03T11:30:41Z</time>
      </trkpt>
      <trkpt lat="45.44279" lon="4.20342">
        <ele>1631.49</ele>
        <time>2012-05-03T11:30:52Z</time>
      </trkpt>
      <trkpt lat="45.44603" lon="4.20185">
        <ele>1619.96</ele>
        <time>2012-05-03T11:31:00Z</time>
      </trkpt>
      <trkpt lat="45.44948" lon="4.20003">
        <ele>1621.4</ele>
        <time>2012-05-03T11:31:09Z</time>
      </trkpt>
      <trkpt lat="45.45315" lon="4.1985">
        <ele>1604.1</ele>
        <time>2012-05-03T11:31:18Z</time>
      </trkpt>
      <trkpt lat="45.45696" lon="4.19691">
        <ele>1579.1</ele>
        <time>2012-05-03T11:31:27Z</time>
      </trkpt>
      <trkpt lat="45.4605" lon="4.19541">
        <ele>1577.18</ele>
        <time>2012-05-03T11:31:36Z</time>
      </trkpt>
      <trkpt lat="45.46353" lon="4.19437">
        <ele>1583.43</ele>
        <time>2012-05-03T11:31:44Z</time>
      </trkpt>
      <trkpt lat="45.46655" lon="4.19325">
        <ele>1590.16</ele>
        <time>2012-05-03T11:31:52Z</time>
      </trkpt>
      <trkpt lat="45.47029" lon="4.1916">
        <ele>1568.53</ele>
        <time>2012-05-03T11:32:01Z</time>
      </trkpt>
      <trkpt lat="45.47381" lon="4.19011">
        <ele>1520.94</ele>
        <time>2012-05-03T11:32:09Z</time>
      </trkpt>
      <trkpt lat="45.47728" lon="4.18921">
        <ele>1507.48</ele>
        <time>2012-05-03T11:32:17Z</time>
      </trkpt>
      <trkpt lat="45.48207" lon="4.18775">
        <ele>1499.79</ele>
        <time>2012-05-03T11:32:29Z</time>
      </trkpt>
      <trkpt lat="45.48541" lon="4.18641">
        <ele>1503.64</ele>
        <time>2012-05-03T11:32:38Z</time>
      </trkpt>
      <trkpt lat="45.48946" lon="4.18452">
        <ele>1494.99</ele>
        <time>2012-05-03T11:32:49Z</time>
      </trkpt>
      <trkpt lat="45.49303" lon="4.18301">
        <ele>1506.04</ele>
        <time>2012-05-03T11:32:59Z</time>
      </trkpt>
      <trkpt lat="45.4959" lon="4.18223">
        <ele>1512.29</ele>
        <time>2012-05-03T11:33:07Z</time>
      </trkpt>
      <trkpt lat="45.49809" lon="4.18184">
        <ele>1507.48</ele>
        <time>2012-05-03T11:33:13Z</time>
      </trkpt>
      <trkpt lat="45.49978" lon="4.18149">
        <ele>1497.87</ele>
        <time>2012-05-03T11:33:17Z</time>
      </trkpt>
      <trkpt lat="45.50391" lon="4.18032">
        <ele>1453.65</ele>
        <time>2012-05-03T11:33:26Z</time>
      </trkpt>
      <trkpt lat="45.50726" lon="4.17987">
        <ele>1414.72</ele>
        <time>2012-05-03T11:33:33Z</time>
      </trkpt>
      <trkpt lat="45.51234" lon="4.17951">
        <ele>1346.94</ele>
        <time>2012-05-03T11:33:44Z</time>
      </trkpt>
      <trkpt lat="45.51714" lon="4.1787">
        <ele>1271.96</ele>
        <time>2012-05-03T11:33:54Z</time>
      </trkpt>
      <trkpt lat="45.52162" lon="4.17733">
        <ele>1220.05</ele>
        <time>2012-05-03T11:34:04Z</time>
      </trkpt>
      <trkpt lat="45.52499" lon="4.17614">
        <ele>1198.42</ele>
        <time>2012-05-03T11:34:12Z</time>
      </trkpt>
      <trkpt lat="45.52881" lon="4.17465">
        <ele>1187.85</ele>
        <time>2012-05-03T11:34:22Z</time>
      </trkpt>
      <trkpt lat="45.53167" lon="4.17358">
        <ele>1196.98</ele>
        <time>2012-05-03T11:34:30Z</time>
      </trkpt>
      <trkpt lat="45.53561" lon="4.1723">
        <ele>1216.69</ele>
        <time>2012-05-03T11:34:42Z</time>
      </trkpt>
      <trkpt lat="45.53878" lon="4.17115">
        <ele>1233.51</ele>
        <time>2012-05-03T11:34:52Z</time>
      </trkpt>
      <trkpt lat="45.54195" lon="4.17024">
        <ele>1254.66</ele>
        <time>2012-05-03T11:35:02Z</time>
      </trkpt>
      <trkpt lat="45.54484" lon="4.16883">
        <ele>1263.31</ele>
        <time>2012-05-03T11:35:11Z</time>
      </trkpt>
      <trkpt lat="45.55095" lon="4.16608">
        <ele>1282.06</ele>
        <time>2012-05-03T11:35:29Z</time>
      </trkpt>
      <trkpt lat="45.55543" lon="4.16456">
        <ele>1279.17</ele>
        <time>2012-05-03T11:35:41Z</time>
      </trkpt>
      <trkpt lat="45.5594" lon="4.16314">
        <ele>1271.48</ele>
        <time>2012-05-03T11:35:51Z</time>
      </trkpt>
      <trkpt lat="45.5632" lon="4.16157">
        <ele>1253.7</ele>
        <time>2012-05-03T11:36:00Z</time>
      </trkpt>
      <trkpt lat="45.56783" lon="4.15983">
        <ele>1229.18</ele>
        <time>2012-05-03T11:36:11Z</time>
      </trkpt>
      <trkpt lat="45.57156" lon="4.15834">
        <ele>1214.28</ele>
        <time>2012-05-03T11:36:20Z</time>
      </trkpt>
      <trkpt lat="45.57517" lon="4.1569">
        <ele>1210.44</ele>
        <time>2012-05-03T11:36:29Z</time>
      </trkpt>
      <trkpt lat="45.57968" lon="4.15465">
        <ele>1194.09</ele>
        <time>2012-05-03T11:36:40Z</time>
      </trkpt>
      <trkpt lat="45.58281" lon="4.15341">
        <ele>1195.06</ele>
        <time>2012-05-03T11:36:48Z</time>
      </trkpt>
      <trkpt lat="45.58611" lon="4.1518">
        <ele>1204.19</ele>
        <time>2012-05-03T11:36:57Z</time>
      </trkpt>
      <trkpt lat="45.59058" lon="4.14932">
        <ele>1197.46</ele>
        <time>2012-05-03T11:37:09Z</time>
      </trkpt>
      <trkpt lat="45.59286" lon="4.14818">
        <ele>1192.65</ele>
        <time>2012-05-03T11:37:15Z</time>
      </trkpt>
      <trkpt lat="45.59677" lon="4.14623">
        <ele>1178.71</ele>
        <time>2012-05-03T11:37:25Z</time>
      </trkpt>
      <trkpt lat="45.6006" lon="4.14457">
        <ele>1173.43</ele>
        <time>2012-05-03T11:37:35Z</time>
      </trkpt>
      <trkpt lat="45.60441" lon="4.14307">
        <ele>1174.39</ele>
        <time>2012-05-03T11:37:45Z</time>
      </trkpt>
      <trkpt lat="45.60737" lon="4.14178">
        <ele>1185.92</ele>
        <time>2012-05-03T11:37:53Z</time>
      </trkpt>
      <trkpt lat="45.61049" lon="4.14022">
        <ele>1196.5</ele>
        <time>2012-05-03T11:38:02Z</time>
      </trkpt>
      <trkpt lat="45.61307" lon="4.13917">
        <ele>1190.73</ele>
        <time>2012-05-03T11:38:09Z</time>
      </trkpt>
      <trkpt lat="45.61638" lon="4.13833">
        <ele>1190.25</ele>
        <time>2012-05-03T11:38:18Z</time>
      </trkpt>
      <trkpt lat="45.61903" lon="4.13786">
        <ele>1215.24</ele>
        <time>2012-05-03T11:38:26Z</time>
      </trkpt>
      <trkpt lat="45.62124" lon="4.13718">
        <ele>1230.62</ele>
        <time>2012-05-03T11:38:33Z</time>
      </trkpt>
      <trkpt lat="45.62455" lon="4.13601">
        <ele>1234.47</ele>
        <time>2012-05-03T11:38:43Z</time>
      </trkpt>
      <trkpt lat="45.62724" lon="4.13512">
        <ele>1231.11</ele>
        <time>2012-05-03T11:38:51Z</time>
      </trkpt>
      <trkpt lat="45.62899" lon="4.13525">
        <ele>1229.66</ele>
        <time>2012-05-03T11:38:56Z</time>
      </trkpt>
      <trkpt lat="45.63094" lon="4.13617">
        <ele>1229.18</ele>
        <time>2012-05-03T11:39:02Z</time>
      </trkpt>
      <trkpt lat="45.63377" lon="4.13768">
        <ele>1222.45</ele>
        <time>2012-05-03T11:39:10Z</time>
      </trkpt>
      <trkpt lat="45.63722" lon="4.13939">
        <ele>1217.65</ele>
        <time>2012-05-03T11:39:20Z</time>
      </trkpt>
      <trkpt lat="45.63945" lon="4.14039">
        <ele>1231.11</ele>
        <time>2012-05-03T11:39:27Z</time>
      </trkpt>
      <trkpt lat="45.6418" lon="4.14074">
        <ele>1237.35</ele>
        <time>2012-05-03T11:39:34Z</time>
      </trkpt>
      <trkpt lat="45.64557" lon="4.14046">
        <ele>1238.32</ele>
        <time>2012-05-03T11:39:45Z</time>
      </trkpt>
      <trkpt lat="45.6483" lon="4.14062">
        <ele>1242.64</ele>
        <time>2012-05-03T11:39:53Z</time>
      </trkpt>
      <trkpt lat="45.6505" lon="4.14021">
        <ele>1257.54</ele>
        <time>2012-05-03T11:40:00Z</time>
      </trkpt>
      <trkpt lat="45.65243" lon="4.13974">
        <ele>1264.27</ele>
        <time>2012-05-03T11:40:06Z</time>
      </trkpt>
      <trkpt lat="45.65545" lon="4.13885">
        <ele>1264.27</ele>
        <time>2012-05-03T11:40:15Z</time>
      </trkpt>
      <trkpt lat="45.65894" lon="4.13766">
        <ele>1254.66</ele>
        <time>2012-05-03T11:40:25Z</time>
      </trkpt>
      <trkpt lat="45.66155" lon="4.13715">
        <ele>1245.53</ele>
        <time>2012-05-03T11:40:32Z</time>
      </trkpt>
      <trkpt lat="45.66382" lon="4.13709">
        <ele>1237.35</ele>
        <time>2012-05-03T11:40:39Z</time>
      </trkpt>
      <trkpt lat="45.66604" lon="4.13654">
        <ele>1225.34</ele>
        <time>2012-05-03T11:40:46Z</time>
      </trkpt>
      <trkpt lat="45.6687" lon="4.13518">
        <ele>1196.98</ele>
        <time>2012-05-03T11:40:54Z</time>
      </trkpt>
      <trkpt lat="45.67212" lon="4.13339">
        <ele>1165.26</ele>
        <time>2012-05-03T11:41:04Z</time>
      </trkpt>
      <trkpt lat="45.67528" lon="4.13133">
        <ele>1130.65</ele>
        <time>2012-05-03T11:41:13Z</time>
      </trkpt>
      <trkpt lat="45.67772" lon="4.13003">
        <ele>1116.71</ele>
        <time>2012-05-03T11:41:20Z</time>
      </trkpt>
      <trkpt lat="45.68049" lon="4.12845">
        <ele>1105.65</ele>
        <time>2012-05-03T11:41:29Z</time>
      </trkpt>
      <trkpt lat="45.68285" lon="4.12742">
        <ele>1074.89</ele>
        <time>2012-05-03T11:41:36Z</time>
      </trkpt>
      <trkpt lat="45.68495" lon="4.12639">
        <ele>1049.42</ele>
        <time>2012-05-03T11:41:42Z</time>
      </trkpt>
      <trkpt lat="45.68703" lon="4.1253">
        <ele>1034.52</ele>
        <time>2012-05-03T11:41:49Z</time>
      </trkpt>
      <trkpt lat="45.68963" lon="4.12375">
        <ele>1024.9</ele>
        <time>2012-05-03T11:41:58Z</time>
      </trkpt>
      <trkpt lat="45.69243" lon="4.12228">
        <ele>1019.62</ele>
        <time>2012-05-03T11:42:07Z</time>
      </trkpt>
      <trkpt lat="45.69473" lon="4.12095">
        <ele>1030.19</ele>
        <time>2012-05-03T11:42:15Z</time>
      </trkpt>
      <trkpt lat="45.69715" lon="4.11963">
        <ele>1035.96</ele>
        <time>2012-05-03T11:42:23Z</time>
      </trkpt>
      <trkpt lat="45.7001" lon="4.11849">
        <ele>1074.41</ele>
        <time>2012-05-03T11:42:33Z</time>
      </trkpt>
      <trkpt lat="45.70236" lon="4.11766">
        <ele>1093.16</ele>
        <time>2012-05-03T11:42:41Z</time>
      </trkpt>
      <trkpt lat="45.70528" lon="4.11642">
        <ele>1095.08</ele>
        <time>2012-05-03T11:42:50Z</time>
      </trkpt>
      <trkpt lat="45.70903" lon="4.11499">
        <ele>1085.95</ele>
        <time>2012-05-03T11:43:01Z</time>
      </trkpt>
      <trkpt lat="45.71255" lon="4.11364">
        <ele>1077.78</ele>
        <time>2012-05-03T11:43:11Z</time>
      </trkpt>
      <trkpt lat="45.71669" lon="4.11201">
        <ele>1068.16</ele>
        <time>2012-05-03T11:43:22Z</time>
      </trkpt>
      <trkpt lat="45.71946" lon="4.11081">
        <ele>1051.34</ele>
        <time>2012-05-03T11:43:29Z</time>
      </trkpt>
      <trkpt lat="45.72223" lon="4.10952">
        <ele>1048.94</ele>
        <time>2012-05-03T11:43:36Z</time>
      </trkpt>
      <trkpt lat="45.72571" lon="4.10807">
        <ele>1054.22</ele>
        <time>2012-05-03T11:43:45Z</time>
      </trkpt>
      <trkpt lat="45.7297" lon="4.10625">
        <ele>1060.47</ele>
        <time>2012-05-03T11:43:56Z</time>
      </trkpt>
      <trkpt lat="45.73256" lon="4.10531">
        <ele>1072.01</ele>
        <time>2012-05-03T11:44:04Z</time>
      </trkpt>
      <trkpt lat="45.73587" lon="4.10424">
        <ele>1076.33</ele>
        <time>2012-05-03T11:44:13Z</time>
      </trkpt>
      <trkpt lat="45.74029" lon="4.10292">
        <ele>1083.54</ele>
        <time>2012-05-03T11:44:25Z</time>
      </trkpt>
      <trkpt lat="45.7439" lon="4.10191">
        <ele>1089.31</ele>
        <time>2012-05-03T11:44:35Z</time>
      </trkpt>
      <trkpt lat="45.74647" lon="4.1017">
        <ele>1095.08</ele>
        <time>2012-05-03T11:44:42Z</time>
      </trkpt>
      <trkpt lat="45.7483" lon="4.10092">
        <ele>1092.2</ele>
        <time>2012-05-03T11:44:47Z</time>
      </trkpt>
      <trkpt lat="45.75133" lon="4.09973">
        <ele>1082.58</ele>
        <time>2012-05-03T11:44:55Z</time>
      </trkpt>
      <trkpt lat="45.75493" lon="4.09827">
        <ele>1084.99</ele>
        <time>2012-05-03T11:45:05Z</time>
      </trkpt>
      <trkpt lat="45.75814" lon="4.09751">
        <ele>1094.6</ele>
        <time>2012-05-03T11:45:14Z</time>
      </trkpt>
      <trkpt lat="45.76066" lon="4.09648">
        <ele>1094.12</ele>
        <time>2012-05-03T11:45:21Z</time>
      </trkpt>
      <trkpt lat="45.76426" lon="4.09526">
        <ele>1098.92</ele>
        <time>2012-05-03T11:45:31Z</time>
      </trkpt>
      <trkpt lat="45.76717" lon="4.09389">
        <ele>1089.31</ele>
        <time>2012-05-03T11:45:39Z</time>
      </trkpt>
      <trkpt lat="45.77068" lon="4.09248">
        <ele>1092.2</ele>
        <time>2012-05-03T11:45:49Z</time>
      </trkpt>
      <trkpt lat="45.77383" lon="4.09088">
        <ele>1089.79</ele>
        <time>2012-05-03T11:45:58Z</time>
      </trkpt>
      <trkpt lat="45.77669" lon="4.08905">
        <ele>1083.06</ele>
        <time>2012-05-03T11:46:06Z</time>
      </trkpt>
      <trkpt lat="45.77997" lon="4.08757">
        <ele>1081.62</ele>
        <time>2012-05-03T11:46:15Z</time>
      </trkpt>
      <trkpt lat="45.78331" lon="4.08597">
        <ele>1082.58</ele>
        <time>2012-05-03T11:46:24Z</time>
      </trkpt>
      <trkpt lat="45.78672" lon="4.08422">
        <ele>1098.92</ele>
        <time>2012-05-03T11:46:34Z</time>
      </trkpt>
      <trkpt lat="45.79052" lon="4.08256">
        <ele>1110.46</ele>
        <time>2012-05-03T11:46:45Z</time>
      </trkpt>
      <trkpt lat="45.79335" lon="4.08164">
        <ele>1118.15</ele>
        <time>2012-05-03T11:46:53Z</time>
      </trkpt>
      <trkpt lat="45.79616" lon="4.08087">
        <ele>1127.76</ele>
        <time>2012-05-03T11:47:01Z</time>
      </trkpt>
      <trkpt lat="45.79969" lon="4.07941">
        <ele>1132.57</ele>
        <time>2012-05-03T11:47:11Z</time>
      </trkpt>
      <trkpt lat="45.80317" lon="4.07773">
        <ele>1148.43</ele>
        <time>2012-05-03T11:47:21Z</time>
      </trkpt>
      <trkpt lat="45.806" lon="4.07613">
        <ele>1146.03</ele>
        <time>2012-05-03T11:47:29Z</time>
      </trkpt>
      <trkpt lat="45.80855" lon="4.07555">
        <ele>1149.87</ele>
        <time>2012-05-03T11:47:36Z</time>
      </trkpt>
      <trkpt lat="45.81241" lon="4.07457">
        <ele>1164.77</ele>
        <time>2012-05-03T11:47:47Z</time>
      </trkpt>
      <trkpt lat="45.81625" lon="4.07375">
        <ele>1194.09</ele>
        <time>2012-05-03T11:47:59Z</time>
      </trkpt>
      <trkpt lat="45.81912" lon="4.07282">
        <ele>1210.44</ele>
        <time>2012-05-03T11:48:08Z</time>
      </trkpt>
      <trkpt lat="45.82251" lon="4.07159">
        <ele>1217.17</ele>
        <time>2012-05-03T11:48:18Z</time>
      </trkpt>
      <trkpt lat="45.82509" lon="4.07099">
        <ele>1222.45</ele>
        <time>2012-05-03T11:48:25Z</time>
      </trkpt>
      <trkpt lat="45.8285" lon="4.06998">
        <ele>1224.38</ele>
        <time>2012-05-03T11:48:34Z</time>
      </trkpt>
      <trkpt lat="45.83289" lon="4.06861">
        <ele>1235.43</ele>
        <time>2012-05-03T11:48:46Z</time>
      </trkpt>
      <trkpt lat="45.8369" lon="4.06776">
        <ele>1248.41</ele>
        <time>2012-05-03T11:48:57Z</time>
      </trkpt>
      <trkpt lat="45.84018" lon="4.06668">
        <ele>1256.1</ele>
        <time>2012-05-03T11:49:06Z</time>
      </trkpt>
      <trkpt lat="45.84382" lon="4.06562">
        <ele>1261.39</ele>
        <time>2012-05-03T11:49:16Z</time>
      </trkpt>
      <trkpt lat="45.84954" lon="4.06402">
        <ele>1252.25</ele>
        <time>2012-05-03T11:49:31Z</time>
      </trkpt>
      <trkpt lat="45.85322" lon="4.06284">
        <ele>1224.86</ele>
        <time>2012-05-03T11:49:40Z</time>
      </trkpt>
      <trkpt lat="45.85784" lon="4.06146">
        <ele>1206.11</ele>
        <time>2012-05-03T11:49:51Z</time>
      </trkpt>
      <trkpt lat="45.86269" lon="4.06022">
        <ele>1194.09</ele>
        <time>2012-05-03T11:50:03Z</time>
      </trkpt>
      <trkpt lat="45.86722" lon="4.0588">
        <ele>1184.48</ele>
        <time>2012-05-03T11:50:14Z</time>
      </trkpt>
      <trkpt lat="45.86979" lon="4.05817">
        <ele>1183.52</ele>
        <time>2012-05-03T11:50:20Z</time>
      </trkpt>
      <trkpt lat="45.87353" lon="4.0578">
        <ele>1176.79</ele>
        <time>2012-05-03T11:50:28Z</time>
      </trkpt>
      <trkpt lat="45.87642" lon="4.05705">
        <ele>1161.89</ele>
        <time>2012-05-03T11:50:34Z</time>
      </trkpt>
      <trkpt lat="45.87933" lon="4.05668">
        <ele>1136.42</ele>
        <time>2012-05-03T11:50:40Z</time>
      </trkpt>
      <trkpt lat="45.8825" lon="4.05716">
        <ele>1106.13</ele>
        <time>2012-05-03T11:50:47Z</time>
      </trkpt>
      <trkpt lat="45.88533" lon="4.05773">
        <ele>1076.81</ele>
        <time>2012-05-03T11:50:54Z</time>
      </trkpt>
      <trkpt lat="45.88802" lon="4.0571">
        <ele>1055.67</ele>
        <time>2012-05-03T11:51:01Z</time>
      </trkpt>
      <trkpt lat="45.89125" lon="4.05599">
        <ele>1036.92</ele>
        <time>2012-05-03T11:51:10Z</time>
      </trkpt>
      <trkpt lat="45.89359" lon="4.05463">
        <ele>1027.79</ele>
        <time>2012-05-03T11:51:17Z</time>
      </trkpt>
      <trkpt lat="45.89682" lon="4.05281">
        <ele>1018.65</ele>
        <time>2012-05-03T11:51:27Z</time>
      </trkpt>
      <trkpt lat="45.89947" lon="4.051">
        <ele>996.06</ele>
        <time>2012-05-03T11:51:35Z</time>
      </trkpt>
      <trkpt lat="45.9022" lon="4.04947">
        <ele>977.32</ele>
        <time>2012-05-03T11:51:43Z</time>
      </trkpt>
      <trkpt lat="45.9053" lon="4.04791">
        <ele>964.82</ele>
        <time>2012-05-03T11:51:52Z</time>
      </trkpt>
      <trkpt lat="45.90839" lon="4.04643">
        <ele>960.98</ele>
        <time>2012-05-03T11:52:01Z</time>
      </trkpt>
      <trkpt lat="45.91085" lon="4.0457">
        <ele>951.36</ele>
        <time>2012-05-03T11:52:08Z</time>
      </trkpt>
      <trkpt lat="45.91408" lon="4.04475">
        <ele>936.94</ele>
        <time>2012-05-03T11:52:17Z</time>
      </trkpt>
      <trkpt lat="45.9174" lon="4.04452">
        <ele>939.35</ele>
        <time>2012-05-03T11:52:26Z</time>
      </trkpt>
      <trkpt lat="45.92073" lon="4.04369">
        <ele>944.63</ele>
        <time>2012-05-03T11:52:35Z</time>
      </trkpt>
      <trkpt lat="45.92404" lon="4.04311">
        <ele>945.59</ele>
        <time>2012-05-03T11:52:44Z</time>
      </trkpt>
      <trkpt lat="45.92663" lon="4.04277">
        <ele>942.23</ele>
        <time>2012-05-03T11:52:51Z</time>
      </trkpt>
      <trkpt lat="45.92951" lon="4.04268">
        <ele>946.07</ele>
        <time>2012-05-03T11:52:59Z</time>
      </trkpt>
      <trkpt lat="45.932" lon="4.04214">
        <ele>960.49</ele>
        <time>2012-05-03T11:53:06Z</time>
      </trkpt>
      <trkpt lat="45.9343" lon="4.04106">
        <ele>974.43</ele>
        <time>2012-05-03T11:53:13Z</time>
      </trkpt>
      <trkpt lat="45.93687" lon="4.04008">
        <ele>987.89</ele>
        <time>2012-05-03T11:53:21Z</time>
      </trkpt>
      <trkpt lat="45.94014" lon="4.03913">
        <ele>1002.31</ele>
        <time>2012-05-03T11:53:31Z</time>
      </trkpt>
      <trkpt lat="45.94298" lon="4.03792">
        <ele>994.14</ele>
        <time>2012-05-03T11:53:39Z</time>
      </trkpt>
      <trkpt lat="45.94591" lon="4.037">
        <ele>985.97</ele>
        <time>2012-05-03T11:53:47Z</time>
      </trkpt>
      <trkpt lat="45.9493" lon="4.03583">
        <ele>975.88</ele>
        <time>2012-05-03T11:53:56Z</time>
      </trkpt>
      <trkpt lat="45.95255" lon="4.0351">
        <ele>960.98</ele>
        <time>2012-05-03T11:54:04Z</time>
      </trkpt>
      <trkpt lat="45.95735" lon="4.0347">
        <ele>936.46</ele>
        <time>2012-05-03T11:54:16Z</time>
      </trkpt>
      <trkpt lat="45.96127" lon="4.03428">
        <ele>915.79</ele>
        <time>2012-05-03T11:54:26Z</time>
      </trkpt>
      <trkpt lat="45.96392" lon="4.03322">
        <ele>913.87</ele>
        <time>2012-05-03T11:54:33Z</time>
      </trkpt>
      <trkpt lat="45.96687" lon="4.03227">
        <ele>920.12</ele>
        <time>2012-05-03T11:54:41Z</time>
      </trkpt>
      <trkpt lat="45.96903" lon="4.03119">
        <ele>914.35</ele>
        <time>2012-05-03T11:54:47Z</time>
      </trkpt>
      <trkpt lat="45.97238" lon="4.02932">
        <ele>894.16</ele>
        <time>2012-05-03T11:54:56Z</time>
      </trkpt>
      <trkpt lat="45.97612" lon="4.02753">
        <ele>877.82</ele>
        <time>2012-05-03T11:55:06Z</time>
      </trkpt>
      <trkpt lat="45.97937" lon="4.02598">
        <ele>883.11</ele>
        <time>2012-05-03T11:55:15Z</time>
      </trkpt>
      <trkpt lat="45.98275" lon="4.02459">
        <ele>903.78</ele>
        <time>2012-05-03T11:55:25Z</time>
      </trkpt>
      <trkpt lat="45.98538" lon="4.02305">
        <ele>904.26</ele>
        <time>2012-05-03T11:55:33Z</time>
      </trkpt>
      <trkpt lat="45.9882" lon="4.022">
        <ele>905.22</ele>
        <time>2012-05-03T11:55:41Z</time>
      </trkpt>
      <trkpt lat="45.99101" lon="4.0204">
        <ele>895.12</ele>
        <time>2012-05-03T11:55:49Z</time>
      </trkpt>
      <trkpt lat="45.9943" lon="4.01847">
        <ele>882.63</ele>
        <time>2012-05-03T11:55:58Z</time>
      </trkpt>
      <trkpt lat="45.99659" lon="4.01776">
        <ele>887.43</ele>
        <time>2012-05-03T11:56:04Z</time>
      </trkpt>
      <trkpt lat="45.99946" lon="4.01659">
        <ele>889.36</ele>
        <time>2012-05-03T11:56:12Z</time>
      </trkpt>
      <trkpt lat="46.00272" lon="4.01459">
        <ele>870.13</ele>
        <time>2012-05-03T11:56:21Z</time>
      </trkpt>
      <trkpt lat="46.00684" lon="4.01271">
        <ele>861.48</ele>
        <time>2012-05-03T11:56:32Z</time>
      </trkpt>
      <trkpt lat="46.00941" lon="4.01103">
        <ele>856.19</ele>
        <time>2012-05-03T11:56:39Z</time>
      </trkpt>
      <trkpt lat="46.01186" lon="4.00977">
        <ele>867.25</ele>
        <time>2012-05-03T11:56:46Z</time>
      </trkpt>
      <trkpt lat="46.01549" lon="4.00817">
        <ele>879.74</ele>
        <time>2012-05-03T11:56:57Z</time>
      </trkpt>
      <trkpt lat="46.0181" lon="4.00705">
        <ele>884.07</ele>
        <time>2012-05-03T11:57:05Z</time>
      </trkpt>
      <trkpt lat="46.02032" lon="4.00588">
        <ele>887.91</ele>
        <time>2012-05-03T11:57:12Z</time>
      </trkpt>
      <trkpt lat="46.02381" lon="4.00305">
        <ele>888.88</ele>
        <time>2012-05-03T11:57:23Z</time>
      </trkpt>
      <trkpt lat="46.02689" lon="3.99981">
        <ele>894.16</ele>
        <time>2012-05-03T11:57:33Z</time>
      </trkpt>
      <trkpt lat="46.0289" lon="3.99828">
        <ele>891.28</ele>
        <time>2012-05-03T11:57:39Z</time>
      </trkpt>
      <trkpt lat="46.03205" lon="3.99628">
        <ele>883.59</ele>
        <time>2012-05-03T11:57:48Z</time>
      </trkpt>
      <trkpt lat="46.03563" lon="3.99411">
        <ele>875.9</ele>
        <time>2012-05-03T11:57:58Z</time>
      </trkpt>
      <trkpt lat="46.03976" lon="3.99229">
        <ele>862.92</ele>
        <time>2012-05-03T11:58:09Z</time>
      </trkpt>
      <trkpt lat="46.04265" lon="3.99096">
        <ele>859.08</ele>
        <time>2012-05-03T11:58:17Z</time>
      </trkpt>
      <trkpt lat="46.04577" lon="3.98973">
        <ele>842.73</ele>
        <time>2012-05-03T11:58:26Z</time>
      </trkpt>
      <trkpt lat="46.04808" lon="3.98809">
        <ele>824.95</ele>
        <time>2012-05-03T11:58:33Z</time>
      </trkpt>
      <trkpt lat="46.05033" lon="3.98605">
        <ele>818.7</ele>
        <time>2012-05-03T11:58:41Z</time>
      </trkpt>
      <trkpt lat="46.05178" lon="3.98515">
        <ele>812.93</ele>
        <time>2012-05-03T11:58:46Z</time>
      </trkpt>
      <trkpt lat="46.05353" lon="3.985">
        <ele>813.41</ele>
        <time>2012-05-03T11:58:52Z</time>
      </trkpt>
      <trkpt lat="46.05617" lon="3.98494">
        <ele>812.93</ele>
        <time>2012-05-03T11:59:01Z</time>
      </trkpt>
      <trkpt lat="46.05646" lon="3.98484">
        <ele>812.93</ele>
        <time>2012-05-03T11:59:02Z</time>
      </trkpt>
      <trkpt lat="46.05774" lon="3.98367">
        <ele>810.05</ele>
        <time>2012-05-03T11:59:07Z</time>
      </trkpt>
      <trkpt lat="46.0582" lon="3.98206">
        <ele>809.57</ele>
        <time>2012-05-03T11:59:11Z</time>
      </trkpt>
      <trkpt lat="46.05802" lon="3.98033">
        <ele>805.72</ele>
        <time>2012-05-03T11:59:15Z</time>
      </trkpt>
      <trkpt lat="46.05754" lon="3.97916">
        <ele>798.99</ele>
        <time>2012-05-03T11:59:18Z</time>
      </trkpt>
      <trkpt lat="46.05711" lon="3.97846">
        <ele>792.26</ele>
        <time>2012-05-03T11:59:20Z</time>
      </trkpt>
      <trkpt lat="46.05514" lon="3.9766">
        <ele>761.5</ele>
        <time>2012-05-03T11:59:27Z</time>
      </trkpt>
      <trkpt lat="46.05284" lon="3.97465">
        <ele>727.37</ele>
        <time>2012-05-03T11:59:35Z</time>
      </trkpt>
      <trkpt lat="46.05114" lon="3.97307">
        <ele>693.25</ele>
        <time>2012-05-03T11:59:41Z</time>
      </trkpt>
      <trkpt lat="46.0496" lon="3.97257">
        <ele>678.83</ele>
        <time>2012-05-03T11:59:46Z</time>
      </trkpt>
      <trkpt lat="46.04719" lon="3.97204">
        <ele>669.22</ele>
        <time>2012-05-03T11:59:54Z</time>
      </trkpt>
      <trkpt lat="46.04523" lon="3.97158">
        <ele>657.68</ele>
        <time>2012-05-03T12:00:01Z</time>
      </trkpt>
      <trkpt lat="46.0437" lon="3.97228">
        <ele>645.66</ele>
        <time>2012-05-03T12:00:07Z</time>
      </trkpt>
      <trkpt lat="46.04329" lon="3.97279">
        <ele>640.38</ele>
        <time>2012-05-03T12:00:09Z</time>
      </trkpt>
      <trkpt lat="46.04135" lon="3.97567">
        <ele>617.3</ele>
        <time>2012-05-03T12:00:19Z</time>
      </trkpt>
      <trkpt lat="46.03956" lon="3.97703">
        <ele>606.73</ele>
        <time>2012-05-03T12:00:26Z</time>
      </trkpt>
      <trkpt lat="46.03712" lon="3.97845">
        <ele>601.44</ele>
        <time>2012-05-03T12:00:35Z</time>
      </trkpt>
      <trkpt lat="46.03508" lon="3.97875">
        <ele>602.4</ele>
        <time>2012-05-03T12:00:42Z</time>
      </trkpt>
      <trkpt lat="46.03306" lon="3.97926">
        <ele>599.52</ele>
        <time>2012-05-03T12:00:49Z</time>
      </trkpt>
      <trkpt lat="46.03159" lon="3.97949">
        <ele>592.79</ele>
        <time>2012-05-03T12:00:54Z</time>
      </trkpt>
      <trkpt lat="46.0305" lon="3.98038">
        <ele>586.06</ele>
        <time>2012-05-03T12:00:59Z</time>
      </trkpt>
      <trkpt lat="46.03026" lon="3.98094">
        <ele>582.22</ele>
        <time>2012-05-03T12:01:01Z</time>
      </trkpt>
      <trkpt lat="46.02994" lon="3.98295">
        <ele>566.35</ele>
        <time>2012-05-03T12:01:07Z</time>
      </trkpt>
      <trkpt lat="46.0304" lon="3.98505">
        <ele>554.82</ele>
        <time>2012-05-03T12:01:13Z</time>
      </trkpt>
      <trkpt lat="46.03226" lon="3.98834">
        <ele>534.15</ele>
        <time>2012-05-03T12:01:24Z</time>
      </trkpt>
      <trkpt lat="46.03278" lon="3.98913">
        <ele>531.27</ele>
        <time>2012-05-03T12:01:27Z</time>
      </trkpt>
      <trkpt lat="46.03468" lon="3.99081">
        <ele>514.92</ele>
        <time>2012-05-03T12:01:36Z</time>
      </trkpt>
      <trkpt lat="46.03694" lon="3.99248">
        <ele>496.66</ele>
        <time>2012-05-03T12:01:46Z</time>
      </trkpt>
      <trkpt lat="46.03947" lon="3.99374">
        <ele>468.3</ele>
        <time>2012-05-03T12:01:57Z</time>
      </trkpt>
      <trkpt lat="46.04168" lon="3.99463">
        <ele>439.94</ele>
        <time>2012-05-03T12:02:07Z</time>
      </trkpt>
      <trkpt lat="46.04409" lon="3.99578">
        <ele>409.18</ele>
        <time>2012-05-03T12:02:18Z</time>
      </trkpt>
      <trkpt lat="46.04622" lon="3.99686">
        <ele>381.3</ele>
        <time>2012-05-03T12:02:28Z</time>
      </trkpt>
      <trkpt lat="46.04844" lon="3.99779">
        <ele>356.31</ele>
        <time>2012-05-03T12:02:38Z</time>
      </trkpt>
      <trkpt lat="46.05001" lon="3.99847">
        <ele>338.04</ele>
        <time>2012-05-03T12:02:46Z</time>
      </trkpt>
      <trkpt lat="46.05099" lon="3.99889">
        <ele>334.2</ele>
        <time>2012-05-03T12:02:53Z</time>
      </trkpt>
      <trkpt lat="46.0517" lon="3.99919">
        <ele>334.68</ele>
        <time>2012-05-03T12:03:02Z</time>
      </trkpt>
      <trkpt lat="46.05214" lon="3.9994">
        <ele>334.68</ele>
        <time>2012-05-03T12:03:12Z</time>
      </trkpt>
      <trkpt lat="46.05262" lon="3.9998">
        <ele>335.64</ele>
        <time>2012-05-03T12:03:28Z</time>
      </trkpt>
      <trkpt lat="46.05256" lon="4.00047">
        <ele>335.16</ele>
        <time>2012-05-03T12:03:44Z</time>
      </trkpt>
      <trkpt lat="46.05243" lon="4.0011">
        <ele>334.2</ele>
        <time>2012-05-03T12:04:03Z</time>
      </trkpt>
      <trkpt lat="46.05237" lon="4.00141">
        <ele>333.71</ele>
        <time>2012-05-03T12:04:20Z</time>
      </trkpt>
      <trkpt lat="46.05227" lon="4.0017">
        <ele>334.68</ele>
        <time>2012-05-03T12:04:33Z</time>
      </trkpt>
      <trkpt lat="46.05238" lon="4.00164">
        <ele>335.16</ele>
        <time>2012-05-03T12:04:44Z</time>
      </trkpt>
      <trkpt lat="46.05238" lon="4.00112">
        <ele>335.64</ele>
        <time>2012-05-03T12:05:01Z</time>
      </trkpt>
      <trkpt lat="46.05213" lon="4.00104">
        <ele>336.12</ele>
        <time>2012-05-03T12:05:15Z</time>
      </trkpt>
      <trkpt lat="46.05201" lon="4.00109">
        <ele>335.64</ele>
        <time>2012-05-03T12:05:37Z</time>
      </trkpt>
      <trkpt lat="46.05201" lon="4.00109">
        <ele>335.64</ele>
        <time>2012-05-03T12:06:11Z</time>
      </trkpt>
      <trkpt lat="46.05196" lon="4.0012">
        <ele>336.12</ele>
        <time>2012-05-03T12:06:46Z</time>
      </trkpt>
      <trkpt lat="46.05194" lon="4.00125">
        <ele>336.12</ele>
        <time>2012-05-03T12:07:10Z</time>
      </trkpt>
      <trkpt lat="46.05193" lon="4.00131">
        <ele>336.6</ele>
        <time>2012-05-03T12:07:28Z</time>
      </trkpt>
      <trkpt lat="46.05193" lon="4.00131">
        <ele>336.6</ele>
        <time>2012-05-03T12:07:56Z</time>
      </trkpt>
      <trkpt lat="46.05193" lon="4.00131">
        <ele>336.6</ele>
        <time>2012-05-03T12:08:28Z</time>
      </trkpt>
      <trkpt lat="46.05193" lon="4.00131">
        <ele>336.6</ele>
        <time>2012-05-03T12:08:50Z</time>
      </trkpt>
      <trkpt lat="46.05193" lon="4.00131">
        <ele>336.6</ele>
        <time>2012-05-03T12:09:15Z</time>
      </trkpt>
      <trkpt lat="46.05193" lon="4.00129">
        <ele>336.6</ele>
        <time>2012-05-03T12:09:43Z</time>
      </trkpt>
      <trkpt lat="46.05193" lon="4.0013">
        <ele>336.6</ele>
        <time>2012-05-03T12:10:22Z</time>
      </trkpt>
      <trkpt lat="46.05192" lon="4.00128">
        <ele>337.08</ele>
        <time>2012-05-03T12:10:55Z</time>
      </trkpt>
      <trkpt lat="46.05192" lon="4.00129">
        <ele>337.56</ele>
        <time>2012-05-03T12:11:29Z</time>
      </trkpt>
      <trkpt lat="46.05192" lon="4.00128">
        <ele>338.04</ele>
        <time>2012-05-03T12:12:06Z</time>
      </trkpt>
      <trkpt lat="46.05192" lon="4.00127">
        <ele>338.52</ele>
        <time>2012-05-03T12:12:48Z</time>
      </trkpt>
      <trkpt lat="46.05192" lon="4.00128">
        <ele>338.52</ele>
        <time>2012-05-03T12:13:25Z</time>
      </trkpt>
      <trkpt lat="46.05192" lon="4.00128">
        <ele>338.52</ele>
        <time>2012-05-03T12:14:05Z</time>
      </trkpt>
      <trkpt lat="46.05192" lon="4.00127">
        <ele>339</ele>
        <time>2012-05-03T12:14:44Z</time>
      </trkpt>
      <trkpt lat="46.05192" lon="4.00128">
        <ele>339.48</ele>
        <time>2012-05-03T12:15:24Z</time>
      </trkpt>
      <trkpt lat="46.05192" lon="4.00128">
        <ele>339.48</ele>
        <time>2012-05-03T12:16:03Z</time>
      </trkpt>
      <trkpt lat="46.05193" lon="4.00128">
        <ele>339.48</ele>
        <time>2012-05-03T12:16:49Z</time>
      </trkpt>
      <trkpt lat="46.05193" lon="4.00128">
        <ele>339</ele>
        <time>2012-05-03T12:17:27Z</time>
      </trkpt>
      <trkpt lat="46.05193" lon="4.00128">
        <ele>339</ele>
        <time>2012-05-03T12:18:03Z</time>
      </trkpt>
      <trkpt lat="46.05193" lon="4.00128">
        <ele>339</ele>
        <time>2012-05-03T12:18:38Z</time>
      </trkpt>
      <trkpt lat="46.05193" lon="4.00128">
        <ele>339</ele>
        <time>2012-05-03T12:19:06Z</time>
      </trkpt>
      <trkpt lat="46.05194" lon="4.00155">
        <ele>334.68</ele>
        <time>2012-05-03T12:19:29Z</time>
      </trkpt>
      <trkpt lat="46.05194" lon="4.00155">
        <ele>334.68</ele>
        <time>2012-05-03T12:19:54Z</time>
      </trkpt>
      <trkpt lat="46.05193" lon="4.00156">
        <ele>334.68</ele>
        <time>2012-05-03T12:20:32Z</time>
      </trkpt>
      <trkpt lat="46.05192" lon="4.00157">
        <ele>335.16</ele>
        <time>2012-05-03T12:21:07Z</time>
      </trkpt>
      <trkpt lat="46.05191" lon="4.00159">
        <ele>336.12</ele>
        <time>2012-05-03T12:21:43Z</time>
      </trkpt>
      <trkpt lat="46.05191" lon="4.00159">
        <ele>336.6</ele>
        <time>2012-05-03T12:22:24Z</time>
      </trkpt>
      <trkpt lat="46.05191" lon="4.00159">
        <ele>336.6</ele>
        <time>2012-05-03T12:23:14Z</time>
      </trkpt>
      <trkpt lat="46.0519" lon="4.00159">
        <ele>336.12</ele>
        <time>2012-05-03T12:23:56Z</time>
      </trkpt>
      <trkpt lat="46.0519" lon="4.0016">
        <ele>336.6</ele>
        <time>2012-05-03T12:24:36Z</time>
      </trkpt>
      <trkpt lat="46.0519" lon="4.00161">
        <ele>337.08</ele>
        <time>2012-05-03T12:25:16Z</time>
      </trkpt>
      <trkpt lat="46.05189" lon="4.00161">
        <ele>337.08</ele>
        <time>2012-05-03T12:25:50Z</time>
      </trkpt>
      <trkpt lat="46.0519" lon="4.00161">
        <ele>337.08</ele>
        <time>2012-05-03T12:26:29Z</time>
      </trkpt>
      <trkpt lat="46.05191" lon="4.00161">
        <ele>336.6</ele>
        <time>2012-05-03T12:27:05Z</time>
      </trkpt>
      <trkpt lat="46.05191" lon="4.00162">
        <ele>336.6</ele>
        <time>2012-05-03T12:27:43Z</time>
      </trkpt>
      <trkpt lat="46.0519" lon="4.00163">
        <ele>337.08</ele>
        <time>2012-05-03T12:28:17Z</time>
      </trkpt>
      <trkpt lat="46.0519" lon="4.00163">
        <ele>337.08</ele>
        <time>2012-05-03T12:28:56Z</time>
      </trkpt>
      <trkpt lat="46.0519" lon="4.00162">
        <ele>337.08</ele>
        <time>2012-05-03T12:29:27Z</time>
      </trkpt>
      <trkpt lat="46.0519" lon="4.00162">
        <ele>336.6</ele>
        <time>2012-05-03T12:30:00Z</time>
      </trkpt>
      <trkpt lat="46.0519" lon="4.00162">
        <ele>336.6</ele>
        <time>2012-05-03T12:30:32Z</time>
      </trkpt>
      <trkpt lat="46.0519" lon="4.00163">
        <ele>337.56</ele>
        <time>2012-05-03T12:31:11Z</time>
      </trkpt>
      <trkpt lat="46.05189" lon="4.00162">
        <ele>337.56</ele>
        <time>2012-05-03T12:31:43Z</time>
      </trkpt>
      <trkpt lat="46.05189" lon="4.00162">
        <ele>337.56</ele>
        <time>2012-05-03T12:32:11Z</time>
      </trkpt>
      <trkpt lat="46.05189" lon="4.00162">
        <ele>337.56</ele>
        <time>2012-05-03T12:32:32Z</time>
      </trkpt>
      <trkpt lat="46.05189" lon="4.00162">
        <ele>337.56</ele>
        <time>2012-05-03T12:33:10Z</time>
      </trkpt>
      <trkpt lat="46.05189" lon="4.00162">
        <ele>337.56</ele>
        <time>2012-05-03T12:33:43Z</time>
      </trkpt>
      <trkpt lat="46.05189" lon="4.00162">
        <ele>338.04</ele>
        <time>2012-05-03T12:34:15Z</time>
      </trkpt>
      <trkpt lat="46.05189" lon="4.00161">
        <ele>338.04</ele>
        <time>2012-05-03T12:34:53Z</time>
      </trkpt>
      <trkpt lat="46.05189" lon="4.00161">
        <ele>338.04</ele>
        <time>2012-05-03T12:35:37Z</time>
      </trkpt>
      <trkpt lat="46.05189" lon="4.00162">
        <ele>339</ele>
        <time>2012-05-03T12:36:12Z</time>
      </trkpt>
      <trkpt lat="46.05188" lon="4.00161">
        <ele>339</ele>
        <time>2012-05-03T12:36:45Z</time>
      </trkpt>
      <trkpt lat="46.05189" lon="4.00161">
        <ele>339</ele>
        <time>2012-05-03T12:37:18Z</time>
      </trkpt>
      <trkpt lat="46.05189" lon="4.00161">
        <ele>339</ele>
        <time>2012-05-03T12:37:54Z</time>
      </trkpt>
      <trkpt lat="46.05188" lon="4.0016">
        <ele>339</ele>
        <time>2012-05-03T12:38:26Z</time>
      </trkpt>
      <trkpt lat="46.05188" lon="4.0016">
        <ele>339</ele>
        <time>2012-05-03T12:39:04Z</time>
      </trkpt>
      <trkpt lat="46.05188" lon="4.0016">
        <ele>338.52</ele>
        <time>2012-05-03T12:39:44Z</time>
      </trkpt>
      <trkpt lat="46.05187" lon="4.00161">
        <ele>339.48</ele>
        <time>2012-05-03T12:40:21Z</time>
      </trkpt>
      <trkpt lat="46.05185" lon="4.00162">
        <ele>340.92</ele>
        <time>2012-05-03T12:41:05Z</time>
      </trkpt>
      <trkpt lat="46.05186" lon="4.00161">
        <ele>340.44</ele>
        <time>2012-05-03T12:41:45Z</time>
      </trkpt>
      <trkpt lat="46.05186" lon="4.00162">
        <ele>340.44</ele>
        <time>2012-05-03T12:42:24Z</time>
      </trkpt>
      <trkpt lat="46.05185" lon="4.00162">
        <ele>341.41</ele>
        <time>2012-05-03T12:43:06Z</time>
      </trkpt>
      <trkpt lat="46.05184" lon="4.00162">
        <ele>341.89</ele>
        <time>2012-05-03T12:43:44Z</time>
      </trkpt>
      <trkpt lat="46.05185" lon="4.00161">
        <ele>341.89</ele>
        <time>2012-05-03T12:44:30Z</time>
      </trkpt>
      <trkpt lat="46.05185" lon="4.00162">
        <ele>341.41</ele>
        <time>2012-05-03T12:45:14Z</time>
      </trkpt>
      <trkpt lat="46.05186" lon="4.00161">
        <ele>341.41</ele>
        <time>2012-05-03T12:45:56Z</time>
      </trkpt>
      <trkpt lat="46.05185" lon="4.00162">
        <ele>341.89</ele>
        <time>2012-05-03T12:46:32Z</time>
      </trkpt>
      <trkpt lat="46.05186" lon="4.00162">
        <ele>340.92</ele>
        <time>2012-05-03T12:47:14Z</time>
      </trkpt>
      <trkpt lat="46.05187" lon="4.00161">
        <ele>339.96</ele>
        <time>2012-05-03T12:47:51Z</time>
      </trkpt>
      <trkpt lat="46.05187" lon="4.00161">
        <ele>339.96</ele>
        <time>2012-05-03T12:48:34Z</time>
      </trkpt>
      <trkpt lat="46.05187" lon="4.00161">
        <ele>339.96</ele>
        <time>2012-05-03T12:49:17Z</time>
      </trkpt>
      <trkpt lat="46.05188" lon="4.0016">
        <ele>339.48</ele>
        <time>2012-05-03T12:49:56Z</time>
      </trkpt>
      <trkpt lat="46.05188" lon="4.0016">
        <ele>339</ele>
        <time>2012-05-03T12:50:30Z</time>
      </trkpt>
      <trkpt lat="46.05187" lon="4.0016">
        <ele>339.96</ele>
        <time>2012-05-03T12:51:13Z</time>
      </trkpt>
      <trkpt lat="46.05186" lon="4.0016">
        <ele>340.44</ele>
        <time>2012-05-03T12:52:01Z</time>
      </trkpt>
      <trkpt lat="46.05186" lon="4.00159">
        <ele>340.44</ele>
        <time>2012-05-03T12:52:38Z</time>
      </trkpt>
      <trkpt lat="46.05186" lon="4.0016">
        <ele>340.44</ele>
        <time>2012-05-03T12:53:22Z</time>
      </trkpt>
      <trkpt lat="46.05186" lon="4.00159">
        <ele>340.44</ele>
        <time>2012-05-03T12:54:01Z</time>
      </trkpt>
      <trkpt lat="46.05186" lon="4.00159">
        <ele>340.44</ele>
        <time>2012-05-03T12:54:39Z</time>
      </trkpt>
      <trkpt lat="46.05186" lon="4.00159">
        <ele>340.44</ele>
        <time>2012-05-03T12:55:08Z</time>
      </trkpt>
      <trkpt lat="46.05185" lon="4.00159">
        <ele>340.44</ele>
        <time>2012-05-03T12:55:44Z</time>
      </trkpt>
      <trkpt lat="46.05184" lon="4.0016">
        <ele>340.92</ele>
        <time>2012-05-03T12:56:20Z</time>
      </trkpt>
      <trkpt lat="46.05184" lon="4.0016">
        <ele>341.89</ele>
        <time>2012-05-03T12:56:55Z</time>
      </trkpt>
      <trkpt lat="46.05184" lon="4.0016">
        <ele>341.41</ele>
        <time>2012-05-03T12:57:33Z</time>
      </trkpt>
      <trkpt lat="46.05184" lon="4.0016">
        <ele>341.89</ele>
        <time>2012-05-03T12:58:07Z</time>
      </trkpt>
      <trkpt lat="46.05184" lon="4.0016">
        <ele>341.89</ele>
        <time>2012-05-03T12:58:37Z</time>
      </trkpt>
      <trkpt lat="46.05185" lon="4.0016">
        <ele>341.89</ele>
        <time>2012-05-03T12:59:06Z</time>
      </trkpt>
      <trkpt lat="46.05185" lon="4.0016">
        <ele>341.89</ele>
        <time>2012-05-03T12:59:40Z</time>
      </trkpt>
      <trkpt lat="46.05185" lon="4.0016">
        <ele>341.89</ele>
        <time>2012-05-03T13:00:16Z</time>
      </trkpt>
      <trkpt lat="46.05186" lon="4.00161">
        <ele>341.89</ele>
        <time>2012-05-03T13:00:53Z</time>
      </trkpt>
      <trkpt lat="46.05186" lon="4.00161">
        <ele>341.41</ele>
        <time>2012-05-03T13:01:22Z</time>
      </trkpt>
      <trkpt lat="46.05186" lon="4.00161">
        <ele>341.41</ele>
        <time>2012-05-03T13:01:56Z</time>
      </trkpt>
      <trkpt lat="46.05187" lon="4.0016">
        <ele>341.41</ele>
        <time>2012-05-03T13:02:34Z</time>
      </trkpt>
      <trkpt lat="46.05187" lon="4.0016">
        <ele>340.92</ele>
        <time>2012-05-03T13:03:08Z</time>
      </trkpt>
      <trkpt lat="46.05187" lon="4.00161">
        <ele>340.44</ele>
        <time>2012-05-03T13:03:42Z</time>
      </trkpt>
      <trkpt lat="46.05188" lon="4.0016">
        <ele>339.96</ele>
        <time>2012-05-03T13:04:20Z</time>
      </trkpt>
      <trkpt lat="46.05188" lon="4.00159">
        <ele>340.44</ele>
        <time>2012-05-03T13:04:50Z</time>
      </trkpt>
      <trkpt lat="46.0519" lon="4.00155">
        <ele>339.96</ele>
        <time>2012-05-03T13:05:18Z</time>
      </trkpt>
      <trkpt lat="46.05193" lon="4.00153">
        <ele>339</ele>
        <time>2012-05-03T13:05:21Z</time>
      </trkpt>
      <trkpt lat="46.05199" lon="4.00154">
        <ele>338.04</ele>
        <time>2012-05-03T13:05:27Z</time>
      </trkpt>
      <trkpt lat="46.05202" lon="4.00156">
        <ele>338.04</ele>
        <time>2012-05-03T13:05:46Z</time>
      </trkpt>
      <trkpt lat="46.05202" lon="4.00156">
        <ele>338.04</ele>
        <time>2012-05-03T13:05:58Z</time>
      </trkpt>
      <trkpt lat="46.05205" lon="4.00167">
        <ele>337.08</ele>
        <time>2012-05-03T13:06:04Z</time>
      </trkpt>
      <trkpt lat="46.05206" lon="4.00176">
        <ele>337.08</ele>
        <time>2012-05-03T13:06:18Z</time>
      </trkpt>
      <trkpt lat="46.05213" lon="4.00185">
        <ele>336.6</ele>
        <time>2012-05-03T13:06:35Z</time>
      </trkpt>
      <trkpt lat="46.05213" lon="4.00185">
        <ele>336.6</ele>
        <time>2012-05-03T13:07:05Z</time>
      </trkpt>
      <trkpt lat="46.05234" lon="4.00133">
        <ele>339.96</ele>
        <time>2012-05-03T13:07:24Z</time>
      </trkpt>
      <trkpt lat="46.05249" lon="4.0007">
        <ele>338.04</ele>
        <time>2012-05-03T13:07:45Z</time>
      </trkpt>
      <trkpt lat="46.05249" lon="4.00069">
        <ele>337.56</ele>
        <time>2012-05-03T13:08:12Z</time>
      </trkpt>
      <trkpt lat="46.05249" lon="4.00069">
        <ele>337.56</ele>
        <time>2012-05-03T13:08:51Z</time>
      </trkpt>
      <trkpt lat="46.05249" lon="4.00069">
        <ele>337.56</ele>
        <time>2012-05-03T13:09:27Z</time>
      </trkpt>
      <trkpt lat="46.0525" lon="4.0007">
        <ele>337.08</ele>
        <time>2012-05-03T13:10:07Z</time>
      </trkpt>
      <trkpt lat="46.0525" lon="4.0007">
        <ele>337.08</ele>
        <time>2012-05-03T13:10:50Z</time>
      </trkpt>
      <trkpt lat="46.05249" lon="4.0007">
        <ele>337.08</ele>
        <time>2012-05-03T13:11:34Z</time>
      </trkpt>
      <trkpt lat="46.05249" lon="4.0007">
        <ele>337.08</ele>
        <time>2012-05-03T13:12:16Z</time>
      </trkpt>
      <trkpt lat="46.05249" lon="4.00069">
        <ele>337.08</ele>
        <time>2012-05-03T13:12:52Z</time>
      </trkpt>
      <trkpt lat="46.05249" lon="4.0007">
        <ele>337.08</ele>
        <time>2012-05-03T13:13:26Z</time>
      </trkpt>
      <trkpt lat="46.05249" lon="4.00069">
        <ele>337.08</ele>
        <time>2012-05-03T13:14:12Z</time>
      </trkpt>
      <trkpt lat="46.0525" lon="4.00069">
        <ele>336.6</ele>
        <time>2012-05-03T13:14:53Z</time>
      </trkpt>
      <trkpt lat="46.0526" lon="4.00019">
        <ele>336.12</ele>
        <time>2012-05-03T13:15:06Z</time>
      </trkpt>
      <trkpt lat="46.05278" lon="3.99975">
        <ele>336.12</ele>
        <time>2012-05-03T13:15:22Z</time>
      </trkpt>
      <trkpt lat="46.05288" lon="3.99972">
        <ele>336.12</ele>
        <time>2012-05-03T13:15:43Z</time>
      </trkpt>
      <trkpt lat="46.05288" lon="3.99972">
        <ele>336.12</ele>
        <time>2012-05-03T13:15:47Z</time>
      </trkpt>
      <trkpt lat="46.05319" lon="3.99984">
        <ele>336.6</ele>
        <time>2012-05-03T13:15:55Z</time>
      </trkpt>
      <trkpt lat="46.054" lon="4.00017">
        <ele>337.08</ele>
        <time>2012-05-03T13:16:01Z</time>
      </trkpt>
      <trkpt lat="46.05555" lon="4.00096">
        <ele>344.29</ele>
        <time>2012-05-03T13:16:09Z</time>
      </trkpt>
      <trkpt lat="46.05786" lon="4.00223">
        <ele>370.24</ele>
        <time>2012-05-03T13:16:20Z</time>
      </trkpt>
      <trkpt lat="46.05948" lon="4.00276">
        <ele>391.39</ele>
        <time>2012-05-03T13:16:27Z</time>
      </trkpt>
      <trkpt lat="46.06205" lon="4.0027">
        <ele>433.69</ele>
        <time>2012-05-03T13:16:38Z</time>
      </trkpt>
      <trkpt lat="46.06396" lon="4.00218">
        <ele>457.72</ele>
        <time>2012-05-03T13:16:46Z</time>
      </trkpt>
      <trkpt lat="46.06618" lon="4.00123">
        <ele>479.84</ele>
        <time>2012-05-03T13:16:55Z</time>
      </trkpt>
      <trkpt lat="46.06938" lon="3.99992">
        <ele>497.62</ele>
        <time>2012-05-03T13:17:07Z</time>
      </trkpt>
      <trkpt lat="46.07184" lon="3.99833">
        <ele>513.96</ele>
        <time>2012-05-03T13:17:17Z</time>
      </trkpt>
      <trkpt lat="46.07481" lon="3.99617">
        <ele>540.88</ele>
        <time>2012-05-03T13:17:30Z</time>
      </trkpt>
      <trkpt lat="46.07764" lon="3.99383">
        <ele>581.25</ele>
        <time>2012-05-03T13:17:43Z</time>
      </trkpt>
      <trkpt lat="46.0803" lon="3.99156">
        <ele>618.26</ele>
        <time>2012-05-03T13:17:56Z</time>
      </trkpt>
      <trkpt lat="46.08267" lon="3.99009">
        <ele>643.26</ele>
        <time>2012-05-03T13:18:07Z</time>
      </trkpt>
      <trkpt lat="46.08483" lon="3.98888">
        <ele>655.76</ele>
        <time>2012-05-03T13:18:16Z</time>
      </trkpt>
      <trkpt lat="46.08766" lon="3.9876">
        <ele>674.5</ele>
        <time>2012-05-03T13:18:27Z</time>
      </trkpt>
      <trkpt lat="46.08969" lon="3.98658">
        <ele>689.4</ele>
        <time>2012-05-03T13:18:35Z</time>
      </trkpt>
      <trkpt lat="46.09303" lon="3.98526">
        <ele>714.88</ele>
        <time>2012-05-03T13:18:48Z</time>
      </trkpt>
      <trkpt lat="46.09611" lon="3.98402">
        <ele>747.08</ele>
        <time>2012-05-03T13:19:00Z</time>
      </trkpt>
      <trkpt lat="46.09886" lon="3.9825">
        <ele>775.44</ele>
        <time>2012-05-03T13:19:12Z</time>
      </trkpt>
      <trkpt lat="46.10111" lon="3.98133">
        <ele>793.71</ele>
        <time>2012-05-03T13:19:22Z</time>
      </trkpt>
      <trkpt lat="46.10369" lon="3.98022">
        <ele>812.45</ele>
        <time>2012-05-03T13:19:33Z</time>
      </trkpt>
      <trkpt lat="46.10587" lon="3.97944">
        <ele>830.72</ele>
        <time>2012-05-03T13:19:42Z</time>
      </trkpt>
      <trkpt lat="46.10835" lon="3.97803">
        <ele>852.83</ele>
        <time>2012-05-03T13:19:53Z</time>
      </trkpt>
      <trkpt lat="46.11072" lon="3.97669">
        <ele>874.46</ele>
        <time>2012-05-03T13:20:04Z</time>
      </trkpt>
      <trkpt lat="46.11258" lon="3.9754">
        <ele>889.36</ele>
        <time>2012-05-03T13:20:13Z</time>
      </trkpt>
      <trkpt lat="46.11546" lon="3.97331">
        <ele>906.18</ele>
        <time>2012-05-03T13:20:26Z</time>
      </trkpt>
      <trkpt lat="46.11798" lon="3.97149">
        <ele>922.52</ele>
        <time>2012-05-03T13:20:37Z</time>
      </trkpt>
      <trkpt lat="46.12089" lon="3.96987">
        <ele>942.23</ele>
        <time>2012-05-03T13:20:49Z</time>
      </trkpt>
      <trkpt lat="46.12312" lon="3.96845">
        <ele>944.63</ele>
        <time>2012-05-03T13:20:57Z</time>
      </trkpt>
      <trkpt lat="46.12599" lon="3.96667">
        <ele>960.01</ele>
        <time>2012-05-03T13:21:07Z</time>
      </trkpt>
      <trkpt lat="46.12837" lon="3.96466">
        <ele>982.12</ele>
        <time>2012-05-03T13:21:16Z</time>
      </trkpt>
      <trkpt lat="46.13122" lon="3.96173">
        <ele>1000.39</ele>
        <time>2012-05-03T13:21:27Z</time>
      </trkpt>
      <trkpt lat="46.1336" lon="3.95932">
        <ele>984.05</ele>
        <time>2012-05-03T13:21:35Z</time>
      </trkpt>
      <trkpt lat="46.13626" lon="3.95722">
        <ele>973.47</ele>
        <time>2012-05-03T13:21:43Z</time>
      </trkpt>
      <trkpt lat="46.13904" lon="3.95475">
        <ele>954.73</ele>
        <time>2012-05-03T13:21:51Z</time>
      </trkpt>
      <trkpt lat="46.14137" lon="3.95285">
        <ele>954.25</ele>
        <time>2012-05-03T13:21:58Z</time>
      </trkpt>
      <trkpt lat="46.14327" lon="3.95097">
        <ele>949.92</ele>
        <time>2012-05-03T13:22:04Z</time>
      </trkpt>
      <trkpt lat="46.14605" lon="3.94838">
        <ele>929.73</ele>
        <time>2012-05-03T13:22:12Z</time>
      </trkpt>
      <trkpt lat="46.14869" lon="3.94599">
        <ele>926.85</ele>
        <time>2012-05-03T13:22:20Z</time>
      </trkpt>
      <trkpt lat="46.15205" lon="3.94285">
        <ele>937.42</ele>
        <time>2012-05-03T13:22:31Z</time>
      </trkpt>
      <trkpt lat="46.15466" lon="3.94102">
        <ele>944.63</ele>
        <time>2012-05-03T13:22:39Z</time>
      </trkpt>
      <trkpt lat="46.15735" lon="3.93934">
        <ele>949.44</ele>
        <time>2012-05-03T13:22:47Z</time>
      </trkpt>
      <trkpt lat="46.15911" lon="3.93809">
        <ele>931.65</ele>
        <time>2012-05-03T13:22:52Z</time>
      </trkpt>
      <trkpt lat="46.16233" lon="3.93601">
        <ele>902.82</ele>
        <time>2012-05-03T13:23:00Z</time>
      </trkpt>
      <trkpt lat="46.16518" lon="3.93355">
        <ele>892.72</ele>
        <time>2012-05-03T13:23:08Z</time>
      </trkpt>
      <trkpt lat="46.16838" lon="3.93044">
        <ele>902.82</ele>
        <time>2012-05-03T13:23:18Z</time>
      </trkpt>
      <trkpt lat="46.17137" lon="3.92699">
        <ele>931.17</ele>
        <time>2012-05-03T13:23:29Z</time>
      </trkpt>
      <trkpt lat="46.1737" lon="3.9238">
        <ele>934.06</ele>
        <time>2012-05-03T13:23:38Z</time>
      </trkpt>
      <trkpt lat="46.17642" lon="3.91934">
        <ele>930.21</ele>
        <time>2012-05-03T13:23:49Z</time>
      </trkpt>
      <trkpt lat="46.17938" lon="3.91458">
        <ele>938.38</ele>
        <time>2012-05-03T13:24:01Z</time>
      </trkpt>
      <trkpt lat="46.18154" lon="3.9107">
        <ele>934.06</ele>
        <time>2012-05-03T13:24:10Z</time>
      </trkpt>
      <trkpt lat="46.18422" lon="3.90607">
        <ele>935.5</ele>
        <time>2012-05-03T13:24:21Z</time>
      </trkpt>
      <trkpt lat="46.18687" lon="3.90144">
        <ele>927.81</ele>
        <time>2012-05-03T13:24:32Z</time>
      </trkpt>
      <trkpt lat="46.18906" lon="3.89747">
        <ele>913.87</ele>
        <time>2012-05-03T13:24:41Z</time>
      </trkpt>
      <trkpt lat="46.19161" lon="3.8926">
        <ele>915.79</ele>
        <time>2012-05-03T13:24:52Z</time>
      </trkpt>
      <trkpt lat="46.19306" lon="3.88935">
        <ele>916.75</ele>
        <time>2012-05-03T13:24:59Z</time>
      </trkpt>
      <trkpt lat="46.19466" lon="3.88515">
        <ele>908.1</ele>
        <time>2012-05-03T13:25:07Z</time>
      </trkpt>
      <trkpt lat="46.19686" lon="3.87993">
        <ele>912.43</ele>
        <time>2012-05-03T13:25:17Z</time>
      </trkpt>
      <trkpt lat="46.19873" lon="3.87548">
        <ele>925.89</ele>
        <time>2012-05-03T13:25:26Z</time>
      </trkpt>
      <trkpt lat="46.20056" lon="3.87116">
        <ele>930.21</ele>
        <time>2012-05-03T13:25:35Z</time>
      </trkpt>
      <trkpt lat="46.20207" lon="3.86737">
        <ele>938.38</ele>
        <time>2012-05-03T13:25:43Z</time>
      </trkpt>
      <trkpt lat="46.20385" lon="3.86272">
        <ele>931.65</ele>
        <time>2012-05-03T13:25:52Z</time>
      </trkpt>
      <trkpt lat="46.20524" lon="3.8583">
        <ele>928.77</ele>
        <time>2012-05-03T13:26:00Z</time>
      </trkpt>
      <trkpt lat="46.20698" lon="3.85319">
        <ele>946.07</ele>
        <time>2012-05-03T13:26:10Z</time>
      </trkpt>
      <trkpt lat="46.20858" lon="3.84889">
        <ele>965.78</ele>
        <time>2012-05-03T13:26:19Z</time>
      </trkpt>
      <trkpt lat="46.21032" lon="3.84414">
        <ele>977.32</ele>
        <time>2012-05-03T13:26:29Z</time>
      </trkpt>
      <trkpt lat="46.21214" lon="3.8395">
        <ele>966.26</ele>
        <time>2012-05-03T13:26:38Z</time>
      </trkpt>
      <trkpt lat="46.21359" lon="3.83456">
        <ele>958.09</ele>
        <time>2012-05-03T13:26:47Z</time>
      </trkpt>
      <trkpt lat="46.21487" lon="3.82973">
        <ele>954.25</ele>
        <time>2012-05-03T13:26:56Z</time>
      </trkpt>
      <trkpt lat="46.21601" lon="3.82444">
        <ele>959.53</ele>
        <time>2012-05-03T13:27:06Z</time>
      </trkpt>
      <trkpt lat="46.21717" lon="3.81947">
        <ele>952.8</ele>
        <time>2012-05-03T13:27:15Z</time>
      </trkpt>
      <trkpt lat="46.21819" lon="3.81488">
        <ele>943.19</ele>
        <time>2012-05-03T13:27:23Z</time>
      </trkpt>
      <trkpt lat="46.21885" lon="3.81238">
        <ele>946.07</ele>
        <time>2012-05-03T13:27:28Z</time>
      </trkpt>
      <trkpt lat="46.21945" lon="3.8091">
        <ele>962.42</ele>
        <time>2012-05-03T13:27:35Z</time>
      </trkpt>
      <trkpt lat="46.22029" lon="3.80399">
        <ele>967.22</ele>
        <time>2012-05-03T13:27:45Z</time>
      </trkpt>
      <trkpt lat="46.22088" lon="3.79903">
        <ele>963.86</ele>
        <time>2012-05-03T13:27:54Z</time>
      </trkpt>
      <trkpt lat="46.22129" lon="3.79405">
        <ele>969.15</ele>
        <time>2012-05-03T13:28:03Z</time>
      </trkpt>
      <trkpt lat="46.22178" lon="3.78857">
        <ele>974.91</ele>
        <time>2012-05-03T13:28:13Z</time>
      </trkpt>
      <trkpt lat="46.22234" lon="3.78262">
        <ele>980.2</ele>
        <time>2012-05-03T13:28:24Z</time>
      </trkpt>
      <trkpt lat="46.22272" lon="3.77803">
        <ele>972.99</ele>
        <time>2012-05-03T13:28:32Z</time>
      </trkpt>
      <trkpt lat="46.22295" lon="3.77692">
        <ele>972.99</ele>
        <time>2012-05-03T13:28:34Z</time>
      </trkpt>
      <trkpt lat="46.22424" lon="3.77408">
        <ele>977.8</ele>
        <time>2012-05-03T13:28:40Z</time>
      </trkpt>
      <trkpt lat="46.22653" lon="3.77071">
        <ele>966.74</ele>
        <time>2012-05-03T13:28:48Z</time>
      </trkpt>
      <trkpt lat="46.22949" lon="3.76669">
        <ele>955.21</ele>
        <time>2012-05-03T13:28:58Z</time>
      </trkpt>
      <trkpt lat="46.23324" lon="3.76208">
        <ele>937.42</ele>
        <time>2012-05-03T13:29:10Z</time>
      </trkpt>
      <trkpt lat="46.23674" lon="3.75775">
        <ele>910.03</ele>
        <time>2012-05-03T13:29:21Z</time>
      </trkpt>
      <trkpt lat="46.23998" lon="3.75439">
        <ele>884.07</ele>
        <time>2012-05-03T13:29:30Z</time>
      </trkpt>
      <trkpt lat="46.24287" lon="3.75111">
        <ele>882.63</ele>
        <time>2012-05-03T13:29:39Z</time>
      </trkpt>
      <trkpt lat="46.2463" lon="3.74714">
        <ele>888.4</ele>
        <time>2012-05-03T13:29:50Z</time>
      </trkpt>
      <trkpt lat="46.24908" lon="3.74386">
        <ele>887.91</ele>
        <time>2012-05-03T13:29:59Z</time>
      </trkpt>
      <trkpt lat="46.25239" lon="3.73983">
        <ele>891.28</ele>
        <time>2012-05-03T13:30:10Z</time>
      </trkpt>
      <trkpt lat="46.25583" lon="3.73527">
        <ele>895.61</ele>
        <time>2012-05-03T13:30:22Z</time>
      </trkpt>
      <trkpt lat="46.25977" lon="3.73006">
        <ele>906.66</ele>
        <time>2012-05-03T13:30:36Z</time>
      </trkpt>
      <trkpt lat="46.26202" lon="3.72703">
        <ele>900.41</ele>
        <time>2012-05-03T13:30:44Z</time>
      </trkpt>
      <trkpt lat="46.26539" lon="3.72219">
        <ele>894.16</ele>
        <time>2012-05-03T13:30:56Z</time>
      </trkpt>
      <trkpt lat="46.26782" lon="3.71808">
        <ele>899.45</ele>
        <time>2012-05-03T13:31:06Z</time>
      </trkpt>
      <trkpt lat="46.26973" lon="3.71421">
        <ele>904.74</ele>
        <time>2012-05-03T13:31:15Z</time>
      </trkpt>
      <trkpt lat="46.27189" lon="3.70941">
        <ele>916.27</ele>
        <time>2012-05-03T13:31:26Z</time>
      </trkpt>
      <trkpt lat="46.27357" lon="3.70593">
        <ele>927.33</ele>
        <time>2012-05-03T13:31:34Z</time>
      </trkpt>
      <trkpt lat="46.27602" lon="3.7015">
        <ele>941.75</ele>
        <time>2012-05-03T13:31:45Z</time>
      </trkpt>
      <trkpt lat="46.27804" lon="3.69729">
        <ele>951.84</ele>
        <time>2012-05-03T13:31:55Z</time>
      </trkpt>
      <trkpt lat="46.27984" lon="3.69405">
        <ele>953.28</ele>
        <time>2012-05-03T13:32:03Z</time>
      </trkpt>
      <trkpt lat="46.28272" lon="3.68802">
        <ele>957.13</ele>
        <time>2012-05-03T13:32:17Z</time>
      </trkpt>
      <trkpt lat="46.28425" lon="3.68432">
        <ele>952.8</ele>
        <time>2012-05-03T13:32:25Z</time>
      </trkpt>
      <trkpt lat="46.28538" lon="3.68057">
        <ele>934.06</ele>
        <time>2012-05-03T13:32:32Z</time>
      </trkpt>
      <trkpt lat="46.28683" lon="3.67618">
        <ele>911.95</ele>
        <time>2012-05-03T13:32:40Z</time>
      </trkpt>
      <trkpt lat="46.28834" lon="3.67153">
        <ele>884.55</ele>
        <time>2012-05-03T13:32:48Z</time>
      </trkpt>
      <trkpt lat="46.28945" lon="3.66835">
        <ele>871.57</ele>
        <time>2012-05-03T13:32:54Z</time>
      </trkpt>
      <trkpt lat="46.29024" lon="3.66502">
        <ele>873.01</ele>
        <time>2012-05-03T13:33:00Z</time>
      </trkpt>
      <trkpt lat="46.29139" lon="3.66041">
        <ele>888.4</ele>
        <time>2012-05-03T13:33:09Z</time>
      </trkpt>
      <trkpt lat="46.2922" lon="3.6562">
        <ele>888.4</ele>
        <time>2012-05-03T13:33:17Z</time>
      </trkpt>
      <trkpt lat="46.29314" lon="3.65214">
        <ele>891.28</ele>
        <time>2012-05-03T13:33:25Z</time>
      </trkpt>
      <trkpt lat="46.29436" lon="3.64726">
        <ele>896.57</ele>
        <time>2012-05-03T13:33:35Z</time>
      </trkpt>
      <trkpt lat="46.2954" lon="3.64291">
        <ele>901.85</ele>
        <time>2012-05-03T13:33:44Z</time>
      </trkpt>
      <trkpt lat="46.29657" lon="3.63814">
        <ele>889.36</ele>
        <time>2012-05-03T13:33:53Z</time>
      </trkpt>
      <trkpt lat="46.29782" lon="3.63454">
        <ele>878.3</ele>
        <time>2012-05-03T13:34:00Z</time>
      </trkpt>
      <trkpt lat="46.299" lon="3.63032">
        <ele>871.57</ele>
        <time>2012-05-03T13:34:08Z</time>
      </trkpt>
      <trkpt lat="46.30006" lon="3.6272">
        <ele>861.96</ele>
        <time>2012-05-03T13:34:14Z</time>
      </trkpt>
      <trkpt lat="46.30162" lon="3.62323">
        <ele>856.67</ele>
        <time>2012-05-03T13:34:22Z</time>
      </trkpt>
      <trkpt lat="46.30339" lon="3.61955">
        <ele>851.38</ele>
        <time>2012-05-03T13:34:30Z</time>
      </trkpt>
      <trkpt lat="46.30565" lon="3.61569">
        <ele>854.75</ele>
        <time>2012-05-03T13:34:39Z</time>
      </trkpt>
      <trkpt lat="46.30761" lon="3.61245">
        <ele>867.73</ele>
        <time>2012-05-03T13:34:47Z</time>
      </trkpt>
      <trkpt lat="46.30922" lon="3.60941">
        <ele>881.67</ele>
        <time>2012-05-03T13:34:54Z</time>
      </trkpt>
      <trkpt lat="46.3107" lon="3.60725">
        <ele>900.41</ele>
        <time>2012-05-03T13:35:00Z</time>
      </trkpt>
      <trkpt lat="46.3127" lon="3.60424">
        <ele>917.24</ele>
        <time>2012-05-03T13:35:08Z</time>
      </trkpt>
      <trkpt lat="46.31458" lon="3.60142">
        <ele>930.69</ele>
        <time>2012-05-03T13:35:16Z</time>
      </trkpt>
      <trkpt lat="46.31654" lon="3.59839">
        <ele>929.73</ele>
        <time>2012-05-03T13:35:24Z</time>
      </trkpt>
      <trkpt lat="46.31837" lon="3.59564">
        <ele>921.08</ele>
        <time>2012-05-03T13:35:31Z</time>
      </trkpt>
      <trkpt lat="46.32038" lon="3.59246">
        <ele>923.96</ele>
        <time>2012-05-03T13:35:39Z</time>
      </trkpt>
      <trkpt lat="46.32261" lon="3.58813">
        <ele>923.48</ele>
        <time>2012-05-03T13:35:49Z</time>
      </trkpt>
      <trkpt lat="46.32452" lon="3.58401">
        <ele>918.68</ele>
        <time>2012-05-03T13:35:58Z</time>
      </trkpt>
      <trkpt lat="46.32638" lon="3.58042">
        <ele>920.12</ele>
        <time>2012-05-03T13:36:06Z</time>
      </trkpt>
      <trkpt lat="46.32888" lon="3.57624">
        <ele>920.12</ele>
        <time>2012-05-03T13:36:16Z</time>
      </trkpt>
      <trkpt lat="46.33099" lon="3.57268">
        <ele>929.73</ele>
        <time>2012-05-03T13:36:25Z</time>
      </trkpt>
      <trkpt lat="46.33243" lon="3.56969">
        <ele>931.65</ele>
        <time>2012-05-03T13:36:32Z</time>
      </trkpt>
      <trkpt lat="46.33388" lon="3.56561">
        <ele>932.62</ele>
        <time>2012-05-03T13:36:41Z</time>
      </trkpt>
      <trkpt lat="46.33541" lon="3.56155">
        <ele>928.29</ele>
        <time>2012-05-03T13:36:50Z</time>
      </trkpt>
      <trkpt lat="46.33674" lon="3.55788">
        <ele>925.41</ele>
        <time>2012-05-03T13:36:58Z</time>
      </trkpt>
      <trkpt lat="46.33798" lon="3.55333">
        <ele>911.47</ele>
        <time>2012-05-03T13:37:07Z</time>
      </trkpt>
      <trkpt lat="46.33903" lon="3.54961">
        <ele>899.93</ele>
        <time>2012-05-03T13:37:14Z</time>
      </trkpt>
      <trkpt lat="46.34026" lon="3.54546">
        <ele>901.37</ele>
        <time>2012-05-03T13:37:22Z</time>
      </trkpt>
      <trkpt lat="46.34165" lon="3.53995">
        <ele>894.64</ele>
        <time>2012-05-03T13:37:32Z</time>
      </trkpt>
      <trkpt lat="46.34295" lon="3.53557">
        <ele>893.2</ele>
        <time>2012-05-03T13:37:40Z</time>
      </trkpt>
      <trkpt lat="46.34408" lon="3.5313">
        <ele>899.93</ele>
        <time>2012-05-03T13:37:48Z</time>
      </trkpt>
      <trkpt lat="46.34499" lon="3.52689">
        <ele>895.61</ele>
        <time>2012-05-03T13:37:56Z</time>
      </trkpt>
      <trkpt lat="46.34634" lon="3.5226">
        <ele>894.16</ele>
        <time>2012-05-03T13:38:04Z</time>
      </trkpt>
      <trkpt lat="46.34732" lon="3.51833">
        <ele>893.2</ele>
        <time>2012-05-03T13:38:12Z</time>
      </trkpt>
      <trkpt lat="46.34848" lon="3.5134">
        <ele>878.78</ele>
        <time>2012-05-03T13:38:21Z</time>
      </trkpt>
      <trkpt lat="46.34954" lon="3.51021">
        <ele>874.94</ele>
        <time>2012-05-03T13:38:27Z</time>
      </trkpt>
      <trkpt lat="46.35037" lon="3.50644">
        <ele>871.09</ele>
        <time>2012-05-03T13:38:34Z</time>
      </trkpt>
      <trkpt lat="46.35102" lon="3.50155">
        <ele>859.56</ele>
        <time>2012-05-03T13:38:42Z</time>
      </trkpt>
      <trkpt lat="46.35186" lon="3.49809">
        <ele>856.67</ele>
        <time>2012-05-03T13:38:48Z</time>
      </trkpt>
      <trkpt lat="46.35256" lon="3.49413">
        <ele>854.75</ele>
        <time>2012-05-03T13:38:55Z</time>
      </trkpt>
      <trkpt lat="46.35273" lon="3.48997">
        <ele>851.87</ele>
        <time>2012-05-03T13:39:02Z</time>
      </trkpt>
      <trkpt lat="46.35308" lon="3.48598">
        <ele>858.59</ele>
        <time>2012-05-03T13:39:09Z</time>
      </trkpt>
      <trkpt lat="46.35388" lon="3.48127">
        <ele>869.17</ele>
        <time>2012-05-03T13:39:18Z</time>
      </trkpt>
      <trkpt lat="46.35393" lon="3.47793">
        <ele>863.88</ele>
        <time>2012-05-03T13:39:24Z</time>
      </trkpt>
      <trkpt lat="46.35387" lon="3.47615">
        <ele>858.11</ele>
        <time>2012-05-03T13:39:27Z</time>
      </trkpt>
      <trkpt lat="46.35437" lon="3.47204">
        <ele>852.83</ele>
        <time>2012-05-03T13:39:34Z</time>
      </trkpt>
      <trkpt lat="46.35541" lon="3.46888">
        <ele>861</ele>
        <time>2012-05-03T13:39:40Z</time>
      </trkpt>
      <trkpt lat="46.35696" lon="3.4646">
        <ele>883.59</ele>
        <time>2012-05-03T13:39:49Z</time>
      </trkpt>
      <trkpt lat="46.35803" lon="3.46075">
        <ele>900.41</ele>
        <time>2012-05-03T13:39:57Z</time>
      </trkpt>
      <trkpt lat="46.35912" lon="3.45777">
        <ele>901.85</ele>
        <time>2012-05-03T13:40:03Z</time>
      </trkpt>
      <trkpt lat="46.36087" lon="3.45351">
        <ele>913.39</ele>
        <time>2012-05-03T13:40:12Z</time>
      </trkpt>
      <trkpt lat="46.36325" lon="3.44882">
        <ele>931.17</ele>
        <time>2012-05-03T13:40:23Z</time>
      </trkpt>
      <trkpt lat="46.36578" lon="3.44332">
        <ele>924.45</ele>
        <time>2012-05-03T13:40:35Z</time>
      </trkpt>
      <trkpt lat="46.36741" lon="3.43967">
        <ele>922.52</ele>
        <time>2012-05-03T13:40:43Z</time>
      </trkpt>
      <trkpt lat="46.36916" lon="3.43616">
        <ele>923</ele>
        <time>2012-05-03T13:40:51Z</time>
      </trkpt>
      <trkpt lat="46.37074" lon="3.43383">
        <ele>927.33</ele>
        <time>2012-05-03T13:40:57Z</time>
      </trkpt>
      <trkpt lat="46.37248" lon="3.43076">
        <ele>918.68</ele>
        <time>2012-05-03T13:41:04Z</time>
      </trkpt>
      <trkpt lat="46.37416" lon="3.42764">
        <ele>923</ele>
        <time>2012-05-03T13:41:11Z</time>
      </trkpt>
      <trkpt lat="46.37625" lon="3.42526">
        <ele>939.83</ele>
        <time>2012-05-03T13:41:18Z</time>
      </trkpt>
      <trkpt lat="46.37939" lon="3.42125">
        <ele>948</ele>
        <time>2012-05-03T13:41:29Z</time>
      </trkpt>
      <trkpt lat="46.38129" lon="3.41834">
        <ele>953.77</ele>
        <time>2012-05-03T13:41:36Z</time>
      </trkpt>
      <trkpt lat="46.38287" lon="3.41693">
        <ele>964.34</ele>
        <time>2012-05-03T13:41:41Z</time>
      </trkpt>
      <trkpt lat="46.38562" lon="3.41514">
        <ele>976.36</ele>
        <time>2012-05-03T13:41:49Z</time>
      </trkpt>
      <trkpt lat="46.38779" lon="3.41353">
        <ele>992.22</ele>
        <time>2012-05-03T13:41:56Z</time>
      </trkpt>
      <trkpt lat="46.39041" lon="3.41174">
        <ele>993.66</ele>
        <time>2012-05-03T13:42:04Z</time>
      </trkpt>
      <trkpt lat="46.39363" lon="3.40924">
        <ele>987.41</ele>
        <time>2012-05-03T13:42:13Z</time>
      </trkpt>
      <trkpt lat="46.39771" lon="3.40631">
        <ele>987.41</ele>
        <time>2012-05-03T13:42:24Z</time>
      </trkpt>
      <trkpt lat="46.40053" lon="3.40443">
        <ele>993.18</ele>
        <time>2012-05-03T13:42:32Z</time>
      </trkpt>
      <trkpt lat="46.40277" lon="3.40263">
        <ele>985.97</ele>
        <time>2012-05-03T13:42:38Z</time>
      </trkpt>
      <trkpt lat="46.40672" lon="3.40003">
        <ele>967.7</ele>
        <time>2012-05-03T13:42:48Z</time>
      </trkpt>
      <trkpt lat="46.4102" lon="3.39816">
        <ele>956.65</ele>
        <time>2012-05-03T13:42:57Z</time>
      </trkpt>
      <trkpt lat="46.41334" lon="3.39584">
        <ele>950.88</ele>
        <time>2012-05-03T13:43:06Z</time>
      </trkpt>
      <trkpt lat="46.41572" lon="3.3944">
        <ele>953.77</ele>
        <time>2012-05-03T13:43:13Z</time>
      </trkpt>
      <trkpt lat="46.41796" lon="3.39367">
        <ele>951.84</ele>
        <time>2012-05-03T13:43:19Z</time>
      </trkpt>
      <trkpt lat="46.4214" lon="3.39282">
        <ele>945.59</ele>
        <time>2012-05-03T13:43:28Z</time>
      </trkpt>
      <trkpt lat="46.42569" lon="3.39207">
        <ele>933.1</ele>
        <time>2012-05-03T13:43:39Z</time>
      </trkpt>
      <trkpt lat="46.42894" lon="3.39158">
        <ele>927.33</ele>
        <time>2012-05-03T13:43:47Z</time>
      </trkpt>
      <trkpt lat="46.43205" lon="3.39132">
        <ele>924.93</ele>
        <time>2012-05-03T13:43:55Z</time>
      </trkpt>
      <trkpt lat="46.43557" lon="3.39157">
        <ele>917.24</ele>
        <time>2012-05-03T13:44:04Z</time>
      </trkpt>
      <trkpt lat="46.43882" lon="3.39222">
        <ele>911.47</ele>
        <time>2012-05-03T13:44:12Z</time>
      </trkpt>
      <trkpt lat="46.44279" lon="3.39315">
        <ele>924.93</ele>
        <time>2012-05-03T13:44:22Z</time>
      </trkpt>
      <trkpt lat="46.44544" lon="3.39408">
        <ele>939.35</ele>
        <time>2012-05-03T13:44:29Z</time>
      </trkpt>
      <trkpt lat="46.44847" lon="3.39506">
        <ele>946.56</ele>
        <time>2012-05-03T13:44:37Z</time>
      </trkpt>
      <trkpt lat="46.45092" lon="3.39513">
        <ele>944.15</ele>
        <time>2012-05-03T13:44:43Z</time>
      </trkpt>
      <trkpt lat="46.45388" lon="3.39471">
        <ele>936.94</ele>
        <time>2012-05-03T13:44:50Z</time>
      </trkpt>
      <trkpt lat="46.45768" lon="3.39417">
        <ele>927.33</ele>
        <time>2012-05-03T13:44:59Z</time>
      </trkpt>
      <trkpt lat="46.46109" lon="3.39397">
        <ele>933.1</ele>
        <time>2012-05-03T13:45:08Z</time>
      </trkpt>
      <trkpt lat="46.46425" lon="3.39426">
        <ele>919.64</ele>
        <time>2012-05-03T13:45:16Z</time>
      </trkpt>
      <trkpt lat="46.46864" lon="3.39452">
        <ele>912.91</ele>
        <time>2012-05-03T13:45:27Z</time>
      </trkpt>
      <trkpt lat="46.47183" lon="3.39481">
        <ele>907.62</ele>
        <time>2012-05-03T13:45:35Z</time>
      </trkpt>
      <trkpt lat="46.47649" lon="3.39495">
        <ele>909.54</ele>
        <time>2012-05-03T13:45:47Z</time>
      </trkpt>
      <trkpt lat="46.47972" lon="3.3947">
        <ele>900.89</ele>
        <time>2012-05-03T13:45:55Z</time>
      </trkpt>
      <trkpt lat="46.48273" lon="3.39449">
        <ele>883.59</ele>
        <time>2012-05-03T13:46:02Z</time>
      </trkpt>
      <trkpt lat="46.48722" lon="3.39428">
        <ele>850.42</ele>
        <time>2012-05-03T13:46:12Z</time>
      </trkpt>
      <trkpt lat="46.4904" lon="3.39401">
        <ele>835.52</ele>
        <time>2012-05-03T13:46:19Z</time>
      </trkpt>
      <trkpt lat="46.49362" lon="3.39403">
        <ele>842.73</ele>
        <time>2012-05-03T13:46:27Z</time>
      </trkpt>
      <trkpt lat="46.49767" lon="3.39357">
        <ele>833.6</ele>
        <time>2012-05-03T13:46:37Z</time>
      </trkpt>
      <trkpt lat="46.50143" lon="3.39346">
        <ele>815.34</ele>
        <time>2012-05-03T13:46:46Z</time>
      </trkpt>
      <trkpt lat="46.50405" lon="3.39357">
        <ele>806.2</ele>
        <time>2012-05-03T13:46:52Z</time>
      </trkpt>
      <trkpt lat="46.50703" lon="3.39393">
        <ele>807.64</ele>
        <time>2012-05-03T13:46:59Z</time>
      </trkpt>
      <trkpt lat="46.51067" lon="3.39436">
        <ele>808.13</ele>
        <time>2012-05-03T13:47:08Z</time>
      </trkpt>
      <trkpt lat="46.51313" lon="3.3944">
        <ele>796.59</ele>
        <time>2012-05-03T13:47:14Z</time>
      </trkpt>
      <trkpt lat="46.51719" lon="3.39419">
        <ele>787.94</ele>
        <time>2012-05-03T13:47:24Z</time>
      </trkpt>
      <trkpt lat="46.52032" lon="3.39395">
        <ele>787.46</ele>
        <time>2012-05-03T13:47:32Z</time>
      </trkpt>
      <trkpt lat="46.52392" lon="3.39359">
        <ele>779.29</ele>
        <time>2012-05-03T13:47:41Z</time>
      </trkpt>
      <trkpt lat="46.52785" lon="3.39334">
        <ele>768.23</ele>
        <time>2012-05-03T13:47:51Z</time>
      </trkpt>
      <trkpt lat="46.53239" lon="3.39308">
        <ele>757.66</ele>
        <time>2012-05-03T13:48:02Z</time>
      </trkpt>
      <trkpt lat="46.53607" lon="3.39312">
        <ele>751.41</ele>
        <time>2012-05-03T13:48:11Z</time>
      </trkpt>
      <trkpt lat="46.53836" lon="3.39284">
        <ele>763.42</ele>
        <time>2012-05-03T13:48:17Z</time>
      </trkpt>
      <trkpt lat="46.54067" lon="3.39249">
        <ele>787.46</ele>
        <time>2012-05-03T13:48:24Z</time>
      </trkpt>
      <trkpt lat="46.543" lon="3.39179">
        <ele>804.76</ele>
        <time>2012-05-03T13:48:31Z</time>
      </trkpt>
      <trkpt lat="46.54627" lon="3.3906">
        <ele>826.39</ele>
        <time>2012-05-03T13:48:41Z</time>
      </trkpt>
      <trkpt lat="46.54908" lon="3.38934">
        <ele>836</ele>
        <time>2012-05-03T13:48:50Z</time>
      </trkpt>
      <trkpt lat="46.55221" lon="3.38754">
        <ele>842.73</ele>
        <time>2012-05-03T13:49:00Z</time>
      </trkpt>
      <trkpt lat="46.55524" lon="3.3858">
        <ele>852.83</ele>
        <time>2012-05-03T13:49:09Z</time>
      </trkpt>
      <trkpt lat="46.55748" lon="3.38408">
        <ele>864.84</ele>
        <time>2012-05-03T13:49:16Z</time>
      </trkpt>
      <trkpt lat="46.56016" lon="3.38211">
        <ele>875.9</ele>
        <time>2012-05-03T13:49:24Z</time>
      </trkpt>
      <trkpt lat="46.56208" lon="3.38027">
        <ele>874.46</ele>
        <time>2012-05-03T13:49:30Z</time>
      </trkpt>
      <trkpt lat="46.5651" lon="3.37755">
        <ele>876.38</ele>
        <time>2012-05-03T13:49:39Z</time>
      </trkpt>
      <trkpt lat="46.56903" lon="3.37405">
        <ele>880.71</ele>
        <time>2012-05-03T13:49:51Z</time>
      </trkpt>
      <trkpt lat="46.57182" lon="3.37163">
        <ele>891.76</ele>
        <time>2012-05-03T13:50:00Z</time>
      </trkpt>
      <trkpt lat="46.57397" lon="3.3696">
        <ele>892.72</ele>
        <time>2012-05-03T13:50:07Z</time>
      </trkpt>
      <trkpt lat="46.57609" lon="3.36739">
        <ele>898.97</ele>
        <time>2012-05-03T13:50:14Z</time>
      </trkpt>
      <trkpt lat="46.57853" lon="3.36488">
        <ele>910.99</ele>
        <time>2012-05-03T13:50:22Z</time>
      </trkpt>
      <trkpt lat="46.58107" lon="3.36264">
        <ele>913.39</ele>
        <time>2012-05-03T13:50:30Z</time>
      </trkpt>
      <trkpt lat="46.5834" lon="3.36045">
        <ele>902.33</ele>
        <time>2012-05-03T13:50:37Z</time>
      </trkpt>
      <trkpt lat="46.58725" lon="3.35741">
        <ele>895.61</ele>
        <time>2012-05-03T13:50:48Z</time>
      </trkpt>
      <trkpt lat="46.59003" lon="3.35521">
        <ele>894.64</ele>
        <time>2012-05-03T13:50:56Z</time>
      </trkpt>
      <trkpt lat="46.59313" lon="3.35273">
        <ele>893.68</ele>
        <time>2012-05-03T13:51:05Z</time>
      </trkpt>
      <trkpt lat="46.59799" lon="3.34871">
        <ele>878.3</ele>
        <time>2012-05-03T13:51:19Z</time>
      </trkpt>
      <trkpt lat="46.60083" lon="3.34683">
        <ele>876.86</ele>
        <time>2012-05-03T13:51:27Z</time>
      </trkpt>
      <trkpt lat="46.60348" lon="3.34491">
        <ele>883.11</ele>
        <time>2012-05-03T13:51:35Z</time>
      </trkpt>
      <trkpt lat="46.60541" lon="3.34358">
        <ele>898.97</ele>
        <time>2012-05-03T13:51:41Z</time>
      </trkpt>
      <trkpt lat="46.608" lon="3.34142">
        <ele>909.06</ele>
        <time>2012-05-03T13:51:49Z</time>
      </trkpt>
      <trkpt lat="46.61139" lon="3.33892">
        <ele>913.87</ele>
        <time>2012-05-03T13:51:59Z</time>
      </trkpt>
      <trkpt lat="46.61453" lon="3.33654">
        <ele>911.47</ele>
        <time>2012-05-03T13:52:08Z</time>
      </trkpt>
      <trkpt lat="46.61684" lon="3.33465">
        <ele>916.27</ele>
        <time>2012-05-03T13:52:15Z</time>
      </trkpt>
      <trkpt lat="46.62042" lon="3.33174">
        <ele>921.08</ele>
        <time>2012-05-03T13:52:26Z</time>
      </trkpt>
      <trkpt lat="46.62326" lon="3.32953">
        <ele>928.29</ele>
        <time>2012-05-03T13:52:35Z</time>
      </trkpt>
      <trkpt lat="46.62547" lon="3.32754">
        <ele>924.93</ele>
        <time>2012-05-03T13:52:42Z</time>
      </trkpt>
      <trkpt lat="46.62879" lon="3.3245">
        <ele>922.52</ele>
        <time>2012-05-03T13:52:52Z</time>
      </trkpt>
      <trkpt lat="46.63154" lon="3.32207">
        <ele>918.68</ele>
        <time>2012-05-03T13:53:00Z</time>
      </trkpt>
      <trkpt lat="46.63454" lon="3.31911">
        <ele>908.58</ele>
        <time>2012-05-03T13:53:09Z</time>
      </trkpt>
      <trkpt lat="46.63693" lon="3.31686">
        <ele>898.97</ele>
        <time>2012-05-03T13:53:16Z</time>
      </trkpt>
      <trkpt lat="46.63937" lon="3.31515">
        <ele>905.22</ele>
        <time>2012-05-03T13:53:23Z</time>
      </trkpt>
      <trkpt lat="46.64237" lon="3.31284">
        <ele>901.37</ele>
        <time>2012-05-03T13:53:32Z</time>
      </trkpt>
      <trkpt lat="46.64496" lon="3.31051">
        <ele>898.97</ele>
        <time>2012-05-03T13:53:40Z</time>
      </trkpt>
      <trkpt lat="46.64738" lon="3.30832">
        <ele>881.67</ele>
        <time>2012-05-03T13:53:47Z</time>
      </trkpt>
      <trkpt lat="46.65066" lon="3.30592">
        <ele>857.63</ele>
        <time>2012-05-03T13:53:56Z</time>
      </trkpt>
      <trkpt lat="46.65377" lon="3.30401">
        <ele>850.9</ele>
        <time>2012-05-03T13:54:04Z</time>
      </trkpt>
      <trkpt lat="46.65635" lon="3.30182">
        <ele>854.27</ele>
        <time>2012-05-03T13:54:12Z</time>
      </trkpt>
      <trkpt lat="46.65933" lon="3.29937">
        <ele>850.9</ele>
        <time>2012-05-03T13:54:21Z</time>
      </trkpt>
      <trkpt lat="46.66239" lon="3.2968">
        <ele>852.83</ele>
        <time>2012-05-03T13:54:30Z</time>
      </trkpt>
      <trkpt lat="46.66519" lon="3.29498">
        <ele>867.25</ele>
        <time>2012-05-03T13:54:38Z</time>
      </trkpt>
      <trkpt lat="46.66743" lon="3.29339">
        <ele>882.15</ele>
        <time>2012-05-03T13:54:45Z</time>
      </trkpt>
      <trkpt lat="46.66967" lon="3.29204">
        <ele>904.26</ele>
        <time>2012-05-03T13:54:52Z</time>
      </trkpt>
      <trkpt lat="46.67223" lon="3.29079">
        <ele>923.96</ele>
        <time>2012-05-03T13:55:00Z</time>
      </trkpt>
      <trkpt lat="46.67591" lon="3.28934">
        <ele>961.94</ele>
        <time>2012-05-03T13:55:11Z</time>
      </trkpt>
      <trkpt lat="46.67918" lon="3.28764">
        <ele>986.93</ele>
        <time>2012-05-03T13:55:20Z</time>
      </trkpt>
      <trkpt lat="46.68225" lon="3.28656">
        <ele>1011.93</ele>
        <time>2012-05-03T13:55:28Z</time>
      </trkpt>
      <trkpt lat="46.68608" lon="3.28548">
        <ele>1054.7</ele>
        <time>2012-05-03T13:55:38Z</time>
      </trkpt>
      <trkpt lat="46.68872" lon="3.285">
        <ele>1073.45</ele>
        <time>2012-05-03T13:55:45Z</time>
      </trkpt>
      <trkpt lat="46.69179" lon="3.28495">
        <ele>1078.74</ele>
        <time>2012-05-03T13:55:53Z</time>
      </trkpt>
      <trkpt lat="46.69431" lon="3.2858">
        <ele>1091.71</ele>
        <time>2012-05-03T13:56:00Z</time>
      </trkpt>
      <trkpt lat="46.69641" lon="3.28597">
        <ele>1084.99</ele>
        <time>2012-05-03T13:56:06Z</time>
      </trkpt>
      <trkpt lat="46.69918" lon="3.28569">
        <ele>1069.6</ele>
        <time>2012-05-03T13:56:13Z</time>
      </trkpt>
      <trkpt lat="46.70195" lon="3.28506">
        <ele>1055.67</ele>
        <time>2012-05-03T13:56:20Z</time>
      </trkpt>
      <trkpt lat="46.70527" lon="3.28417">
        <ele>1043.17</ele>
        <time>2012-05-03T13:56:28Z</time>
      </trkpt>
      <trkpt lat="46.70775" lon="3.28381">
        <ele>1048.45</ele>
        <time>2012-05-03T13:56:34Z</time>
      </trkpt>
      <trkpt lat="46.71097" lon="3.28278">
        <ele>1048.94</ele>
        <time>2012-05-03T13:56:42Z</time>
      </trkpt>
      <trkpt lat="46.71371" lon="3.28164">
        <ele>1059.03</ele>
        <time>2012-05-03T13:56:49Z</time>
      </trkpt>
      <trkpt lat="46.71714" lon="3.28019">
        <ele>1077.29</ele>
        <time>2012-05-03T13:56:58Z</time>
      </trkpt>
      <trkpt lat="46.7202" lon="3.27905">
        <ele>1078.74</ele>
        <time>2012-05-03T13:57:06Z</time>
      </trkpt>
      <trkpt lat="46.72409" lon="3.27751">
        <ele>1069.6</ele>
        <time>2012-05-03T13:57:15Z</time>
      </trkpt>
      <trkpt lat="46.72813" lon="3.27583">
        <ele>1062.39</ele>
        <time>2012-05-03T13:57:25Z</time>
      </trkpt>
      <trkpt lat="46.73181" lon="3.27428">
        <ele>1055.18</ele>
        <time>2012-05-03T13:57:34Z</time>
      </trkpt>
      <trkpt lat="46.73478" lon="3.27303">
        <ele>1055.67</ele>
        <time>2012-05-03T13:57:41Z</time>
      </trkpt>
      <trkpt lat="46.73794" lon="3.27115">
        <ele>1055.18</ele>
        <time>2012-05-03T13:57:49Z</time>
      </trkpt>
      <trkpt lat="46.74146" lon="3.26933">
        <ele>1056.15</ele>
        <time>2012-05-03T13:57:58Z</time>
      </trkpt>
      <trkpt lat="46.74495" lon="3.26769">
        <ele>1053.74</ele>
        <time>2012-05-03T13:58:07Z</time>
      </trkpt>
      <trkpt lat="46.74745" lon="3.26718">
        <ele>1045.57</ele>
        <time>2012-05-03T13:58:13Z</time>
      </trkpt>
      <trkpt lat="46.75027" lon="3.26669">
        <ele>1025.86</ele>
        <time>2012-05-03T13:58:20Z</time>
      </trkpt>
      <trkpt lat="46.75536" lon="3.26518">
        <ele>998.95</ele>
        <time>2012-05-03T13:58:33Z</time>
      </trkpt>
      <trkpt lat="46.75861" lon="3.26384">
        <ele>1002.79</ele>
        <time>2012-05-03T13:58:42Z</time>
      </trkpt>
      <trkpt lat="46.76142" lon="3.26194">
        <ele>992.22</ele>
        <time>2012-05-03T13:58:50Z</time>
      </trkpt>
      <trkpt lat="46.76468" lon="3.25983">
        <ele>987.89</ele>
        <time>2012-05-03T13:58:59Z</time>
      </trkpt>
      <trkpt lat="46.7674" lon="3.25795">
        <ele>995.58</ele>
        <time>2012-05-03T13:59:07Z</time>
      </trkpt>
      <trkpt lat="46.77007" lon="3.2562">
        <ele>1002.79</ele>
        <time>2012-05-03T13:59:15Z</time>
      </trkpt>
      <trkpt lat="46.77308" lon="3.25412">
        <ele>1015.29</ele>
        <time>2012-05-03T13:59:25Z</time>
      </trkpt>
      <trkpt lat="46.7758" lon="3.25239">
        <ele>1023.46</ele>
        <time>2012-05-03T13:59:34Z</time>
      </trkpt>
      <trkpt lat="46.77801" lon="3.25077">
        <ele>1015.77</ele>
        <time>2012-05-03T13:59:41Z</time>
      </trkpt>
      <trkpt lat="46.78012" lon="3.2493">
        <ele>1010</ele>
        <time>2012-05-03T13:59:47Z</time>
      </trkpt>
      <trkpt lat="46.78292" lon="3.24706">
        <ele>1005.68</ele>
        <time>2012-05-03T13:59:55Z</time>
      </trkpt>
      <trkpt lat="46.78619" lon="3.2444">
        <ele>1000.87</ele>
        <time>2012-05-03T14:00:04Z</time>
      </trkpt>
      <trkpt lat="46.78851" lon="3.24245">
        <ele>1003.75</ele>
        <time>2012-05-03T14:00:11Z</time>
      </trkpt>
      <trkpt lat="46.79114" lon="3.24017">
        <ele>1010.48</ele>
        <time>2012-05-03T14:00:19Z</time>
      </trkpt>
      <trkpt lat="46.79303" lon="3.23903">
        <ele>1023.46</ele>
        <time>2012-05-03T14:00:25Z</time>
      </trkpt>
      <trkpt lat="46.79518" lon="3.23759">
        <ele>1021.06</ele>
        <time>2012-05-03T14:00:32Z</time>
      </trkpt>
      <trkpt lat="46.79763" lon="3.23575">
        <ele>1004.23</ele>
        <time>2012-05-03T14:00:39Z</time>
      </trkpt>
      <trkpt lat="46.80213" lon="3.23263">
        <ele>964.82</ele>
        <time>2012-05-03T14:00:51Z</time>
      </trkpt>
      <trkpt lat="46.80552" lon="3.23061">
        <ele>953.28</ele>
        <time>2012-05-03T14:01:00Z</time>
      </trkpt>
      <trkpt lat="46.80859" lon="3.22848">
        <ele>926.37</ele>
        <time>2012-05-03T14:01:08Z</time>
      </trkpt>
      <trkpt lat="46.81242" lon="3.22612">
        <ele>898.49</ele>
        <time>2012-05-03T14:01:18Z</time>
      </trkpt>
      <trkpt lat="46.81561" lon="3.22414">
        <ele>881.19</ele>
        <time>2012-05-03T14:01:27Z</time>
      </trkpt>
      <trkpt lat="46.81857" lon="3.22247">
        <ele>861.96</ele>
        <time>2012-05-03T14:01:35Z</time>
      </trkpt>
      <trkpt lat="46.82144" lon="3.22138">
        <ele>861.96</ele>
        <time>2012-05-03T14:01:43Z</time>
      </trkpt>
      <trkpt lat="46.82343" lon="3.22008">
        <ele>857.63</ele>
        <time>2012-05-03T14:01:49Z</time>
      </trkpt>
      <trkpt lat="46.82604" lon="3.21833">
        <ele>857.15</ele>
        <time>2012-05-03T14:01:57Z</time>
      </trkpt>
      <trkpt lat="46.82946" lon="3.21614">
        <ele>856.67</ele>
        <time>2012-05-03T14:02:08Z</time>
      </trkpt>
      <trkpt lat="46.83334" lon="3.21358">
        <ele>846.1</ele>
        <time>2012-05-03T14:02:20Z</time>
      </trkpt>
      <trkpt lat="46.83585" lon="3.21181">
        <ele>836.48</ele>
        <time>2012-05-03T14:02:28Z</time>
      </trkpt>
      <trkpt lat="46.83814" lon="3.2105">
        <ele>836.96</ele>
        <time>2012-05-03T14:02:35Z</time>
      </trkpt>
      <trkpt lat="46.84107" lon="3.20874">
        <ele>840.33</ele>
        <time>2012-05-03T14:02:44Z</time>
      </trkpt>
      <trkpt lat="46.84313" lon="3.20747">
        <ele>844.66</ele>
        <time>2012-05-03T14:02:50Z</time>
      </trkpt>
      <trkpt lat="46.84675" lon="3.20532">
        <ele>867.25</ele>
        <time>2012-05-03T14:03:01Z</time>
      </trkpt>
      <trkpt lat="46.84946" lon="3.20346">
        <ele>886.95</ele>
        <time>2012-05-03T14:03:10Z</time>
      </trkpt>
      <trkpt lat="46.85173" lon="3.20202">
        <ele>885.51</ele>
        <time>2012-05-03T14:03:17Z</time>
      </trkpt>
      <trkpt lat="46.85501" lon="3.19994">
        <ele>885.03</ele>
        <time>2012-05-03T14:03:27Z</time>
      </trkpt>
      <trkpt lat="46.85947" lon="3.1966">
        <ele>889.36</ele>
        <time>2012-05-03T14:03:41Z</time>
      </trkpt>
      <trkpt lat="46.8622" lon="3.19373">
        <ele>899.45</ele>
        <time>2012-05-03T14:03:50Z</time>
      </trkpt>
      <trkpt lat="46.86382" lon="3.19241">
        <ele>902.82</ele>
        <time>2012-05-03T14:03:55Z</time>
      </trkpt>
      <trkpt lat="46.86618" lon="3.19134">
        <ele>910.99</ele>
        <time>2012-05-03T14:04:02Z</time>
      </trkpt>
      <trkpt lat="46.8693" lon="3.18961">
        <ele>898.49</ele>
        <time>2012-05-03T14:04:11Z</time>
      </trkpt>
      <trkpt lat="46.87254" lon="3.18853">
        <ele>893.68</ele>
        <time>2012-05-03T14:04:20Z</time>
      </trkpt>
      <trkpt lat="46.87557" lon="3.18743">
        <ele>878.3</ele>
        <time>2012-05-03T14:04:28Z</time>
      </trkpt>
      <trkpt lat="46.87931" lon="3.18547">
        <ele>861.96</ele>
        <time>2012-05-03T14:04:38Z</time>
      </trkpt>
      <trkpt lat="46.88366" lon="3.18325">
        <ele>854.75</ele>
        <time>2012-05-03T14:04:50Z</time>
      </trkpt>
      <trkpt lat="46.88651" lon="3.18121">
        <ele>851.87</ele>
        <time>2012-05-03T14:04:58Z</time>
      </trkpt>
      <trkpt lat="46.88993" lon="3.17882">
        <ele>859.08</ele>
        <time>2012-05-03T14:05:08Z</time>
      </trkpt>
      <trkpt lat="46.89274" lon="3.17677">
        <ele>866.77</ele>
        <time>2012-05-03T14:05:17Z</time>
      </trkpt>
      <trkpt lat="46.89599" lon="3.17472">
        <ele>870.13</ele>
        <time>2012-05-03T14:05:27Z</time>
      </trkpt>
      <trkpt lat="46.89936" lon="3.17231">
        <ele>879.26</ele>
        <time>2012-05-03T14:05:38Z</time>
      </trkpt>
      <trkpt lat="46.90282" lon="3.17003">
        <ele>879.26</ele>
        <time>2012-05-03T14:05:49Z</time>
      </trkpt>
      <trkpt lat="46.90587" lon="3.1677">
        <ele>885.03</ele>
        <time>2012-05-03T14:05:59Z</time>
      </trkpt>
      <trkpt lat="46.90907" lon="3.1651">
        <ele>873.98</ele>
        <time>2012-05-03T14:06:09Z</time>
      </trkpt>
      <trkpt lat="46.91295" lon="3.1621">
        <ele>871.09</ele>
        <time>2012-05-03T14:06:21Z</time>
      </trkpt>
      <trkpt lat="46.91649" lon="3.15925">
        <ele>863.4</ele>
        <time>2012-05-03T14:06:32Z</time>
      </trkpt>
      <trkpt lat="46.9197" lon="3.15703">
        <ele>861.48</ele>
        <time>2012-05-03T14:06:41Z</time>
      </trkpt>
      <trkpt lat="46.92202" lon="3.15527">
        <ele>874.94</ele>
        <time>2012-05-03T14:06:48Z</time>
      </trkpt>
      <trkpt lat="46.92387" lon="3.15309">
        <ele>879.74</ele>
        <time>2012-05-03T14:06:54Z</time>
      </trkpt>
      <trkpt lat="46.92639" lon="3.15052">
        <ele>884.55</ele>
        <time>2012-05-03T14:07:02Z</time>
      </trkpt>
      <trkpt lat="46.92957" lon="3.14728">
        <ele>883.59</ele>
        <time>2012-05-03T14:07:12Z</time>
      </trkpt>
      <trkpt lat="46.93227" lon="3.14449">
        <ele>887.91</ele>
        <time>2012-05-03T14:07:21Z</time>
      </trkpt>
      <trkpt lat="46.93505" lon="3.141">
        <ele>885.03</ele>
        <time>2012-05-03T14:07:31Z</time>
      </trkpt>
      <trkpt lat="46.93775" lon="3.1382">
        <ele>881.67</ele>
        <time>2012-05-03T14:07:40Z</time>
      </trkpt>
      <trkpt lat="46.94106" lon="3.13465">
        <ele>885.03</ele>
        <time>2012-05-03T14:07:51Z</time>
      </trkpt>
      <trkpt lat="46.94332" lon="3.13223">
        <ele>885.51</ele>
        <time>2012-05-03T14:07:59Z</time>
      </trkpt>
      <trkpt lat="46.94577" lon="3.13011">
        <ele>882.63</ele>
        <time>2012-05-03T14:08:07Z</time>
      </trkpt>
      <trkpt lat="46.94857" lon="3.12764">
        <ele>876.38</ele>
        <time>2012-05-03T14:08:16Z</time>
      </trkpt>
      <trkpt lat="46.95069" lon="3.12547">
        <ele>868.21</ele>
        <time>2012-05-03T14:08:23Z</time>
      </trkpt>
      <trkpt lat="46.95322" lon="3.12334">
        <ele>860.52</ele>
        <time>2012-05-03T14:08:31Z</time>
      </trkpt>
      <trkpt lat="46.95606" lon="3.12067">
        <ele>847.54</ele>
        <time>2012-05-03T14:08:40Z</time>
      </trkpt>
      <trkpt lat="46.95922" lon="3.11801">
        <ele>838.41</ele>
        <time>2012-05-03T14:08:50Z</time>
      </trkpt>
      <trkpt lat="46.96142" lon="3.11595">
        <ele>829.27</ele>
        <time>2012-05-03T14:08:57Z</time>
      </trkpt>
      <trkpt lat="46.96384" lon="3.11443">
        <ele>826.87</ele>
        <time>2012-05-03T14:09:04Z</time>
      </trkpt>
      <trkpt lat="46.96662" lon="3.113">
        <ele>823.03</ele>
        <time>2012-05-03T14:09:12Z</time>
      </trkpt>
      <trkpt lat="46.96947" lon="3.11119">
        <ele>809.09</ele>
        <time>2012-05-03T14:09:20Z</time>
      </trkpt>
      <trkpt lat="46.97334" lon="3.10922">
        <ele>790.34</ele>
        <time>2012-05-03T14:09:30Z</time>
      </trkpt>
      <trkpt lat="46.97652" lon="3.10833">
        <ele>783.13</ele>
        <time>2012-05-03T14:09:38Z</time>
      </trkpt>
      <trkpt lat="46.98088" lon="3.10692">
        <ele>774.48</ele>
        <time>2012-05-03T14:09:49Z</time>
      </trkpt>
      <trkpt lat="46.98386" lon="3.1061">
        <ele>777.36</ele>
        <time>2012-05-03T14:09:57Z</time>
      </trkpt>
      <trkpt lat="46.98632" lon="3.10562">
        <ele>782.65</ele>
        <time>2012-05-03T14:10:04Z</time>
      </trkpt>
      <trkpt lat="46.98905" lon="3.10455">
        <ele>794.19</ele>
        <time>2012-05-03T14:10:13Z</time>
      </trkpt>
      <trkpt lat="46.99121" lon="3.10307">
        <ele>776.4</ele>
        <time>2012-05-03T14:10:20Z</time>
      </trkpt>
      <trkpt lat="46.99365" lon="3.10179">
        <ele>760.06</ele>
        <time>2012-05-03T14:10:27Z</time>
      </trkpt>
      <trkpt lat="46.99537" lon="3.10086">
        <ele>760.54</ele>
        <time>2012-05-03T14:10:33Z</time>
      </trkpt>
      <trkpt lat="46.99797" lon="3.0994">
        <ele>751.41</ele>
        <time>2012-05-03T14:10:42Z</time>
      </trkpt>
      <trkpt lat="47.00009" lon="3.09846">
        <ele>752.37</ele>
        <time>2012-05-03T14:10:49Z</time>
      </trkpt>
      <trkpt lat="47.00264" lon="3.09737">
        <ele>755.25</ele>
        <time>2012-05-03T14:10:57Z</time>
      </trkpt>
      <trkpt lat="47.00586" lon="3.09639">
        <ele>745.16</ele>
        <time>2012-05-03T14:11:06Z</time>
      </trkpt>
      <trkpt lat="47.00938" lon="3.09559">
        <ele>741.79</ele>
        <time>2012-05-03T14:11:15Z</time>
      </trkpt>
      <trkpt lat="47.0133" lon="3.09507">
        <ele>751.89</ele>
        <time>2012-05-03T14:11:25Z</time>
      </trkpt>
      <trkpt lat="47.01619" lon="3.09473">
        <ele>772.56</ele>
        <time>2012-05-03T14:11:33Z</time>
      </trkpt>
      <trkpt lat="47.01992" lon="3.09373">
        <ele>781.69</ele>
        <time>2012-05-03T14:11:43Z</time>
      </trkpt>
      <trkpt lat="47.02195" lon="3.0931">
        <ele>769.67</ele>
        <time>2012-05-03T14:11:48Z</time>
      </trkpt>
      <trkpt lat="47.02593" lon="3.0926">
        <ele>754.77</ele>
        <time>2012-05-03T14:11:57Z</time>
      </trkpt>
      <trkpt lat="47.02826" lon="3.09184">
        <ele>752.85</ele>
        <time>2012-05-03T14:12:03Z</time>
      </trkpt>
      <trkpt lat="47.0314" lon="3.09019">
        <ele>755.25</ele>
        <time>2012-05-03T14:12:12Z</time>
      </trkpt>
      <trkpt lat="47.03475" lon="3.08839">
        <ele>753.33</ele>
        <time>2012-05-03T14:12:22Z</time>
      </trkpt>
      <trkpt lat="47.0387" lon="3.08591">
        <ele>744.68</ele>
        <time>2012-05-03T14:12:34Z</time>
      </trkpt>
      <trkpt lat="47.04176" lon="3.08379">
        <ele>733.14</ele>
        <time>2012-05-03T14:12:43Z</time>
      </trkpt>
      <trkpt lat="47.04557" lon="3.08143">
        <ele>744.68</ele>
        <time>2012-05-03T14:12:54Z</time>
      </trkpt>
      <trkpt lat="47.04911" lon="3.07964">
        <ele>766.31</ele>
        <time>2012-05-03T14:13:04Z</time>
      </trkpt>
      <trkpt lat="47.05237" lon="3.07778">
        <ele>785.05</ele>
        <time>2012-05-03T14:13:14Z</time>
      </trkpt>
      <trkpt lat="47.05552" lon="3.07563">
        <ele>781.21</ele>
        <time>2012-05-03T14:13:24Z</time>
      </trkpt>
      <trkpt lat="47.05807" lon="3.07441">
        <ele>775.44</ele>
        <time>2012-05-03T14:13:31Z</time>
      </trkpt>
      <trkpt lat="47.06159" lon="3.07278">
        <ele>772.08</ele>
        <time>2012-05-03T14:13:41Z</time>
      </trkpt>
      <trkpt lat="47.06514" lon="3.07141">
        <ele>767.27</ele>
        <time>2012-05-03T14:13:51Z</time>
      </trkpt>
      <trkpt lat="47.06882" lon="3.07029">
        <ele>763.9</ele>
        <time>2012-05-03T14:14:01Z</time>
      </trkpt>
      <trkpt lat="47.07182" lon="3.06927">
        <ele>745.64</ele>
        <time>2012-05-03T14:14:09Z</time>
      </trkpt>
      <trkpt lat="47.07513" lon="3.06793">
        <ele>729.78</ele>
        <time>2012-05-03T14:14:17Z</time>
      </trkpt>
      <trkpt lat="47.07839" lon="3.06698">
        <ele>739.39</ele>
        <time>2012-05-03T14:14:25Z</time>
      </trkpt>
      <trkpt lat="47.08094" lon="3.06582">
        <ele>748.52</ele>
        <time>2012-05-03T14:14:32Z</time>
      </trkpt>
      <trkpt lat="47.08403" lon="3.06399">
        <ele>756.69</ele>
        <time>2012-05-03T14:14:41Z</time>
      </trkpt>
      <trkpt lat="47.08707" lon="3.06197">
        <ele>756.21</ele>
        <time>2012-05-03T14:14:50Z</time>
      </trkpt>
      <trkpt lat="47.09113" lon="3.05932">
        <ele>761.02</ele>
        <time>2012-05-03T14:15:02Z</time>
      </trkpt>
      <trkpt lat="47.09414" lon="3.0573">
        <ele>774.48</ele>
        <time>2012-05-03T14:15:11Z</time>
      </trkpt>
      <trkpt lat="47.0972" lon="3.05537">
        <ele>785.53</ele>
        <time>2012-05-03T14:15:20Z</time>
      </trkpt>
      <trkpt lat="47.10095" lon="3.05281">
        <ele>783.61</ele>
        <time>2012-05-03T14:15:31Z</time>
      </trkpt>
      <trkpt lat="47.10374" lon="3.05094">
        <ele>789.38</ele>
        <time>2012-05-03T14:15:39Z</time>
      </trkpt>
      <trkpt lat="47.10726" lon="3.04835">
        <ele>787.94</ele>
        <time>2012-05-03T14:15:49Z</time>
      </trkpt>
      <trkpt lat="47.11058" lon="3.04541">
        <ele>793.71</ele>
        <time>2012-05-03T14:15:59Z</time>
      </trkpt>
      <trkpt lat="47.11332" lon="3.04323">
        <ele>796.11</ele>
        <time>2012-05-03T14:16:07Z</time>
      </trkpt>
      <trkpt lat="47.11773" lon="3.04034">
        <ele>788.42</ele>
        <time>2012-05-03T14:16:19Z</time>
      </trkpt>
      <trkpt lat="47.12105" lon="3.03844">
        <ele>783.61</ele>
        <time>2012-05-03T14:16:28Z</time>
      </trkpt>
      <trkpt lat="47.12519" lon="3.03617">
        <ele>786.98</ele>
        <time>2012-05-03T14:16:40Z</time>
      </trkpt>
      <trkpt lat="47.12884" lon="3.03391">
        <ele>806.68</ele>
        <time>2012-05-03T14:16:51Z</time>
      </trkpt>
      <trkpt lat="47.13233" lon="3.03144">
        <ele>818.22</ele>
        <time>2012-05-03T14:17:02Z</time>
      </trkpt>
      <trkpt lat="47.13523" lon="3.0293">
        <ele>832.64</ele>
        <time>2012-05-03T14:17:11Z</time>
      </trkpt>
      <trkpt lat="47.13839" lon="3.02701">
        <ele>835.52</ele>
        <time>2012-05-03T14:17:21Z</time>
      </trkpt>
      <trkpt lat="47.14112" lon="3.02549">
        <ele>829.27</ele>
        <time>2012-05-03T14:17:29Z</time>
      </trkpt>
      <trkpt lat="47.1454" lon="3.02302">
        <ele>824.47</ele>
        <time>2012-05-03T14:17:41Z</time>
      </trkpt>
      <trkpt lat="47.14784" lon="3.02138">
        <ele>830.24</ele>
        <time>2012-05-03T14:17:48Z</time>
      </trkpt>
      <trkpt lat="47.15063" lon="3.01951">
        <ele>836.96</ele>
        <time>2012-05-03T14:17:56Z</time>
      </trkpt>
      <trkpt lat="47.15516" lon="3.01677">
        <ele>824.95</ele>
        <time>2012-05-03T14:18:08Z</time>
      </trkpt>
      <trkpt lat="47.15722" lon="3.01611">
        <ele>819.18</ele>
        <time>2012-05-03T14:18:13Z</time>
      </trkpt>
      <trkpt lat="47.16015" lon="3.01553">
        <ele>819.66</ele>
        <time>2012-05-03T14:18:20Z</time>
      </trkpt>
      <trkpt lat="47.1637" lon="3.01387">
        <ele>820.62</ele>
        <time>2012-05-03T14:18:29Z</time>
      </trkpt>
      <trkpt lat="47.16717" lon="3.01202">
        <ele>807.64</ele>
        <time>2012-05-03T14:18:38Z</time>
      </trkpt>
      <trkpt lat="47.16999" lon="3.01078">
        <ele>798.99</ele>
        <time>2012-05-03T14:18:45Z</time>
      </trkpt>
      <trkpt lat="47.17247" lon="3.0095">
        <ele>799.95</ele>
        <time>2012-05-03T14:18:52Z</time>
      </trkpt>
      <trkpt lat="47.17525" lon="3.00795">
        <ele>804.76</ele>
        <time>2012-05-03T14:19:00Z</time>
      </trkpt>
      <trkpt lat="47.17808" lon="3.00686">
        <ele>805.24</ele>
        <time>2012-05-03T14:19:08Z</time>
      </trkpt>
      <trkpt lat="47.18112" lon="3.00541">
        <ele>796.59</ele>
        <time>2012-05-03T14:19:16Z</time>
      </trkpt>
      <trkpt lat="47.18345" lon="3.00464">
        <ele>811.01</ele>
        <time>2012-05-03T14:19:22Z</time>
      </trkpt>
      <trkpt lat="47.18644" lon="3.00387">
        <ele>823.99</ele>
        <time>2012-05-03T14:19:30Z</time>
      </trkpt>
      <trkpt lat="47.18986" lon="3.00317">
        <ele>826.87</ele>
        <time>2012-05-03T14:19:39Z</time>
      </trkpt>
      <trkpt lat="47.19252" lon="3.00238">
        <ele>817.74</ele>
        <time>2012-05-03T14:19:46Z</time>
      </trkpt>
      <trkpt lat="47.1954" lon="3.00192">
        <ele>800.92</ele>
        <time>2012-05-03T14:19:53Z</time>
      </trkpt>
      <trkpt lat="47.19768" lon="3.00172">
        <ele>793.71</ele>
        <time>2012-05-03T14:19:59Z</time>
      </trkpt>
      <trkpt lat="47.20051" lon="3.00128">
        <ele>771.11</ele>
        <time>2012-05-03T14:20:06Z</time>
      </trkpt>
      <trkpt lat="47.20368" lon="3.00033">
        <ele>771.6</ele>
        <time>2012-05-03T14:20:14Z</time>
      </trkpt>
      <trkpt lat="47.2065" lon="2.99891">
        <ele>779.77</ele>
        <time>2012-05-03T14:20:22Z</time>
      </trkpt>
      <trkpt lat="47.21058" lon="2.99624">
        <ele>781.69</ele>
        <time>2012-05-03T14:20:34Z</time>
      </trkpt>
      <trkpt lat="47.21279" lon="2.9949">
        <ele>775.44</ele>
        <time>2012-05-03T14:20:40Z</time>
      </trkpt>
      <trkpt lat="47.21568" lon="2.99352">
        <ele>774.48</ele>
        <time>2012-05-03T14:20:48Z</time>
      </trkpt>
      <trkpt lat="47.21942" lon="2.99166">
        <ele>790.34</ele>
        <time>2012-05-03T14:20:59Z</time>
      </trkpt>
      <trkpt lat="47.22205" lon="2.99007">
        <ele>800.44</ele>
        <time>2012-05-03T14:21:07Z</time>
      </trkpt>
      <trkpt lat="47.22471" lon="2.98881">
        <ele>825.43</ele>
        <time>2012-05-03T14:21:15Z</time>
      </trkpt>
      <trkpt lat="47.22695" lon="2.98738">
        <ele>827.83</ele>
        <time>2012-05-03T14:21:22Z</time>
      </trkpt>
      <trkpt lat="47.22965" lon="2.98598">
        <ele>837.93</ele>
        <time>2012-05-03T14:21:30Z</time>
      </trkpt>
      <trkpt lat="47.23253" lon="2.98421">
        <ele>835.52</ele>
        <time>2012-05-03T14:21:39Z</time>
      </trkpt>
      <trkpt lat="47.23544" lon="2.98284">
        <ele>822.06</ele>
        <time>2012-05-03T14:21:47Z</time>
      </trkpt>
      <trkpt lat="47.23938" lon="2.98046">
        <ele>800.44</ele>
        <time>2012-05-03T14:21:58Z</time>
      </trkpt>
      <trkpt lat="47.24327" lon="2.97793">
        <ele>754.29</ele>
        <time>2012-05-03T14:22:08Z</time>
      </trkpt>
      <trkpt lat="47.2468" lon="2.97639">
        <ele>712.47</ele>
        <time>2012-05-03T14:22:16Z</time>
      </trkpt>
      <trkpt lat="47.24765" lon="2.9759">
        <ele>702.86</ele>
        <time>2012-05-03T14:22:18Z</time>
      </trkpt>
      <trkpt lat="47.25111" lon="2.9728">
        <ele>660.56</ele>
        <time>2012-05-03T14:22:27Z</time>
      </trkpt>
      <trkpt lat="47.25446" lon="2.96961">
        <ele>615.86</ele>
        <time>2012-05-03T14:22:36Z</time>
      </trkpt>
      <trkpt lat="47.25729" lon="2.96713">
        <ele>598.08</ele>
        <time>2012-05-03T14:22:44Z</time>
      </trkpt>
      <trkpt lat="47.25921" lon="2.96638">
        <ele>611.06</ele>
        <time>2012-05-03T14:22:49Z</time>
      </trkpt>
      <trkpt lat="47.26136" lon="2.96572">
        <ele>629.32</ele>
        <time>2012-05-03T14:22:55Z</time>
      </trkpt>
      <trkpt lat="47.26278" lon="2.96474">
        <ele>640.38</ele>
        <time>2012-05-03T14:23:00Z</time>
      </trkpt>
      <trkpt lat="47.26527" lon="2.96271">
        <ele>650.47</ele>
        <time>2012-05-03T14:23:09Z</time>
      </trkpt>
      <trkpt lat="47.26788" lon="2.96054">
        <ele>653.35</ele>
        <time>2012-05-03T14:23:18Z</time>
      </trkpt>
      <trkpt lat="47.27075" lon="2.9586">
        <ele>659.6</ele>
        <time>2012-05-03T14:23:27Z</time>
      </trkpt>
      <trkpt lat="47.27238" lon="2.95781">
        <ele>667.29</ele>
        <time>2012-05-03T14:23:32Z</time>
      </trkpt>
      <trkpt lat="47.27531" lon="2.9553">
        <ele>698.53</ele>
        <time>2012-05-03T14:23:43Z</time>
      </trkpt>
      <trkpt lat="47.27755" lon="2.95364">
        <ele>710.07</ele>
        <time>2012-05-03T14:23:51Z</time>
      </trkpt>
      <trkpt lat="47.2799" lon="2.95219">
        <ele>721.13</ele>
        <time>2012-05-03T14:23:59Z</time>
      </trkpt>
      <trkpt lat="47.28386" lon="2.95009">
        <ele>749</ele>
        <time>2012-05-03T14:24:12Z</time>
      </trkpt>
      <trkpt lat="47.28611" lon="2.94944">
        <ele>764.87</ele>
        <time>2012-05-03T14:24:19Z</time>
      </trkpt>
      <trkpt lat="47.28828" lon="2.9485">
        <ele>775.92</ele>
        <time>2012-05-03T14:24:26Z</time>
      </trkpt>
      <trkpt lat="47.29064" lon="2.94704">
        <ele>788.42</ele>
        <time>2012-05-03T14:24:34Z</time>
      </trkpt>
      <trkpt lat="47.29288" lon="2.94494">
        <ele>811.01</ele>
        <time>2012-05-03T14:24:42Z</time>
      </trkpt>
      <trkpt lat="47.29503" lon="2.94336">
        <ele>838.89</ele>
        <time>2012-05-03T14:24:49Z</time>
      </trkpt>
      <trkpt lat="47.2983" lon="2.94089">
        <ele>858.59</ele>
        <time>2012-05-03T14:25:00Z</time>
      </trkpt>
      <trkpt lat="47.3014" lon="2.93921">
        <ele>849.94</ele>
        <time>2012-05-03T14:25:09Z</time>
      </trkpt>
      <trkpt lat="47.30459" lon="2.93727">
        <ele>841.29</ele>
        <time>2012-05-03T14:25:18Z</time>
      </trkpt>
      <trkpt lat="47.30684" lon="2.93635">
        <ele>837.93</ele>
        <time>2012-05-03T14:25:24Z</time>
      </trkpt>
      <trkpt lat="47.3083" lon="2.93584">
        <ele>839.85</ele>
        <time>2012-05-03T14:25:28Z</time>
      </trkpt>
      <trkpt lat="47.30983" lon="2.93444">
        <ele>839.85</ele>
        <time>2012-05-03T14:25:33Z</time>
      </trkpt>
      <trkpt lat="47.31198" lon="2.93135">
        <ele>834.08</ele>
        <time>2012-05-03T14:25:41Z</time>
      </trkpt>
      <trkpt lat="47.31408" lon="2.9292">
        <ele>838.89</ele>
        <time>2012-05-03T14:25:48Z</time>
      </trkpt>
      <trkpt lat="47.3171" lon="2.92665">
        <ele>851.38</ele>
        <time>2012-05-03T14:25:58Z</time>
      </trkpt>
      <trkpt lat="47.32091" lon="2.92385">
        <ele>853.31</ele>
        <time>2012-05-03T14:26:10Z</time>
      </trkpt>
      <trkpt lat="47.32429" lon="2.92109">
        <ele>860.04</ele>
        <time>2012-05-03T14:26:21Z</time>
      </trkpt>
      <trkpt lat="47.3267" lon="2.91944">
        <ele>853.31</ele>
        <time>2012-05-03T14:26:28Z</time>
      </trkpt>
      <trkpt lat="47.32936" lon="2.91826">
        <ele>845.14</ele>
        <time>2012-05-03T14:26:35Z</time>
      </trkpt>
      <trkpt lat="47.3318" lon="2.91653">
        <ele>848.5</ele>
        <time>2012-05-03T14:26:42Z</time>
      </trkpt>
      <trkpt lat="47.33526" lon="2.91396">
        <ele>865.8</ele>
        <time>2012-05-03T14:26:52Z</time>
      </trkpt>
      <trkpt lat="47.33832" lon="2.91224">
        <ele>878.3</ele>
        <time>2012-05-03T14:27:01Z</time>
      </trkpt>
      <trkpt lat="47.34134" lon="2.91035">
        <ele>866.77</ele>
        <time>2012-05-03T14:27:10Z</time>
      </trkpt>
      <trkpt lat="47.34448" lon="2.9087">
        <ele>849.94</ele>
        <time>2012-05-03T14:27:19Z</time>
      </trkpt>
      <trkpt lat="47.34733" lon="2.9067">
        <ele>836.96</ele>
        <time>2012-05-03T14:27:27Z</time>
      </trkpt>
      <trkpt lat="47.3513" lon="2.90415">
        <ele>851.38</ele>
        <time>2012-05-03T14:27:38Z</time>
      </trkpt>
      <trkpt lat="47.35424" lon="2.90212">
        <ele>868.69</ele>
        <time>2012-05-03T14:27:47Z</time>
      </trkpt>
      <trkpt lat="47.35843" lon="2.89918">
        <ele>871.57</ele>
        <time>2012-05-03T14:27:59Z</time>
      </trkpt>
      <trkpt lat="47.36169" lon="2.89714">
        <ele>850.9</ele>
        <time>2012-05-03T14:28:07Z</time>
      </trkpt>
      <trkpt lat="47.365" lon="2.89519">
        <ele>843.21</ele>
        <time>2012-05-03T14:28:15Z</time>
      </trkpt>
      <trkpt lat="47.36767" lon="2.89287">
        <ele>830.72</ele>
        <time>2012-05-03T14:28:22Z</time>
      </trkpt>
      <trkpt lat="47.37075" lon="2.89089">
        <ele>820.62</ele>
        <time>2012-05-03T14:28:30Z</time>
      </trkpt>
      <trkpt lat="47.3743" lon="2.88875">
        <ele>800.92</ele>
        <time>2012-05-03T14:28:39Z</time>
      </trkpt>
      <trkpt lat="47.3769" lon="2.88714">
        <ele>798.99</ele>
        <time>2012-05-03T14:28:46Z</time>
      </trkpt>
      <trkpt lat="47.37924" lon="2.88564">
        <ele>808.13</ele>
        <time>2012-05-03T14:28:53Z</time>
      </trkpt>
      <trkpt lat="47.38097" lon="2.8837">
        <ele>814.85</ele>
        <time>2012-05-03T14:28:59Z</time>
      </trkpt>
      <trkpt lat="47.38375" lon="2.8802">
        <ele>821.1</ele>
        <time>2012-05-03T14:29:09Z</time>
      </trkpt>
      <trkpt lat="47.38693" lon="2.87761">
        <ele>823.03</ele>
        <time>2012-05-03T14:29:19Z</time>
      </trkpt>
      <trkpt lat="47.38971" lon="2.87489">
        <ele>826.39</ele>
        <time>2012-05-03T14:29:28Z</time>
      </trkpt>
      <trkpt lat="47.39166" lon="2.87212">
        <ele>822.55</ele>
        <time>2012-05-03T14:29:35Z</time>
      </trkpt>
      <trkpt lat="47.39388" lon="2.86878">
        <ele>823.51</ele>
        <time>2012-05-03T14:29:44Z</time>
      </trkpt>
      <trkpt lat="47.39526" lon="2.86621">
        <ele>823.51</ele>
        <time>2012-05-03T14:29:51Z</time>
      </trkpt>
      <trkpt lat="47.39702" lon="2.86359">
        <ele>833.12</ele>
        <time>2012-05-03T14:29:59Z</time>
      </trkpt>
      <trkpt lat="47.39877" lon="2.86044">
        <ele>847.06</ele>
        <time>2012-05-03T14:30:08Z</time>
      </trkpt>
      <trkpt lat="47.40038" lon="2.85826">
        <ele>855.71</ele>
        <time>2012-05-03T14:30:15Z</time>
      </trkpt>
      <trkpt lat="47.40162" lon="2.85616">
        <ele>860.52</ele>
        <time>2012-05-03T14:30:21Z</time>
      </trkpt>
      <trkpt lat="47.40342" lon="2.85327">
        <ele>863.88</ele>
        <time>2012-05-03T14:30:29Z</time>
      </trkpt>
      <trkpt lat="47.40577" lon="2.84954">
        <ele>870.61</ele>
        <time>2012-05-03T14:30:39Z</time>
      </trkpt>
      <trkpt lat="47.40792" lon="2.84637">
        <ele>885.99</ele>
        <time>2012-05-03T14:30:48Z</time>
      </trkpt>
      <trkpt lat="47.40994" lon="2.84336">
        <ele>896.09</ele>
        <time>2012-05-03T14:30:56Z</time>
      </trkpt>
      <trkpt lat="47.41183" lon="2.8412">
        <ele>913.39</ele>
        <time>2012-05-03T14:31:03Z</time>
      </trkpt>
      <trkpt lat="47.41439" lon="2.83792">
        <ele>938.86</ele>
        <time>2012-05-03T14:31:13Z</time>
      </trkpt>
      <trkpt lat="47.41623" lon="2.83615">
        <ele>943.19</ele>
        <time>2012-05-03T14:31:19Z</time>
      </trkpt>
      <trkpt lat="47.41851" lon="2.83483">
        <ele>955.21</ele>
        <time>2012-05-03T14:31:26Z</time>
      </trkpt>
      <trkpt lat="47.42207" lon="2.8325">
        <ele>971.55</ele>
        <time>2012-05-03T14:31:37Z</time>
      </trkpt>
      <trkpt lat="47.42609" lon="2.83008">
        <ele>969.63</ele>
        <time>2012-05-03T14:31:49Z</time>
      </trkpt>
      <trkpt lat="47.43035" lon="2.82723">
        <ele>968.67</ele>
        <time>2012-05-03T14:32:02Z</time>
      </trkpt>
      <trkpt lat="47.43241" lon="2.82521">
        <ele>968.18</ele>
        <time>2012-05-03T14:32:09Z</time>
      </trkpt>
      <trkpt lat="47.43473" lon="2.82299">
        <ele>970.59</ele>
        <time>2012-05-03T14:32:17Z</time>
      </trkpt>
      <trkpt lat="47.43801" lon="2.81979">
        <ele>958.57</ele>
        <time>2012-05-03T14:32:28Z</time>
      </trkpt>
      <trkpt lat="47.44053" lon="2.8179">
        <ele>942.71</ele>
        <time>2012-05-03T14:32:35Z</time>
      </trkpt>
      <trkpt lat="47.44308" lon="2.81605">
        <ele>939.83</ele>
        <time>2012-05-03T14:32:42Z</time>
      </trkpt>
      <trkpt lat="47.44549" lon="2.81403">
        <ele>923.48</ele>
        <time>2012-05-03T14:32:48Z</time>
      </trkpt>
      <trkpt lat="47.44872" lon="2.81171">
        <ele>890.32</ele>
        <time>2012-05-03T14:32:56Z</time>
      </trkpt>
      <trkpt lat="47.45262" lon="2.80893">
        <ele>862.92</ele>
        <time>2012-05-03T14:33:06Z</time>
      </trkpt>
      <trkpt lat="47.45605" lon="2.80641">
        <ele>847.06</ele>
        <time>2012-05-03T14:33:15Z</time>
      </trkpt>
      <trkpt lat="47.45875" lon="2.80362">
        <ele>839.85</ele>
        <time>2012-05-03T14:33:23Z</time>
      </trkpt>
      <trkpt lat="47.46203" lon="2.80004">
        <ele>824.47</ele>
        <time>2012-05-03T14:33:33Z</time>
      </trkpt>
      <trkpt lat="47.46494" lon="2.79696">
        <ele>818.7</ele>
        <time>2012-05-03T14:33:42Z</time>
      </trkpt>
      <trkpt lat="47.46721" lon="2.79496">
        <ele>806.68</ele>
        <time>2012-05-03T14:33:48Z</time>
      </trkpt>
      <trkpt lat="47.47117" lon="2.79183">
        <ele>771.6</ele>
        <time>2012-05-03T14:33:58Z</time>
      </trkpt>
      <trkpt lat="47.47405" lon="2.78988">
        <ele>762.94</ele>
        <time>2012-05-03T14:34:05Z</time>
      </trkpt>
      <trkpt lat="47.47746" lon="2.78688">
        <ele>764.39</ele>
        <time>2012-05-03T14:34:14Z</time>
      </trkpt>
      <trkpt lat="47.48169" lon="2.78333">
        <ele>740.35</ele>
        <time>2012-05-03T14:34:25Z</time>
      </trkpt>
      <trkpt lat="47.4851" lon="2.78076">
        <ele>739.39</ele>
        <time>2012-05-03T14:34:34Z</time>
      </trkpt>
      <trkpt lat="47.48751" lon="2.77878">
        <ele>741.79</ele>
        <time>2012-05-03T14:34:41Z</time>
      </trkpt>
      <trkpt lat="47.49052" lon="2.77594">
        <ele>750.45</ele>
        <time>2012-05-03T14:34:51Z</time>
      </trkpt>
      <trkpt lat="47.49205" lon="2.77367">
        <ele>747.08</ele>
        <time>2012-05-03T14:34:57Z</time>
      </trkpt>
      <trkpt lat="47.49364" lon="2.77017">
        <ele>744.68</ele>
        <time>2012-05-03T14:35:05Z</time>
      </trkpt>
      <trkpt lat="47.49452" lon="2.7668">
        <ele>748.04</ele>
        <time>2012-05-03T14:35:12Z</time>
      </trkpt>
      <trkpt lat="47.49553" lon="2.76416">
        <ele>758.14</ele>
        <time>2012-05-03T14:35:18Z</time>
      </trkpt>
      <trkpt lat="47.49661" lon="2.76287">
        <ele>764.87</ele>
        <time>2012-05-03T14:35:22Z</time>
      </trkpt>
      <trkpt lat="47.49911" lon="2.76118">
        <ele>781.69</ele>
        <time>2012-05-03T14:35:30Z</time>
      </trkpt>
      <trkpt lat="47.50134" lon="2.75938">
        <ele>780.73</ele>
        <time>2012-05-03T14:35:37Z</time>
      </trkpt>
      <trkpt lat="47.5045" lon="2.75656">
        <ele>784.57</ele>
        <time>2012-05-03T14:35:47Z</time>
      </trkpt>
      <trkpt lat="47.50675" lon="2.75407">
        <ele>783.13</ele>
        <time>2012-05-03T14:35:54Z</time>
      </trkpt>
      <trkpt lat="47.50943" lon="2.75155">
        <ele>791.3</ele>
        <time>2012-05-03T14:36:02Z</time>
      </trkpt>
      <trkpt lat="47.51248" lon="2.74875">
        <ele>790.34</ele>
        <time>2012-05-03T14:36:11Z</time>
      </trkpt>
      <trkpt lat="47.51528" lon="2.74673">
        <ele>795.63</ele>
        <time>2012-05-03T14:36:19Z</time>
      </trkpt>
      <trkpt lat="47.51938" lon="2.74382">
        <ele>789.86</ele>
        <time>2012-05-03T14:36:31Z</time>
      </trkpt>
      <trkpt lat="47.52239" lon="2.74172">
        <ele>789.38</ele>
        <time>2012-05-03T14:36:40Z</time>
      </trkpt>
      <trkpt lat="47.52559" lon="2.73981">
        <ele>790.34</ele>
        <time>2012-05-03T14:36:49Z</time>
      </trkpt>
      <trkpt lat="47.52882" lon="2.73817">
        <ele>787.94</ele>
        <time>2012-05-03T14:36:58Z</time>
      </trkpt>
      <trkpt lat="47.53201" lon="2.73612">
        <ele>785.05</ele>
        <time>2012-05-03T14:37:07Z</time>
      </trkpt>
      <trkpt lat="47.53536" lon="2.73385">
        <ele>786.98</ele>
        <time>2012-05-03T14:37:16Z</time>
      </trkpt>
      <trkpt lat="47.53867" lon="2.73137">
        <ele>791.3</ele>
        <time>2012-05-03T14:37:25Z</time>
      </trkpt>
      <trkpt lat="47.54142" lon="2.72957">
        <ele>790.34</ele>
        <time>2012-05-03T14:37:32Z</time>
      </trkpt>
      <trkpt lat="47.54384" lon="2.72896">
        <ele>794.19</ele>
        <time>2012-05-03T14:37:38Z</time>
      </trkpt>
      <trkpt lat="47.54743" lon="2.72803">
        <ele>792.26</ele>
        <time>2012-05-03T14:37:47Z</time>
      </trkpt>
      <trkpt lat="47.54974" lon="2.72666">
        <ele>785.53</ele>
        <time>2012-05-03T14:37:53Z</time>
      </trkpt>
      <trkpt lat="47.55201" lon="2.72495">
        <ele>774.96</ele>
        <time>2012-05-03T14:37:59Z</time>
      </trkpt>
      <trkpt lat="47.55454" lon="2.72358">
        <ele>782.65</ele>
        <time>2012-05-03T14:38:06Z</time>
      </trkpt>
      <trkpt lat="47.55664" lon="2.72202">
        <ele>785.05</ele>
        <time>2012-05-03T14:38:12Z</time>
      </trkpt>
      <trkpt lat="47.55988" lon="2.7194">
        <ele>786.5</ele>
        <time>2012-05-03T14:38:21Z</time>
      </trkpt>
      <trkpt lat="47.56297" lon="2.71689">
        <ele>792.26</ele>
        <time>2012-05-03T14:38:30Z</time>
      </trkpt>
      <trkpt lat="47.56589" lon="2.71394">
        <ele>799.95</ele>
        <time>2012-05-03T14:38:39Z</time>
      </trkpt>
      <trkpt lat="47.56889" lon="2.71121">
        <ele>805.24</ele>
        <time>2012-05-03T14:38:48Z</time>
      </trkpt>
      <trkpt lat="47.57219" lon="2.70807">
        <ele>811.49</ele>
        <time>2012-05-03T14:38:58Z</time>
      </trkpt>
      <trkpt lat="47.57566" lon="2.70531">
        <ele>819.18</ele>
        <time>2012-05-03T14:39:08Z</time>
      </trkpt>
      <trkpt lat="47.57881" lon="2.703">
        <ele>824.95</ele>
        <time>2012-05-03T14:39:17Z</time>
      </trkpt>
      <trkpt lat="47.58224" lon="2.70069">
        <ele>838.89</ele>
        <time>2012-05-03T14:39:27Z</time>
      </trkpt>
      <trkpt lat="47.58604" lon="2.69825">
        <ele>850.42</ele>
        <time>2012-05-03T14:39:38Z</time>
      </trkpt>
      <trkpt lat="47.58913" lon="2.69575">
        <ele>853.79</ele>
        <time>2012-05-03T14:39:47Z</time>
      </trkpt>
      <trkpt lat="47.59207" lon="2.6938">
        <ele>865.32</ele>
        <time>2012-05-03T14:39:55Z</time>
      </trkpt>
      <trkpt lat="47.59516" lon="2.69166">
        <ele>895.12</ele>
        <time>2012-05-03T14:40:04Z</time>
      </trkpt>
      <trkpt lat="47.59851" lon="2.68915">
        <ele>928.77</ele>
        <time>2012-05-03T14:40:14Z</time>
      </trkpt>
      <trkpt lat="47.60098" lon="2.68793">
        <ele>952.8</ele>
        <time>2012-05-03T14:40:21Z</time>
      </trkpt>
      <trkpt lat="47.60375" lon="2.68597">
        <ele>973.47</ele>
        <time>2012-05-03T14:40:29Z</time>
      </trkpt>
      <trkpt lat="47.60725" lon="2.68367">
        <ele>993.66</ele>
        <time>2012-05-03T14:40:39Z</time>
      </trkpt>
      <trkpt lat="47.6102" lon="2.68196">
        <ele>998.95</ele>
        <time>2012-05-03T14:40:47Z</time>
      </trkpt>
      <trkpt lat="47.61299" lon="2.68143">
        <ele>1005.68</ele>
        <time>2012-05-03T14:40:54Z</time>
      </trkpt>
      <trkpt lat="47.61677" lon="2.681">
        <ele>1008.08</ele>
        <time>2012-05-03T14:41:03Z</time>
      </trkpt>
      <trkpt lat="47.62114" lon="2.68048">
        <ele>1009.04</ele>
        <time>2012-05-03T14:41:13Z</time>
      </trkpt>
      <trkpt lat="47.62419" lon="2.68046">
        <ele>1009.04</ele>
        <time>2012-05-03T14:41:20Z</time>
      </trkpt>
      <trkpt lat="47.62695" lon="2.68035">
        <ele>1004.23</ele>
        <time>2012-05-03T14:41:26Z</time>
      </trkpt>
      <trkpt lat="47.6301" lon="2.67955">
        <ele>993.18</ele>
        <time>2012-05-03T14:41:33Z</time>
      </trkpt>
      <trkpt lat="47.63328" lon="2.67864">
        <ele>970.11</ele>
        <time>2012-05-03T14:41:40Z</time>
      </trkpt>
      <trkpt lat="47.63567" lon="2.67872">
        <ele>956.17</ele>
        <time>2012-05-03T14:41:45Z</time>
      </trkpt>
      <trkpt lat="47.63876" lon="2.67931">
        <ele>936.46</ele>
        <time>2012-05-03T14:41:52Z</time>
      </trkpt>
      <trkpt lat="47.64006" lon="2.67945">
        <ele>929.25</ele>
        <time>2012-05-03T14:41:55Z</time>
      </trkpt>
      <trkpt lat="47.64139" lon="2.67941">
        <ele>921.08</ele>
        <time>2012-05-03T14:41:58Z</time>
      </trkpt>
      <trkpt lat="47.64339" lon="2.67877">
        <ele>909.54</ele>
        <time>2012-05-03T14:42:02Z</time>
      </trkpt>
      <trkpt lat="47.64658" lon="2.67784">
        <ele>876.86</ele>
        <time>2012-05-03T14:42:09Z</time>
      </trkpt>
      <trkpt lat="47.64953" lon="2.67748">
        <ele>849.46</ele>
        <time>2012-05-03T14:42:16Z</time>
      </trkpt>
      <trkpt lat="47.65227" lon="2.67652">
        <ele>805.72</ele>
        <time>2012-05-03T14:42:23Z</time>
      </trkpt>
      <trkpt lat="47.65564" lon="2.67551">
        <ele>772.08</ele>
        <time>2012-05-03T14:42:32Z</time>
      </trkpt>
      <trkpt lat="47.65881" lon="2.67426">
        <ele>751.41</ele>
        <time>2012-05-03T14:42:40Z</time>
      </trkpt>
      <trkpt lat="47.66286" lon="2.67285">
        <ele>752.37</ele>
        <time>2012-05-03T14:42:50Z</time>
      </trkpt>
      <trkpt lat="47.66595" lon="2.67163">
        <ele>761.98</ele>
        <time>2012-05-03T14:42:58Z</time>
      </trkpt>
      <trkpt lat="47.66936" lon="2.66972">
        <ele>749.49</ele>
        <time>2012-05-03T14:43:07Z</time>
      </trkpt>
      <trkpt lat="47.67272" lon="2.66769">
        <ele>750.93</ele>
        <time>2012-05-03T14:43:16Z</time>
      </trkpt>
      <trkpt lat="47.67545" lon="2.66635">
        <ele>782.17</ele>
        <time>2012-05-03T14:43:24Z</time>
      </trkpt>
      <trkpt lat="47.67772" lon="2.66458">
        <ele>791.3</ele>
        <time>2012-05-03T14:43:31Z</time>
      </trkpt>
      <trkpt lat="47.68005" lon="2.66286">
        <ele>786.98</ele>
        <time>2012-05-03T14:43:38Z</time>
      </trkpt>
      <trkpt lat="47.6826" lon="2.66068">
        <ele>786.5</ele>
        <time>2012-05-03T14:43:46Z</time>
      </trkpt>
      <trkpt lat="47.68441" lon="2.65937">
        <ele>775.92</ele>
        <time>2012-05-03T14:43:51Z</time>
      </trkpt>
      <trkpt lat="47.68639" lon="2.65874">
        <ele>770.63</ele>
        <time>2012-05-03T14:43:56Z</time>
      </trkpt>
      <trkpt lat="47.68715" lon="2.65858">
        <ele>771.11</ele>
        <time>2012-05-03T14:43:58Z</time>
      </trkpt>
      <trkpt lat="47.69006" lon="2.65755">
        <ele>761.5</ele>
        <time>2012-05-03T14:44:06Z</time>
      </trkpt>
      <trkpt lat="47.69269" lon="2.65708">
        <ele>759.1</ele>
        <time>2012-05-03T14:44:13Z</time>
      </trkpt>
      <trkpt lat="47.69477" lon="2.65679">
        <ele>751.89</ele>
        <time>2012-05-03T14:44:18Z</time>
      </trkpt>
      <trkpt lat="47.69884" lon="2.65669">
        <ele>754.29</ele>
        <time>2012-05-03T14:44:28Z</time>
      </trkpt>
      <trkpt lat="47.70197" lon="2.65614">
        <ele>755.73</ele>
        <time>2012-05-03T14:44:36Z</time>
      </trkpt>
      <trkpt lat="47.70625" lon="2.65517">
        <ele>755.25</ele>
        <time>2012-05-03T14:44:47Z</time>
      </trkpt>
      <trkpt lat="47.70859" lon="2.65429">
        <ele>753.33</ele>
        <time>2012-05-03T14:44:53Z</time>
      </trkpt>
      <trkpt lat="47.71201" lon="2.65341">
        <ele>759.58</ele>
        <time>2012-05-03T14:45:02Z</time>
      </trkpt>
      <trkpt lat="47.71426" lon="2.65299">
        <ele>766.31</ele>
        <time>2012-05-03T14:45:08Z</time>
      </trkpt>
      <trkpt lat="47.71648" lon="2.65128">
        <ele>754.29</ele>
        <time>2012-05-03T14:45:14Z</time>
      </trkpt>
      <trkpt lat="47.71866" lon="2.64865">
        <ele>744.68</ele>
        <time>2012-05-03T14:45:21Z</time>
      </trkpt>
      <trkpt lat="47.72095" lon="2.64553">
        <ele>752.37</ele>
        <time>2012-05-03T14:45:29Z</time>
      </trkpt>
      <trkpt lat="47.72245" lon="2.64243">
        <ele>746.12</ele>
        <time>2012-05-03T14:45:35Z</time>
      </trkpt>
      <trkpt lat="47.72423" lon="2.63888">
        <ele>742.28</ele>
        <time>2012-05-03T14:45:42Z</time>
      </trkpt>
      <trkpt lat="47.727" lon="2.63405">
        <ele>742.76</ele>
        <time>2012-05-03T14:45:52Z</time>
      </trkpt>
      <trkpt lat="47.72982" lon="2.62979">
        <ele>747.08</ele>
        <time>2012-05-03T14:46:02Z</time>
      </trkpt>
      <trkpt lat="47.73251" lon="2.62654">
        <ele>750.45</ele>
        <time>2012-05-03T14:46:11Z</time>
      </trkpt>
      <trkpt lat="47.73579" lon="2.62306">
        <ele>762.46</ele>
        <time>2012-05-03T14:46:22Z</time>
      </trkpt>
      <trkpt lat="47.73961" lon="2.61896">
        <ele>761.02</ele>
        <time>2012-05-03T14:46:34Z</time>
      </trkpt>
      <trkpt lat="47.74341" lon="2.61483">
        <ele>767.75</ele>
        <time>2012-05-03T14:46:46Z</time>
      </trkpt>
      <trkpt lat="47.74586" lon="2.61182">
        <ele>770.15</ele>
        <time>2012-05-03T14:46:54Z</time>
      </trkpt>
      <trkpt lat="47.74784" lon="2.61015">
        <ele>779.29</ele>
        <time>2012-05-03T14:47:00Z</time>
      </trkpt>
      <trkpt lat="47.75032" lon="2.60828">
        <ele>778.81</ele>
        <time>2012-05-03T14:47:07Z</time>
      </trkpt>
      <trkpt lat="47.75296" lon="2.6052">
        <ele>760.06</ele>
        <time>2012-05-03T14:47:15Z</time>
      </trkpt>
      <trkpt lat="47.7556" lon="2.60257">
        <ele>743.24</ele>
        <time>2012-05-03T14:47:23Z</time>
      </trkpt>
      <trkpt lat="47.75879" lon="2.59933">
        <ele>740.83</ele>
        <time>2012-05-03T14:47:33Z</time>
      </trkpt>
      <trkpt lat="47.76193" lon="2.59639">
        <ele>734.58</ele>
        <time>2012-05-03T14:47:43Z</time>
      </trkpt>
      <trkpt lat="47.76516" lon="2.5936">
        <ele>727.86</ele>
        <time>2012-05-03T14:47:53Z</time>
      </trkpt>
      <trkpt lat="47.76815" lon="2.59091">
        <ele>734.58</ele>
        <time>2012-05-03T14:48:02Z</time>
      </trkpt>
      <trkpt lat="47.77139" lon="2.58858">
        <ele>741.79</ele>
        <time>2012-05-03T14:48:11Z</time>
      </trkpt>
      <trkpt lat="47.77401" lon="2.58645">
        <ele>736.99</ele>
        <time>2012-05-03T14:48:18Z</time>
      </trkpt>
      <trkpt lat="47.77668" lon="2.58443">
        <ele>727.86</ele>
        <time>2012-05-03T14:48:25Z</time>
      </trkpt>
      <trkpt lat="47.77839" lon="2.58299">
        <ele>717.76</ele>
        <time>2012-05-03T14:48:29Z</time>
      </trkpt>
      <trkpt lat="47.78039" lon="2.58172">
        <ele>709.11</ele>
        <time>2012-05-03T14:48:34Z</time>
      </trkpt>
      <trkpt lat="47.78297" lon="2.5803">
        <ele>710.55</ele>
        <time>2012-05-03T14:48:41Z</time>
      </trkpt>
      <trkpt lat="47.7855" lon="2.57875">
        <ele>703.82</ele>
        <time>2012-05-03T14:48:48Z</time>
      </trkpt>
      <trkpt lat="47.78795" lon="2.57743">
        <ele>704.78</ele>
        <time>2012-05-03T14:48:55Z</time>
      </trkpt>
      <trkpt lat="47.79019" lon="2.57596">
        <ele>701.42</ele>
        <time>2012-05-03T14:49:01Z</time>
      </trkpt>
      <trkpt lat="47.79305" lon="2.57515">
        <ele>693.73</ele>
        <time>2012-05-03T14:49:08Z</time>
      </trkpt>
      <trkpt lat="47.79563" lon="2.5741">
        <ele>682.67</ele>
        <time>2012-05-03T14:49:15Z</time>
      </trkpt>
      <trkpt lat="47.79744" lon="2.57261">
        <ele>679.79</ele>
        <time>2012-05-03T14:49:21Z</time>
      </trkpt>
      <trkpt lat="47.79959" lon="2.57112">
        <ele>680.75</ele>
        <time>2012-05-03T14:49:28Z</time>
      </trkpt>
      <trkpt lat="47.8026" lon="2.56922">
        <ele>664.89</ele>
        <time>2012-05-03T14:49:37Z</time>
      </trkpt>
      <trkpt lat="47.80555" lon="2.56727">
        <ele>655.76</ele>
        <time>2012-05-03T14:49:46Z</time>
      </trkpt>
      <trkpt lat="47.80789" lon="2.56478">
        <ele>649.03</ele>
        <time>2012-05-03T14:49:54Z</time>
      </trkpt>
      <trkpt lat="47.80985" lon="2.56316">
        <ele>646.62</ele>
        <time>2012-05-03T14:50:00Z</time>
      </trkpt>
      <trkpt lat="47.81311" lon="2.56072">
        <ele>630.28</ele>
        <time>2012-05-03T14:50:09Z</time>
      </trkpt>
      <trkpt lat="47.81635" lon="2.55794">
        <ele>624.51</ele>
        <time>2012-05-03T14:50:18Z</time>
      </trkpt>
      <trkpt lat="47.81807" lon="2.55685">
        <ele>626.44</ele>
        <time>2012-05-03T14:50:23Z</time>
      </trkpt>
      <trkpt lat="47.82077" lon="2.55512">
        <ele>630.76</ele>
        <time>2012-05-03T14:50:31Z</time>
      </trkpt>
      <trkpt lat="47.82454" lon="2.55302">
        <ele>632.68</ele>
        <time>2012-05-03T14:50:42Z</time>
      </trkpt>
      <trkpt lat="47.82749" lon="2.5518">
        <ele>650.47</ele>
        <time>2012-05-03T14:50:51Z</time>
      </trkpt>
      <trkpt lat="47.8294" lon="2.5508">
        <ele>671.14</ele>
        <time>2012-05-03T14:50:57Z</time>
      </trkpt>
      <trkpt lat="47.83118" lon="2.54917">
        <ele>688.44</ele>
        <time>2012-05-03T14:51:03Z</time>
      </trkpt>
      <trkpt lat="47.83378" lon="2.54663">
        <ele>726.89</ele>
        <time>2012-05-03T14:51:12Z</time>
      </trkpt>
      <trkpt lat="47.83614" lon="2.54429">
        <ele>752.37</ele>
        <time>2012-05-03T14:51:20Z</time>
      </trkpt>
      <trkpt lat="47.83794" lon="2.54249">
        <ele>774.96</ele>
        <time>2012-05-03T14:51:26Z</time>
      </trkpt>
      <trkpt lat="47.84036" lon="2.53997">
        <ele>801.88</ele>
        <time>2012-05-03T14:51:34Z</time>
      </trkpt>
      <trkpt lat="47.84233" lon="2.53749">
        <ele>825.43</ele>
        <time>2012-05-03T14:51:41Z</time>
      </trkpt>
      <trkpt lat="47.84459" lon="2.53493">
        <ele>826.39</ele>
        <time>2012-05-03T14:51:49Z</time>
      </trkpt>
      <trkpt lat="47.84511" lon="2.53424">
        <ele>824.47</ele>
        <time>2012-05-03T14:51:51Z</time>
      </trkpt>
      <trkpt lat="47.84567" lon="2.5336">
        <ele>820.62</ele>
        <time>2012-05-03T14:51:53Z</time>
      </trkpt>
      <trkpt lat="47.84707" lon="2.53112">
        <ele>804.28</ele>
        <time>2012-05-03T14:51:59Z</time>
      </trkpt>
      <trkpt lat="47.8487" lon="2.52787">
        <ele>782.65</ele>
        <time>2012-05-03T14:52:06Z</time>
      </trkpt>
      <trkpt lat="47.85061" lon="2.52491">
        <ele>771.11</ele>
        <time>2012-05-03T14:52:13Z</time>
      </trkpt>
      <trkpt lat="47.85259" lon="2.52169">
        <ele>757.18</ele>
        <time>2012-05-03T14:52:20Z</time>
      </trkpt>
      <trkpt lat="47.85434" lon="2.51905">
        <ele>749</ele>
        <time>2012-05-03T14:52:26Z</time>
      </trkpt>
      <trkpt lat="47.85702" lon="2.51526">
        <ele>742.28</ele>
        <time>2012-05-03T14:52:35Z</time>
      </trkpt>
      <trkpt lat="47.86037" lon="2.5103">
        <ele>760.54</ele>
        <time>2012-05-03T14:52:47Z</time>
      </trkpt>
      <trkpt lat="47.86372" lon="2.50586">
        <ele>787.94</ele>
        <time>2012-05-03T14:52:59Z</time>
      </trkpt>
      <trkpt lat="47.86609" lon="2.50226">
        <ele>778.32</ele>
        <time>2012-05-03T14:53:08Z</time>
      </trkpt>
      <trkpt lat="47.86813" lon="2.49918">
        <ele>771.6</ele>
        <time>2012-05-03T14:53:16Z</time>
      </trkpt>
      <trkpt lat="47.87007" lon="2.49661">
        <ele>772.56</ele>
        <time>2012-05-03T14:53:24Z</time>
      </trkpt>
      <trkpt lat="47.87155" lon="2.494">
        <ele>773.04</ele>
        <time>2012-05-03T14:53:31Z</time>
      </trkpt>
      <trkpt lat="47.87295" lon="2.49152">
        <ele>774.48</ele>
        <time>2012-05-03T14:53:38Z</time>
      </trkpt>
      <trkpt lat="47.87509" lon="2.48747">
        <ele>772.56</ele>
        <time>2012-05-03T14:53:48Z</time>
      </trkpt>
      <trkpt lat="47.87661" lon="2.48525">
        <ele>773.52</ele>
        <time>2012-05-03T14:53:54Z</time>
      </trkpt>
      <trkpt lat="47.87757" lon="2.48387">
        <ele>782.17</ele>
        <time>2012-05-03T14:53:58Z</time>
      </trkpt>
      <trkpt lat="47.87913" lon="2.48107">
        <ele>792.26</ele>
        <time>2012-05-03T14:54:05Z</time>
      </trkpt>
      <trkpt lat="47.87932" lon="2.48071">
        <ele>793.71</ele>
        <time>2012-05-03T14:54:06Z</time>
      </trkpt>
      <trkpt lat="47.88064" lon="2.47844">
        <ele>804.28</ele>
        <time>2012-05-03T14:54:12Z</time>
      </trkpt>
      <trkpt lat="47.88265" lon="2.475">
        <ele>817.26</ele>
        <time>2012-05-03T14:54:21Z</time>
      </trkpt>
      <trkpt lat="47.88434" lon="2.47233">
        <ele>823.51</ele>
        <time>2012-05-03T14:54:28Z</time>
      </trkpt>
      <trkpt lat="47.88744" lon="2.46811">
        <ele>833.12</ele>
        <time>2012-05-03T14:54:40Z</time>
      </trkpt>
      <trkpt lat="47.88938" lon="2.46579">
        <ele>836.96</ele>
        <time>2012-05-03T14:54:47Z</time>
      </trkpt>
      <trkpt lat="47.89182" lon="2.46363">
        <ele>831.68</ele>
        <time>2012-05-03T14:54:55Z</time>
      </trkpt>
      <trkpt lat="47.89359" lon="2.46128">
        <ele>818.7</ele>
        <time>2012-05-03T14:55:01Z</time>
      </trkpt>
      <trkpt lat="47.89612" lon="2.45863">
        <ele>799.47</ele>
        <time>2012-05-03T14:55:09Z</time>
      </trkpt>
      <trkpt lat="47.89871" lon="2.45577">
        <ele>778.32</ele>
        <time>2012-05-03T14:55:17Z</time>
      </trkpt>
      <trkpt lat="47.9015" lon="2.45275">
        <ele>750.45</ele>
        <time>2012-05-03T14:55:25Z</time>
      </trkpt>
      <trkpt lat="47.90234" lon="2.45222">
        <ele>743.72</ele>
        <time>2012-05-03T14:55:27Z</time>
      </trkpt>
      <trkpt lat="47.90321" lon="2.45191">
        <ele>733.14</ele>
        <time>2012-05-03T14:55:29Z</time>
      </trkpt>
      <trkpt lat="47.9054" lon="2.4515">
        <ele>708.63</ele>
        <time>2012-05-03T14:55:34Z</time>
      </trkpt>
      <trkpt lat="47.90808" lon="2.45049">
        <ele>685.08</ele>
        <time>2012-05-03T14:55:41Z</time>
      </trkpt>
      <trkpt lat="47.91071" lon="2.44886">
        <ele>668.25</ele>
        <time>2012-05-03T14:55:49Z</time>
      </trkpt>
      <trkpt lat="47.91311" lon="2.44754">
        <ele>668.73</ele>
        <time>2012-05-03T14:55:56Z</time>
      </trkpt>
      <trkpt lat="47.91462" lon="2.44603">
        <ele>667.77</ele>
        <time>2012-05-03T14:56:01Z</time>
      </trkpt>
      <trkpt lat="47.91527" lon="2.4455">
        <ele>669.7</ele>
        <time>2012-05-03T14:56:03Z</time>
      </trkpt>
      <trkpt lat="47.91788" lon="2.44456">
        <ele>673.54</ele>
        <time>2012-05-03T14:56:10Z</time>
      </trkpt>
      <trkpt lat="47.92038" lon="2.44308">
        <ele>679.79</ele>
        <time>2012-05-03T14:56:17Z</time>
      </trkpt>
      <trkpt lat="47.92281" lon="2.44167">
        <ele>686.52</ele>
        <time>2012-05-03T14:56:24Z</time>
      </trkpt>
      <trkpt lat="47.92577" lon="2.43982">
        <ele>692.29</ele>
        <time>2012-05-03T14:56:32Z</time>
      </trkpt>
      <trkpt lat="47.92984" lon="2.4372">
        <ele>700.46</ele>
        <time>2012-05-03T14:56:43Z</time>
      </trkpt>
      <trkpt lat="47.93364" lon="2.4354">
        <ele>697.57</ele>
        <time>2012-05-03T14:56:53Z</time>
      </trkpt>
      <trkpt lat="47.93566" lon="2.43392">
        <ele>690.84</ele>
        <time>2012-05-03T14:56:59Z</time>
      </trkpt>
      <trkpt lat="47.93893" lon="2.43082">
        <ele>672.1</ele>
        <time>2012-05-03T14:57:09Z</time>
      </trkpt>
      <trkpt lat="47.94097" lon="2.42874">
        <ele>674.02</ele>
        <time>2012-05-03T14:57:16Z</time>
      </trkpt>
      <trkpt lat="47.94291" lon="2.42632">
        <ele>670.66</ele>
        <time>2012-05-03T14:57:24Z</time>
      </trkpt>
      <trkpt lat="47.9459" lon="2.42295">
        <ele>672.58</ele>
        <time>2012-05-03T14:57:35Z</time>
      </trkpt>
      <trkpt lat="47.94846" lon="2.42011">
        <ele>681.23</ele>
        <time>2012-05-03T14:57:44Z</time>
      </trkpt>
      <trkpt lat="47.95074" lon="2.41757">
        <ele>692.77</ele>
        <time>2012-05-03T14:57:52Z</time>
      </trkpt>
      <trkpt lat="47.95343" lon="2.41466">
        <ele>709.11</ele>
        <time>2012-05-03T14:58:01Z</time>
      </trkpt>
      <trkpt lat="47.95611" lon="2.41253">
        <ele>717.76</ele>
        <time>2012-05-03T14:58:09Z</time>
      </trkpt>
      <trkpt lat="47.95838" lon="2.41049">
        <ele>722.09</ele>
        <time>2012-05-03T14:58:16Z</time>
      </trkpt>
      <trkpt lat="47.96099" lon="2.40773">
        <ele>725.45</ele>
        <time>2012-05-03T14:58:24Z</time>
      </trkpt>
      <trkpt lat="47.96422" lon="2.40477">
        <ele>742.28</ele>
        <time>2012-05-03T14:58:34Z</time>
      </trkpt>
      <trkpt lat="47.96622" lon="2.40245">
        <ele>757.18</ele>
        <time>2012-05-03T14:58:41Z</time>
      </trkpt>
      <trkpt lat="47.96882" lon="2.39975">
        <ele>786.02</ele>
        <time>2012-05-03T14:58:50Z</time>
      </trkpt>
      <trkpt lat="47.97202" lon="2.39583">
        <ele>816.78</ele>
        <time>2012-05-03T14:59:02Z</time>
      </trkpt>
      <trkpt lat="47.97525" lon="2.39261">
        <ele>821.1</ele>
        <time>2012-05-03T14:59:13Z</time>
      </trkpt>
      <trkpt lat="47.97802" lon="2.3897">
        <ele>817.74</ele>
        <time>2012-05-03T14:59:22Z</time>
      </trkpt>
      <trkpt lat="47.98012" lon="2.38718">
        <ele>805.72</ele>
        <time>2012-05-03T14:59:29Z</time>
      </trkpt>
      <trkpt lat="47.98212" lon="2.38534">
        <ele>791.3</ele>
        <time>2012-05-03T14:59:35Z</time>
      </trkpt>
      <trkpt lat="47.98552" lon="2.38242">
        <ele>770.63</ele>
        <time>2012-05-03T14:59:45Z</time>
      </trkpt>
      <trkpt lat="47.98857" lon="2.38007">
        <ele>754.29</ele>
        <time>2012-05-03T14:59:54Z</time>
      </trkpt>
      <trkpt lat="47.99115" lon="2.37761">
        <ele>748.52</ele>
        <time>2012-05-03T15:00:03Z</time>
      </trkpt>
      <trkpt lat="47.99399" lon="2.3749">
        <ele>745.64</ele>
        <time>2012-05-03T15:00:13Z</time>
      </trkpt>
      <trkpt lat="47.99613" lon="2.37254">
        <ele>749</ele>
        <time>2012-05-03T15:00:21Z</time>
      </trkpt>
      <trkpt lat="47.99791" lon="2.37025">
        <ele>753.33</ele>
        <time>2012-05-03T15:00:28Z</time>
      </trkpt>
      <trkpt lat="48.00014" lon="2.36756">
        <ele>761.5</ele>
        <time>2012-05-03T15:00:36Z</time>
      </trkpt>
      <trkpt lat="48.00262" lon="2.36428">
        <ele>766.79</ele>
        <time>2012-05-03T15:00:45Z</time>
      </trkpt>
      <trkpt lat="48.00559" lon="2.36">
        <ele>777.36</ele>
        <time>2012-05-03T15:00:56Z</time>
      </trkpt>
      <trkpt lat="48.00794" lon="2.35641">
        <ele>784.57</ele>
        <time>2012-05-03T15:01:05Z</time>
      </trkpt>
      <trkpt lat="48.00961" lon="2.3527">
        <ele>787.94</ele>
        <time>2012-05-03T15:01:13Z</time>
      </trkpt>
      <trkpt lat="48.01172" lon="2.34883">
        <ele>788.42</ele>
        <time>2012-05-03T15:01:22Z</time>
      </trkpt>
      <trkpt lat="48.01368" lon="2.34558">
        <ele>805.72</ele>
        <time>2012-05-03T15:01:30Z</time>
      </trkpt>
      <trkpt lat="48.01615" lon="2.34241">
        <ele>824.95</ele>
        <time>2012-05-03T15:01:39Z</time>
      </trkpt>
      <trkpt lat="48.01831" lon="2.33961">
        <ele>826.87</ele>
        <time>2012-05-03T15:01:46Z</time>
      </trkpt>
      <trkpt lat="48.02107" lon="2.33662">
        <ele>827.35</ele>
        <time>2012-05-03T15:01:54Z</time>
      </trkpt>
      <trkpt lat="48.02398" lon="2.33365">
        <ele>840.81</ele>
        <time>2012-05-03T15:02:03Z</time>
      </trkpt>
      <trkpt lat="48.02718" lon="2.33073">
        <ele>866.29</ele>
        <time>2012-05-03T15:02:13Z</time>
      </trkpt>
      <trkpt lat="48.03027" lon="2.32813">
        <ele>899.93</ele>
        <time>2012-05-03T15:02:23Z</time>
      </trkpt>
      <trkpt lat="48.03372" lon="2.32544">
        <ele>903.78</ele>
        <time>2012-05-03T15:02:33Z</time>
      </trkpt>
      <trkpt lat="48.03746" lon="2.32293">
        <ele>926.37</ele>
        <time>2012-05-03T15:02:44Z</time>
      </trkpt>
      <trkpt lat="48.04042" lon="2.3207">
        <ele>942.71</ele>
        <time>2012-05-03T15:02:53Z</time>
      </trkpt>
      <trkpt lat="48.04318" lon="2.31879">
        <ele>954.73</ele>
        <time>2012-05-03T15:03:01Z</time>
      </trkpt>
      <trkpt lat="48.04647" lon="2.31701">
        <ele>960.49</ele>
        <time>2012-05-03T15:03:10Z</time>
      </trkpt>
      <trkpt lat="48.04858" lon="2.31535">
        <ele>961.46</ele>
        <time>2012-05-03T15:03:16Z</time>
      </trkpt>
      <trkpt lat="48.05144" lon="2.31322">
        <ele>966.74</ele>
        <time>2012-05-03T15:03:24Z</time>
      </trkpt>
      <trkpt lat="48.05474" lon="2.31088">
        <ele>968.18</ele>
        <time>2012-05-03T15:03:33Z</time>
      </trkpt>
      <trkpt lat="48.05828" lon="2.3082">
        <ele>967.22</ele>
        <time>2012-05-03T15:03:42Z</time>
      </trkpt>
      <trkpt lat="48.06197" lon="2.30589">
        <ele>968.67</ele>
        <time>2012-05-03T15:03:51Z</time>
      </trkpt>
      <trkpt lat="48.06573" lon="2.30368">
        <ele>961.46</ele>
        <time>2012-05-03T15:04:00Z</time>
      </trkpt>
      <trkpt lat="48.068" lon="2.30186">
        <ele>952.32</ele>
        <time>2012-05-03T15:04:06Z</time>
      </trkpt>
      <trkpt lat="48.07034" lon="2.3">
        <ele>942.71</ele>
        <time>2012-05-03T15:04:13Z</time>
      </trkpt>
      <trkpt lat="48.07285" lon="2.29744">
        <ele>933.1</ele>
        <time>2012-05-03T15:04:21Z</time>
      </trkpt>
      <trkpt lat="48.07488" lon="2.29598">
        <ele>927.81</ele>
        <time>2012-05-03T15:04:27Z</time>
      </trkpt>
      <trkpt lat="48.07784" lon="2.29364">
        <ele>919.64</ele>
        <time>2012-05-03T15:04:36Z</time>
      </trkpt>
      <trkpt lat="48.08123" lon="2.29103">
        <ele>900.41</ele>
        <time>2012-05-03T15:04:46Z</time>
      </trkpt>
      <trkpt lat="48.08412" lon="2.28892">
        <ele>892.24</ele>
        <time>2012-05-03T15:04:55Z</time>
      </trkpt>
      <trkpt lat="48.08755" lon="2.28642">
        <ele>887.43</ele>
        <time>2012-05-03T15:05:06Z</time>
      </trkpt>
      <trkpt lat="48.09046" lon="2.28398">
        <ele>886.47</ele>
        <time>2012-05-03T15:05:16Z</time>
      </trkpt>
      <trkpt lat="48.09404" lon="2.28108">
        <ele>876.38</ele>
        <time>2012-05-03T15:05:28Z</time>
      </trkpt>
      <trkpt lat="48.09747" lon="2.27809">
        <ele>863.88</ele>
        <time>2012-05-03T15:05:39Z</time>
      </trkpt>
      <trkpt lat="48.09957" lon="2.27587">
        <ele>854.75</ele>
        <time>2012-05-03T15:05:46Z</time>
      </trkpt>
      <trkpt lat="48.10201" lon="2.27374">
        <ele>839.85</ele>
        <time>2012-05-03T15:05:53Z</time>
      </trkpt>
      <trkpt lat="48.10464" lon="2.27137">
        <ele>836.96</ele>
        <time>2012-05-03T15:06:01Z</time>
      </trkpt>
      <trkpt lat="48.10669" lon="2.26863">
        <ele>825.91</ele>
        <time>2012-05-03T15:06:08Z</time>
      </trkpt>
      <trkpt lat="48.10859" lon="2.26654">
        <ele>813.89</ele>
        <time>2012-05-03T15:06:14Z</time>
      </trkpt>
      <trkpt lat="48.11039" lon="2.26423">
        <ele>796.59</ele>
        <time>2012-05-03T15:06:20Z</time>
      </trkpt>
      <trkpt lat="48.11228" lon="2.26208">
        <ele>775.92</ele>
        <time>2012-05-03T15:06:26Z</time>
      </trkpt>
      <trkpt lat="48.11514" lon="2.25903">
        <ele>756.21</ele>
        <time>2012-05-03T15:06:35Z</time>
      </trkpt>
      <trkpt lat="48.11792" lon="2.25624">
        <ele>745.64</ele>
        <time>2012-05-03T15:06:44Z</time>
      </trkpt>
      <trkpt lat="48.12034" lon="2.25391">
        <ele>729.3</ele>
        <time>2012-05-03T15:06:52Z</time>
      </trkpt>
      <trkpt lat="48.12269" lon="2.25143">
        <ele>705.26</ele>
        <time>2012-05-03T15:07:00Z</time>
      </trkpt>
      <trkpt lat="48.12576" lon="2.24859">
        <ele>693.73</ele>
        <time>2012-05-03T15:07:10Z</time>
      </trkpt>
      <trkpt lat="48.12876" lon="2.24583">
        <ele>707.19</ele>
        <time>2012-05-03T15:07:20Z</time>
      </trkpt>
      <trkpt lat="48.13064" lon="2.24389">
        <ele>726.41</ele>
        <time>2012-05-03T15:07:27Z</time>
      </trkpt>
      <trkpt lat="48.13316" lon="2.24098">
        <ele>746.12</ele>
        <time>2012-05-03T15:07:37Z</time>
      </trkpt>
      <trkpt lat="48.13584" lon="2.23796">
        <ele>755.73</ele>
        <time>2012-05-03T15:07:47Z</time>
      </trkpt>
      <trkpt lat="48.13895" lon="2.23542">
        <ele>771.11</ele>
        <time>2012-05-03T15:07:57Z</time>
      </trkpt>
      <trkpt lat="48.14222" lon="2.23276">
        <ele>808.13</ele>
        <time>2012-05-03T15:08:08Z</time>
      </trkpt>
      <trkpt lat="48.14496" lon="2.23027">
        <ele>831.68</ele>
        <time>2012-05-03T15:08:18Z</time>
      </trkpt>
      <trkpt lat="48.14723" lon="2.2279">
        <ele>827.83</ele>
        <time>2012-05-03T15:08:26Z</time>
      </trkpt>
      <trkpt lat="48.14985" lon="2.2257">
        <ele>820.62</ele>
        <time>2012-05-03T15:08:34Z</time>
      </trkpt>
      <trkpt lat="48.15234" lon="2.22316">
        <ele>819.18</ele>
        <time>2012-05-03T15:08:42Z</time>
      </trkpt>
      <trkpt lat="48.15513" lon="2.22036">
        <ele>827.83</ele>
        <time>2012-05-03T15:08:51Z</time>
      </trkpt>
      <trkpt lat="48.15693" lon="2.2181">
        <ele>823.03</ele>
        <time>2012-05-03T15:08:57Z</time>
      </trkpt>
      <trkpt lat="48.15877" lon="2.21622">
        <ele>824.95</ele>
        <time>2012-05-03T15:09:03Z</time>
      </trkpt>
      <trkpt lat="48.16125" lon="2.21428">
        <ele>840.33</ele>
        <time>2012-05-03T15:09:11Z</time>
      </trkpt>
      <trkpt lat="48.16419" lon="2.2119">
        <ele>845.14</ele>
        <time>2012-05-03T15:09:20Z</time>
      </trkpt>
      <trkpt lat="48.16735" lon="2.20938">
        <ele>843.21</ele>
        <time>2012-05-03T15:09:29Z</time>
      </trkpt>
      <trkpt lat="48.17007" lon="2.20734">
        <ele>850.9</ele>
        <time>2012-05-03T15:09:37Z</time>
      </trkpt>
      <trkpt lat="48.17368" lon="2.20422">
        <ele>851.38</ele>
        <time>2012-05-03T15:09:48Z</time>
      </trkpt>
      <trkpt lat="48.17667" lon="2.20157">
        <ele>840.81</ele>
        <time>2012-05-03T15:09:57Z</time>
      </trkpt>
      <trkpt lat="48.17886" lon="2.20003">
        <ele>828.79</ele>
        <time>2012-05-03T15:10:03Z</time>
      </trkpt>
      <trkpt lat="48.18121" lon="2.19899">
        <ele>820.14</ele>
        <time>2012-05-03T15:10:09Z</time>
      </trkpt>
      <trkpt lat="48.18354" lon="2.19782">
        <ele>815.34</ele>
        <time>2012-05-03T15:10:15Z</time>
      </trkpt>
      <trkpt lat="48.18631" lon="2.19638">
        <ele>804.28</ele>
        <time>2012-05-03T15:10:22Z</time>
      </trkpt>
      <trkpt lat="48.18947" lon="2.19458">
        <ele>796.59</ele>
        <time>2012-05-03T15:10:30Z</time>
      </trkpt>
      <trkpt lat="48.19234" lon="2.19283">
        <ele>803.32</ele>
        <time>2012-05-03T15:10:38Z</time>
      </trkpt>
      <trkpt lat="48.19458" lon="2.19067">
        <ele>806.68</ele>
        <time>2012-05-03T15:10:45Z</time>
      </trkpt>
      <trkpt lat="48.19669" lon="2.18948">
        <ele>812.93</ele>
        <time>2012-05-03T15:10:51Z</time>
      </trkpt>
      <trkpt lat="48.19995" lon="2.1879">
        <ele>815.34</ele>
        <time>2012-05-03T15:11:00Z</time>
      </trkpt>
      <trkpt lat="48.20249" lon="2.18642">
        <ele>809.57</ele>
        <time>2012-05-03T15:11:07Z</time>
      </trkpt>
      <trkpt lat="48.20585" lon="2.18406">
        <ele>786.02</ele>
        <time>2012-05-03T15:11:16Z</time>
      </trkpt>
      <trkpt lat="48.20839" lon="2.18192">
        <ele>773.52</ele>
        <time>2012-05-03T15:11:23Z</time>
      </trkpt>
      <trkpt lat="48.21164" lon="2.17847">
        <ele>778.32</ele>
        <time>2012-05-03T15:11:33Z</time>
      </trkpt>
      <trkpt lat="48.21483" lon="2.17544">
        <ele>799.95</ele>
        <time>2012-05-03T15:11:43Z</time>
      </trkpt>
      <trkpt lat="48.21807" lon="2.1722">
        <ele>830.72</ele>
        <time>2012-05-03T15:11:54Z</time>
      </trkpt>
      <trkpt lat="48.22174" lon="2.16879">
        <ele>834.08</ele>
        <time>2012-05-03T15:12:06Z</time>
      </trkpt>
      <trkpt lat="48.22506" lon="2.16562">
        <ele>813.41</ele>
        <time>2012-05-03T15:12:16Z</time>
      </trkpt>
      <trkpt lat="48.22771" lon="2.1639">
        <ele>798.03</ele>
        <time>2012-05-03T15:12:23Z</time>
      </trkpt>
      <trkpt lat="48.23202" lon="2.16118">
        <ele>771.6</ele>
        <time>2012-05-03T15:12:34Z</time>
      </trkpt>
      <trkpt lat="48.23475" lon="2.15985">
        <ele>765.35</ele>
        <time>2012-05-03T15:12:41Z</time>
      </trkpt>
      <trkpt lat="48.23813" lon="2.15808">
        <ele>768.71</ele>
        <time>2012-05-03T15:12:50Z</time>
      </trkpt>
      <trkpt lat="48.24113" lon="2.15657">
        <ele>770.15</ele>
        <time>2012-05-03T15:12:58Z</time>
      </trkpt>
      <trkpt lat="48.24397" lon="2.15431">
        <ele>764.87</ele>
        <time>2012-05-03T15:13:06Z</time>
      </trkpt>
      <trkpt lat="48.24685" lon="2.15238">
        <ele>765.35</ele>
        <time>2012-05-03T15:13:14Z</time>
      </trkpt>
      <trkpt lat="48.24976" lon="2.15065">
        <ele>757.18</ele>
        <time>2012-05-03T15:13:22Z</time>
      </trkpt>
      <trkpt lat="48.25258" lon="2.14879">
        <ele>755.25</ele>
        <time>2012-05-03T15:13:30Z</time>
      </trkpt>
      <trkpt lat="48.25539" lon="2.1473">
        <ele>766.31</ele>
        <time>2012-05-03T15:13:38Z</time>
      </trkpt>
      <trkpt lat="48.2587" lon="2.1454">
        <ele>776.4</ele>
        <time>2012-05-03T15:13:47Z</time>
      </trkpt>
      <trkpt lat="48.2618" lon="2.14387">
        <ele>783.13</ele>
        <time>2012-05-03T15:13:55Z</time>
      </trkpt>
      <trkpt lat="48.26443" lon="2.14254">
        <ele>784.57</ele>
        <time>2012-05-03T15:14:02Z</time>
      </trkpt>
      <trkpt lat="48.26744" lon="2.14128">
        <ele>794.19</ele>
        <time>2012-05-03T15:14:10Z</time>
      </trkpt>
      <trkpt lat="48.27059" lon="2.1402">
        <ele>798.99</ele>
        <time>2012-05-03T15:14:18Z</time>
      </trkpt>
      <trkpt lat="48.27465" lon="2.13867">
        <ele>799.95</ele>
        <time>2012-05-03T15:14:28Z</time>
      </trkpt>
      <trkpt lat="48.27863" lon="2.13648">
        <ele>793.22</ele>
        <time>2012-05-03T15:14:38Z</time>
      </trkpt>
      <trkpt lat="48.28149" lon="2.13533">
        <ele>791.3</ele>
        <time>2012-05-03T15:14:45Z</time>
      </trkpt>
      <trkpt lat="48.28514" lon="2.1339">
        <ele>796.11</ele>
        <time>2012-05-03T15:14:54Z</time>
      </trkpt>
      <trkpt lat="48.2882" lon="2.13204">
        <ele>798.03</ele>
        <time>2012-05-03T15:15:02Z</time>
      </trkpt>
      <trkpt lat="48.29092" lon="2.13072">
        <ele>796.11</ele>
        <time>2012-05-03T15:15:09Z</time>
      </trkpt>
      <trkpt lat="48.29409" lon="2.12937">
        <ele>798.99</ele>
        <time>2012-05-03T15:15:17Z</time>
      </trkpt>
      <trkpt lat="48.29752" lon="2.1282">
        <ele>795.15</ele>
        <time>2012-05-03T15:15:25Z</time>
      </trkpt>
      <trkpt lat="48.30045" lon="2.12747">
        <ele>798.51</ele>
        <time>2012-05-03T15:15:32Z</time>
      </trkpt>
      <trkpt lat="48.30376" lon="2.12605">
        <ele>791.78</ele>
        <time>2012-05-03T15:15:40Z</time>
      </trkpt>
      <trkpt lat="48.30702" lon="2.1251">
        <ele>795.15</ele>
        <time>2012-05-03T15:15:48Z</time>
      </trkpt>
      <trkpt lat="48.31034" lon="2.12387">
        <ele>788.42</ele>
        <time>2012-05-03T15:15:56Z</time>
      </trkpt>
      <trkpt lat="48.31461" lon="2.12211">
        <ele>769.67</ele>
        <time>2012-05-03T15:16:06Z</time>
      </trkpt>
      <trkpt lat="48.31769" lon="2.12094">
        <ele>757.66</ele>
        <time>2012-05-03T15:16:13Z</time>
      </trkpt>
      <trkpt lat="48.3216" lon="2.11983">
        <ele>756.21</ele>
        <time>2012-05-03T15:16:22Z</time>
      </trkpt>
      <trkpt lat="48.3256" lon="2.1186">
        <ele>739.39</ele>
        <time>2012-05-03T15:16:31Z</time>
      </trkpt>
      <trkpt lat="48.33048" lon="2.11719">
        <ele>711.51</ele>
        <time>2012-05-03T15:16:42Z</time>
      </trkpt>
      <trkpt lat="48.33386" lon="2.11642">
        <ele>705.26</ele>
        <time>2012-05-03T15:16:50Z</time>
      </trkpt>
      <trkpt lat="48.3362" lon="2.11562">
        <ele>712.47</ele>
        <time>2012-05-03T15:16:56Z</time>
      </trkpt>
      <trkpt lat="48.33987" lon="2.1142">
        <ele>724.49</ele>
        <time>2012-05-03T15:17:06Z</time>
      </trkpt>
      <trkpt lat="48.34215" lon="2.11306">
        <ele>722.09</ele>
        <time>2012-05-03T15:17:12Z</time>
      </trkpt>
      <trkpt lat="48.34491" lon="2.11161">
        <ele>704.78</ele>
        <time>2012-05-03T15:17:19Z</time>
      </trkpt>
      <trkpt lat="48.34856" lon="2.10968">
        <ele>685.56</ele>
        <time>2012-05-03T15:17:28Z</time>
      </trkpt>
      <trkpt lat="48.35122" lon="2.10856">
        <ele>695.65</ele>
        <time>2012-05-03T15:17:35Z</time>
      </trkpt>
      <trkpt lat="48.35327" lon="2.10742">
        <ele>711.03</ele>
        <time>2012-05-03T15:17:41Z</time>
      </trkpt>
      <trkpt lat="48.35743" lon="2.10438">
        <ele>719.2</ele>
        <time>2012-05-03T15:17:53Z</time>
      </trkpt>
      <trkpt lat="48.36021" lon="2.10253">
        <ele>733.14</ele>
        <time>2012-05-03T15:18:01Z</time>
      </trkpt>
      <trkpt lat="48.36242" lon="2.1015">
        <ele>746.12</ele>
        <time>2012-05-03T15:18:07Z</time>
      </trkpt>
      <trkpt lat="48.3654" lon="2.10053">
        <ele>761.5</ele>
        <time>2012-05-03T15:18:15Z</time>
      </trkpt>
      <trkpt lat="48.36852" lon="2.09877">
        <ele>752.37</ele>
        <time>2012-05-03T15:18:23Z</time>
      </trkpt>
      <trkpt lat="48.37251" lon="2.09639">
        <ele>730.74</ele>
        <time>2012-05-03T15:18:33Z</time>
      </trkpt>
      <trkpt lat="48.37543" lon="2.09524">
        <ele>724.49</ele>
        <time>2012-05-03T15:18:40Z</time>
      </trkpt>
      <trkpt lat="48.37914" lon="2.09351">
        <ele>727.86</ele>
        <time>2012-05-03T15:18:49Z</time>
      </trkpt>
      <trkpt lat="48.38434" lon="2.09085">
        <ele>734.58</ele>
        <time>2012-05-03T15:19:02Z</time>
      </trkpt>
      <trkpt lat="48.3875" lon="2.08953">
        <ele>732.66</ele>
        <time>2012-05-03T15:19:10Z</time>
      </trkpt>
      <trkpt lat="48.39071" lon="2.08871">
        <ele>728.34</ele>
        <time>2012-05-03T15:19:18Z</time>
      </trkpt>
      <trkpt lat="48.39554" lon="2.08791">
        <ele>725.45</ele>
        <time>2012-05-03T15:19:30Z</time>
      </trkpt>
      <trkpt lat="48.39988" lon="2.08717">
        <ele>740.83</ele>
        <time>2012-05-03T15:19:41Z</time>
      </trkpt>
      <trkpt lat="48.40439" lon="2.08634">
        <ele>763.9</ele>
        <time>2012-05-03T15:19:53Z</time>
      </trkpt>
      <trkpt lat="48.40808" lon="2.08538">
        <ele>764.39</ele>
        <time>2012-05-03T15:20:03Z</time>
      </trkpt>
      <trkpt lat="48.41054" lon="2.08454">
        <ele>749.49</ele>
        <time>2012-05-03T15:20:09Z</time>
      </trkpt>
      <trkpt lat="48.4146" lon="2.0836">
        <ele>717.28</ele>
        <time>2012-05-03T15:20:18Z</time>
      </trkpt>
      <trkpt lat="48.41917" lon="2.08307">
        <ele>692.29</ele>
        <time>2012-05-03T15:20:28Z</time>
      </trkpt>
      <trkpt lat="48.42345" lon="2.0821">
        <ele>685.56</ele>
        <time>2012-05-03T15:20:38Z</time>
      </trkpt>
      <trkpt lat="48.42758" lon="2.08096">
        <ele>675.46</ele>
        <time>2012-05-03T15:20:48Z</time>
      </trkpt>
      <trkpt lat="48.43085" lon="2.0799">
        <ele>664.41</ele>
        <time>2012-05-03T15:20:56Z</time>
      </trkpt>
      <trkpt lat="48.43307" lon="2.07935">
        <ele>674.5</ele>
        <time>2012-05-03T15:21:02Z</time>
      </trkpt>
      <trkpt lat="48.4359" lon="2.07805">
        <ele>682.67</ele>
        <time>2012-05-03T15:21:10Z</time>
      </trkpt>
      <trkpt lat="48.44005" lon="2.0762">
        <ele>667.29</ele>
        <time>2012-05-03T15:21:20Z</time>
      </trkpt>
      <trkpt lat="48.44359" lon="2.07409">
        <ele>661.04</ele>
        <time>2012-05-03T15:21:29Z</time>
      </trkpt>
      <trkpt lat="48.44748" lon="2.07194">
        <ele>658.64</ele>
        <time>2012-05-03T15:21:39Z</time>
      </trkpt>
      <trkpt lat="48.45156" lon="2.06998">
        <ele>646.14</ele>
        <time>2012-05-03T15:21:49Z</time>
      </trkpt>
      <trkpt lat="48.45649" lon="2.06753">
        <ele>629.8</ele>
        <time>2012-05-03T15:22:01Z</time>
      </trkpt>
      <trkpt lat="48.45948" lon="2.06548">
        <ele>628.36</ele>
        <time>2012-05-03T15:22:09Z</time>
      </trkpt>
      <trkpt lat="48.46298" lon="2.06277">
        <ele>635.57</ele>
        <time>2012-05-03T15:22:19Z</time>
      </trkpt>
      <trkpt lat="48.46667" lon="2.05948">
        <ele>654.8</ele>
        <time>2012-05-03T15:22:30Z</time>
      </trkpt>
      <trkpt lat="48.46945" lon="2.05736">
        <ele>662.97</ele>
        <time>2012-05-03T15:22:38Z</time>
      </trkpt>
      <trkpt lat="48.47226" lon="2.05528">
        <ele>645.66</ele>
        <time>2012-05-03T15:22:45Z</time>
      </trkpt>
      <trkpt lat="48.47608" lon="2.05229">
        <ele>617.78</ele>
        <time>2012-05-03T15:22:55Z</time>
      </trkpt>
      <trkpt lat="48.48039" lon="2.04806">
        <ele>589.91</ele>
        <time>2012-05-03T15:23:07Z</time>
      </trkpt>
      <trkpt lat="48.48302" lon="2.04525">
        <ele>584.62</ele>
        <time>2012-05-03T15:23:15Z</time>
      </trkpt>
      <trkpt lat="48.48606" lon="2.04146">
        <ele>592.79</ele>
        <time>2012-05-03T15:23:25Z</time>
      </trkpt>
      <trkpt lat="48.48888" lon="2.03765">
        <ele>579.81</ele>
        <time>2012-05-03T15:23:34Z</time>
      </trkpt>
      <trkpt lat="48.49153" lon="2.03438">
        <ele>576.45</ele>
        <time>2012-05-03T15:23:42Z</time>
      </trkpt>
      <trkpt lat="48.49371" lon="2.0317">
        <ele>581.73</ele>
        <time>2012-05-03T15:23:49Z</time>
      </trkpt>
      <trkpt lat="48.49631" lon="2.02853">
        <ele>593.75</ele>
        <time>2012-05-03T15:23:58Z</time>
      </trkpt>
      <trkpt lat="48.49878" lon="2.02578">
        <ele>605.77</ele>
        <time>2012-05-03T15:24:07Z</time>
      </trkpt>
      <trkpt lat="48.50066" lon="2.02285">
        <ele>613.46</ele>
        <time>2012-05-03T15:24:15Z</time>
      </trkpt>
      <trkpt lat="48.50218" lon="2.02022">
        <ele>618.26</ele>
        <time>2012-05-03T15:24:22Z</time>
      </trkpt>
      <trkpt lat="48.50407" lon="2.01678">
        <ele>606.73</ele>
        <time>2012-05-03T15:24:30Z</time>
      </trkpt>
      <trkpt lat="48.50597" lon="2.01237">
        <ele>603.85</ele>
        <time>2012-05-03T15:24:39Z</time>
      </trkpt>
      <trkpt lat="48.5074" lon="2.00809">
        <ele>596.15</ele>
        <time>2012-05-03T15:24:47Z</time>
      </trkpt>
      <trkpt lat="48.50897" lon="2.00306">
        <ele>581.25</ele>
        <time>2012-05-03T15:24:56Z</time>
      </trkpt>
      <trkpt lat="48.51001" lon="1.99915">
        <ele>574.53</ele>
        <time>2012-05-03T15:25:03Z</time>
      </trkpt>
      <trkpt lat="48.51133" lon="1.99443">
        <ele>547.13</ele>
        <time>2012-05-03T15:25:11Z</time>
      </trkpt>
      <trkpt lat="48.51205" lon="1.99195">
        <ele>534.15</ele>
        <time>2012-05-03T15:25:15Z</time>
      </trkpt>
      <trkpt lat="48.51468" lon="1.9854">
        <ele>515.88</ele>
        <time>2012-05-03T15:25:27Z</time>
      </trkpt>
      <trkpt lat="48.51705" lon="1.98034">
        <ele>503.39</ele>
        <time>2012-05-03T15:25:37Z</time>
      </trkpt>
      <trkpt lat="48.5198" lon="1.97517">
        <ele>499.54</ele>
        <time>2012-05-03T15:25:48Z</time>
      </trkpt>
      <trkpt lat="48.5219" lon="1.97111">
        <ele>506.75</ele>
        <time>2012-05-03T15:25:57Z</time>
      </trkpt>
      <trkpt lat="48.52358" lon="1.96796">
        <ele>509.64</ele>
        <time>2012-05-03T15:26:04Z</time>
      </trkpt>
      <trkpt lat="48.52549" lon="1.96542">
        <ele>518.77</ele>
        <time>2012-05-03T15:26:11Z</time>
      </trkpt>
      <trkpt lat="48.52729" lon="1.96242">
        <ele>510.12</ele>
        <time>2012-05-03T15:26:18Z</time>
      </trkpt>
      <trkpt lat="48.52907" lon="1.96006">
        <ele>501.95</ele>
        <time>2012-05-03T15:26:24Z</time>
      </trkpt>
      <trkpt lat="48.53191" lon="1.95698">
        <ele>512.04</ele>
        <time>2012-05-03T15:26:33Z</time>
      </trkpt>
      <trkpt lat="48.53575" lon="1.95331">
        <ele>516.85</ele>
        <time>2012-05-03T15:26:45Z</time>
      </trkpt>
      <trkpt lat="48.54004" lon="1.94946">
        <ele>516.85</ele>
        <time>2012-05-03T15:26:58Z</time>
      </trkpt>
      <trkpt lat="48.543" lon="1.9465">
        <ele>513</ele>
        <time>2012-05-03T15:27:07Z</time>
      </trkpt>
      <trkpt lat="48.54659" lon="1.94291">
        <ele>506.27</ele>
        <time>2012-05-03T15:27:18Z</time>
      </trkpt>
      <trkpt lat="48.5489" lon="1.93988">
        <ele>504.83</ele>
        <time>2012-05-03T15:27:26Z</time>
      </trkpt>
      <trkpt lat="48.5511" lon="1.93705">
        <ele>493.29</ele>
        <time>2012-05-03T15:27:33Z</time>
      </trkpt>
      <trkpt lat="48.55451" lon="1.93381">
        <ele>476.47</ele>
        <time>2012-05-03T15:27:43Z</time>
      </trkpt>
      <trkpt lat="48.55737" lon="1.93108">
        <ele>486.08</ele>
        <time>2012-05-03T15:27:52Z</time>
      </trkpt>
      <trkpt lat="48.55997" lon="1.92895">
        <ele>498.58</ele>
        <time>2012-05-03T15:28:00Z</time>
      </trkpt>
      <trkpt lat="48.56304" lon="1.926">
        <ele>488.49</ele>
        <time>2012-05-03T15:28:09Z</time>
      </trkpt>
      <trkpt lat="48.56654" lon="1.92286">
        <ele>470.7</ele>
        <time>2012-05-03T15:28:19Z</time>
      </trkpt>
      <trkpt lat="48.56954" lon="1.92062">
        <ele>453.88</ele>
        <time>2012-05-03T15:28:27Z</time>
      </trkpt>
      <trkpt lat="48.57231" lon="1.91889">
        <ele>466.38</ele>
        <time>2012-05-03T15:28:35Z</time>
      </trkpt>
      <trkpt lat="48.57503" lon="1.91655">
        <ele>469.74</ele>
        <time>2012-05-03T15:28:43Z</time>
      </trkpt>
      <trkpt lat="48.57763" lon="1.91432">
        <ele>481.28</ele>
        <time>2012-05-03T15:28:51Z</time>
      </trkpt>
      <trkpt lat="48.58084" lon="1.91137">
        <ele>475.51</ele>
        <time>2012-05-03T15:29:01Z</time>
      </trkpt>
      <trkpt lat="48.58371" lon="1.90887">
        <ele>484.64</ele>
        <time>2012-05-03T15:29:10Z</time>
      </trkpt>
      <trkpt lat="48.58703" lon="1.90633">
        <ele>489.45</ele>
        <time>2012-05-03T15:29:20Z</time>
      </trkpt>
      <trkpt lat="48.59009" lon="1.90415">
        <ele>502.91</ele>
        <time>2012-05-03T15:29:29Z</time>
      </trkpt>
      <trkpt lat="48.59268" lon="1.90229">
        <ele>524.06</ele>
        <time>2012-05-03T15:29:37Z</time>
      </trkpt>
      <trkpt lat="48.59565" lon="1.89995">
        <ele>534.15</ele>
        <time>2012-05-03T15:29:46Z</time>
      </trkpt>
      <trkpt lat="48.59889" lon="1.89764">
        <ele>550.97</ele>
        <time>2012-05-03T15:29:56Z</time>
      </trkpt>
      <trkpt lat="48.60213" lon="1.89489">
        <ele>559.62</ele>
        <time>2012-05-03T15:30:06Z</time>
      </trkpt>
      <trkpt lat="48.60516" lon="1.89266">
        <ele>558.18</ele>
        <time>2012-05-03T15:30:15Z</time>
      </trkpt>
      <trkpt lat="48.60764" lon="1.89043">
        <ele>563.95</ele>
        <time>2012-05-03T15:30:23Z</time>
      </trkpt>
      <trkpt lat="48.61074" lon="1.8878">
        <ele>573.08</ele>
        <time>2012-05-03T15:30:33Z</time>
      </trkpt>
      <trkpt lat="48.61369" lon="1.88572">
        <ele>579.33</ele>
        <time>2012-05-03T15:30:42Z</time>
      </trkpt>
      <trkpt lat="48.61728" lon="1.88325">
        <ele>581.25</ele>
        <time>2012-05-03T15:30:53Z</time>
      </trkpt>
      <trkpt lat="48.62143" lon="1.88059">
        <ele>576.45</ele>
        <time>2012-05-03T15:31:05Z</time>
      </trkpt>
      <trkpt lat="48.62492" lon="1.87841">
        <ele>581.73</ele>
        <time>2012-05-03T15:31:15Z</time>
      </trkpt>
      <trkpt lat="48.62857" lon="1.876">
        <ele>571.16</ele>
        <time>2012-05-03T15:31:25Z</time>
      </trkpt>
      <trkpt lat="48.63096" lon="1.87515">
        <ele>563.95</ele>
        <time>2012-05-03T15:31:31Z</time>
      </trkpt>
      <trkpt lat="48.63612" lon="1.87383">
        <ele>568.76</ele>
        <time>2012-05-03T15:31:44Z</time>
      </trkpt>
      <trkpt lat="48.64066" lon="1.87251">
        <ele>588.46</ele>
        <time>2012-05-03T15:31:56Z</time>
      </trkpt>
      <trkpt lat="48.64522" lon="1.87111">
        <ele>590.87</ele>
        <time>2012-05-03T15:32:08Z</time>
      </trkpt>
      <trkpt lat="48.64978" lon="1.86967">
        <ele>585.58</ele>
        <time>2012-05-03T15:32:20Z</time>
      </trkpt>
      <trkpt lat="48.65393" lon="1.86812">
        <ele>601.44</ele>
        <time>2012-05-03T15:32:31Z</time>
      </trkpt>
      <trkpt lat="48.65747" lon="1.86678">
        <ele>601.44</ele>
        <time>2012-05-03T15:32:40Z</time>
      </trkpt>
      <trkpt lat="48.66" lon="1.86632">
        <ele>597.6</ele>
        <time>2012-05-03T15:32:46Z</time>
      </trkpt>
      <trkpt lat="48.66208" lon="1.86674">
        <ele>602.88</ele>
        <time>2012-05-03T15:32:51Z</time>
      </trkpt>
      <trkpt lat="48.66526" lon="1.86743">
        <ele>611.06</ele>
        <time>2012-05-03T15:32:59Z</time>
      </trkpt>
      <trkpt lat="48.66811" lon="1.86802">
        <ele>620.67</ele>
        <time>2012-05-03T15:33:06Z</time>
      </trkpt>
      <trkpt lat="48.67064" lon="1.86862">
        <ele>616.34</ele>
        <time>2012-05-03T15:33:12Z</time>
      </trkpt>
      <trkpt lat="48.67297" lon="1.86941">
        <ele>602.88</ele>
        <time>2012-05-03T15:33:17Z</time>
      </trkpt>
      <trkpt lat="48.67638" lon="1.87055">
        <ele>584.14</ele>
        <time>2012-05-03T15:33:24Z</time>
      </trkpt>
      <trkpt lat="48.67956" lon="1.8718">
        <ele>565.39</ele>
        <time>2012-05-03T15:33:31Z</time>
      </trkpt>
      <trkpt lat="48.68335" lon="1.87285">
        <ele>547.61</ele>
        <time>2012-05-03T15:33:40Z</time>
      </trkpt>
      <trkpt lat="48.68634" lon="1.87338">
        <ele>525.02</ele>
        <time>2012-05-03T15:33:47Z</time>
      </trkpt>
      <trkpt lat="48.68942" lon="1.87315">
        <ele>486.56</ele>
        <time>2012-05-03T15:33:54Z</time>
      </trkpt>
      <trkpt lat="48.69205" lon="1.87231">
        <ele>455.8</ele>
        <time>2012-05-03T15:34:00Z</time>
      </trkpt>
      <trkpt lat="48.69546" lon="1.87113">
        <ele>437.06</ele>
        <time>2012-05-03T15:34:08Z</time>
      </trkpt>
      <trkpt lat="48.69934" lon="1.86988">
        <ele>445.71</ele>
        <time>2012-05-03T15:34:18Z</time>
      </trkpt>
      <trkpt lat="48.7022" lon="1.86831">
        <ele>463.01</ele>
        <time>2012-05-03T15:34:26Z</time>
      </trkpt>
      <trkpt lat="48.70486" lon="1.86663">
        <ele>477.91</ele>
        <time>2012-05-03T15:34:34Z</time>
      </trkpt>
      <trkpt lat="48.70622" lon="1.8651">
        <ele>492.33</ele>
        <time>2012-05-03T15:34:39Z</time>
      </trkpt>
      <trkpt lat="48.70844" lon="1.8623">
        <ele>511.08</ele>
        <time>2012-05-03T15:34:48Z</time>
      </trkpt>
      <trkpt lat="48.71078" lon="1.85886">
        <ele>513</ele>
        <time>2012-05-03T15:34:58Z</time>
      </trkpt>
      <trkpt lat="48.71305" lon="1.85546">
        <ele>510.6</ele>
        <time>2012-05-03T15:35:07Z</time>
      </trkpt>
      <trkpt lat="48.71558" lon="1.85258">
        <ele>518.29</ele>
        <time>2012-05-03T15:35:16Z</time>
      </trkpt>
      <trkpt lat="48.71855" lon="1.84978">
        <ele>519.73</ele>
        <time>2012-05-03T15:35:26Z</time>
      </trkpt>
      <trkpt lat="48.72064" lon="1.84854">
        <ele>518.77</ele>
        <time>2012-05-03T15:35:32Z</time>
      </trkpt>
      <trkpt lat="48.72474" lon="1.84692">
        <ele>523.58</ele>
        <time>2012-05-03T15:35:43Z</time>
      </trkpt>
      <trkpt lat="48.72821" lon="1.8457">
        <ele>527.9</ele>
        <time>2012-05-03T15:35:52Z</time>
      </trkpt>
      <trkpt lat="48.73191" lon="1.84469">
        <ele>516.85</ele>
        <time>2012-05-03T15:36:01Z</time>
      </trkpt>
      <trkpt lat="48.73571" lon="1.84392">
        <ele>503.87</ele>
        <time>2012-05-03T15:36:10Z</time>
      </trkpt>
      <trkpt lat="48.73844" lon="1.84275">
        <ele>502.43</ele>
        <time>2012-05-03T15:36:17Z</time>
      </trkpt>
      <trkpt lat="48.74125" lon="1.84157">
        <ele>509.64</ele>
        <time>2012-05-03T15:36:24Z</time>
      </trkpt>
      <trkpt lat="48.74499" lon="1.83975">
        <ele>487.53</ele>
        <time>2012-05-03T15:36:33Z</time>
      </trkpt>
      <trkpt lat="48.74791" lon="1.8387">
        <ele>465.42</ele>
        <time>2012-05-03T15:36:40Z</time>
      </trkpt>
      <trkpt lat="48.7531" lon="1.8375">
        <ele>437.54</ele>
        <time>2012-05-03T15:36:52Z</time>
      </trkpt>
      <trkpt lat="48.75628" lon="1.83725">
        <ele>429.37</ele>
        <time>2012-05-03T15:36:59Z</time>
      </trkpt>
      <trkpt lat="48.76029" lon="1.8376">
        <ele>426.48</ele>
        <time>2012-05-03T15:37:08Z</time>
      </trkpt>
      <trkpt lat="48.76322" lon="1.83768">
        <ele>436.58</ele>
        <time>2012-05-03T15:37:15Z</time>
      </trkpt>
      <trkpt lat="48.76634" lon="1.83763">
        <ele>451</ele>
        <time>2012-05-03T15:37:23Z</time>
      </trkpt>
      <trkpt lat="48.76839" lon="1.83729">
        <ele>470.7</ele>
        <time>2012-05-03T15:37:29Z</time>
      </trkpt>
      <trkpt lat="48.77071" lon="1.83599">
        <ele>475.03</ele>
        <time>2012-05-03T15:37:36Z</time>
      </trkpt>
      <trkpt lat="48.77416" lon="1.83431">
        <ele>481.28</ele>
        <time>2012-05-03T15:37:46Z</time>
      </trkpt>
      <trkpt lat="48.77723" lon="1.83317">
        <ele>492.33</ele>
        <time>2012-05-03T15:37:55Z</time>
      </trkpt>
      <trkpt lat="48.78026" lon="1.83204">
        <ele>491.85</ele>
        <time>2012-05-03T15:38:04Z</time>
      </trkpt>
      <trkpt lat="48.78369" lon="1.83092">
        <ele>499.06</ele>
        <time>2012-05-03T15:38:14Z</time>
      </trkpt>
      <trkpt lat="48.78689" lon="1.82992">
        <ele>506.75</ele>
        <time>2012-05-03T15:38:23Z</time>
      </trkpt>
      <trkpt lat="48.79062" lon="1.82838">
        <ele>502.91</ele>
        <time>2012-05-03T15:38:33Z</time>
      </trkpt>
      <trkpt lat="48.79366" lon="1.82671">
        <ele>491.37</ele>
        <time>2012-05-03T15:38:41Z</time>
      </trkpt>
      <trkpt lat="48.79706" lon="1.825">
        <ele>490.89</ele>
        <time>2012-05-03T15:38:50Z</time>
      </trkpt>
      <trkpt lat="48.80016" lon="1.82372">
        <ele>483.68</ele>
        <time>2012-05-03T15:38:58Z</time>
      </trkpt>
      <trkpt lat="48.80284" lon="1.82201">
        <ele>473.59</ele>
        <time>2012-05-03T15:39:05Z</time>
      </trkpt>
      <trkpt lat="48.80588" lon="1.82032">
        <ele>475.99</ele>
        <time>2012-05-03T15:39:13Z</time>
      </trkpt>
      <trkpt lat="48.80868" lon="1.81867">
        <ele>481.76</ele>
        <time>2012-05-03T15:39:21Z</time>
      </trkpt>
      <trkpt lat="48.81068" lon="1.81685">
        <ele>479.84</ele>
        <time>2012-05-03T15:39:28Z</time>
      </trkpt>
      <trkpt lat="48.81302" lon="1.81491">
        <ele>456.28</ele>
        <time>2012-05-03T15:39:36Z</time>
      </trkpt>
      <trkpt lat="48.81492" lon="1.81298">
        <ele>426.48</ele>
        <time>2012-05-03T15:39:43Z</time>
      </trkpt>
      <trkpt lat="48.81604" lon="1.81181">
        <ele>403.41</ele>
        <time>2012-05-03T15:39:47Z</time>
      </trkpt>
      <trkpt lat="48.81859" lon="1.8106">
        <ele>364.48</ele>
        <time>2012-05-03T15:39:55Z</time>
      </trkpt>
      <trkpt lat="48.81946" lon="1.80994">
        <ele>348.62</ele>
        <time>2012-05-03T15:39:58Z</time>
      </trkpt>
      <trkpt lat="48.82077" lon="1.80789">
        <ele>309.68</ele>
        <time>2012-05-03T15:40:04Z</time>
      </trkpt>
      <trkpt lat="48.82278" lon="1.80409">
        <ele>239.51</ele>
        <time>2012-05-03T15:40:14Z</time>
      </trkpt>
      <trkpt lat="48.82423" lon="1.80127">
        <ele>202.98</ele>
        <time>2012-05-03T15:40:22Z</time>
      </trkpt>
      <trkpt lat="48.82518" lon="1.79844">
        <ele>176.06</ele>
        <time>2012-05-03T15:40:29Z</time>
      </trkpt>
      <trkpt lat="48.82553" lon="1.79553">
        <ele>141.45</ele>
        <time>2012-05-03T15:40:35Z</time>
      </trkpt>
      <trkpt lat="48.82606" lon="1.79265">
        <ele>103.96</ele>
        <time>2012-05-03T15:40:41Z</time>
      </trkpt>
      <trkpt lat="48.82713" lon="1.79044">
        <ele>73.2</ele>
        <time>2012-05-03T15:40:47Z</time>
      </trkpt>
      <trkpt lat="48.82884" lon="1.78818">
        <ele>43.4</ele>
        <time>2012-05-03T15:40:55Z</time>
      </trkpt>
      <trkpt lat="48.82977" lon="1.78719">
        <ele>35.71</ele>
        <time>2012-05-03T15:40:59Z</time>
      </trkpt>
      <trkpt lat="48.83218" lon="1.78599">
        <ele>48.2</ele>
        <time>2012-05-03T15:41:08Z</time>
      </trkpt>
      <trkpt lat="48.83365" lon="1.78587">
        <ele>61.66</ele>
        <time>2012-05-03T15:41:13Z</time>
      </trkpt>
      <trkpt lat="48.83422" lon="1.78594">
        <ele>69.83</ele>
        <time>2012-05-03T15:41:15Z</time>
      </trkpt>
      <trkpt lat="48.83574" lon="1.78549">
        <ele>87.62</ele>
        <time>2012-05-03T15:41:21Z</time>
      </trkpt>
      <trkpt lat="48.83619" lon="1.78511">
        <ele>93.39</ele>
        <time>2012-05-03T15:41:23Z</time>
      </trkpt>
      <trkpt lat="48.83659" lon="1.78468">
        <ele>99.15</ele>
        <time>2012-05-03T15:41:25Z</time>
      </trkpt>
      <trkpt lat="48.83742" lon="1.78289">
        <ele>112.13</ele>
        <time>2012-05-03T15:41:31Z</time>
      </trkpt>
      <trkpt lat="48.8375" lon="1.78251">
        <ele>113.57</ele>
        <time>2012-05-03T15:41:32Z</time>
      </trkpt>
      <trkpt lat="48.83789" lon="1.77946">
        <ele>130.88</ele>
        <time>2012-05-03T15:41:40Z</time>
      </trkpt>
      <trkpt lat="48.83754" lon="1.77754">
        <ele>152.03</ele>
        <time>2012-05-03T15:41:46Z</time>
      </trkpt>
      <trkpt lat="48.83681" lon="1.77683">
        <ele>161.64</ele>
        <time>2012-05-03T15:41:50Z</time>
      </trkpt>
      <trkpt lat="48.83635" lon="1.77679">
        <ele>166.93</ele>
        <time>2012-05-03T15:41:52Z</time>
      </trkpt>
      <trkpt lat="48.83414" lon="1.77677">
        <ele>191.92</ele>
        <time>2012-05-03T15:42:02Z</time>
      </trkpt>
      <trkpt lat="48.83308" lon="1.77692">
        <ele>195.28</ele>
        <time>2012-05-03T15:42:07Z</time>
      </trkpt>
      <trkpt lat="48.8323" lon="1.77756">
        <ele>193.36</ele>
        <time>2012-05-03T15:42:11Z</time>
      </trkpt>
      <trkpt lat="48.83099" lon="1.77985">
        <ele>177.98</ele>
        <time>2012-05-03T15:42:19Z</time>
      </trkpt>
      <trkpt lat="48.83026" lon="1.78191">
        <ele>160.68</ele>
        <time>2012-05-03T15:42:25Z</time>
      </trkpt>
      <trkpt lat="48.82952" lon="1.7851">
        <ele>131.36</ele>
        <time>2012-05-03T15:42:33Z</time>
      </trkpt>
      <trkpt lat="48.82856" lon="1.78756">
        <ele>115.5</ele>
        <time>2012-05-03T15:42:40Z</time>
      </trkpt>
      <trkpt lat="48.82765" lon="1.79041">
        <ele>111.17</ele>
        <time>2012-05-03T15:42:48Z</time>
      </trkpt>
      <trkpt lat="48.82687" lon="1.79345">
        <ele>115.98</ele>
        <time>2012-05-03T15:42:56Z</time>
      </trkpt>
      <trkpt lat="48.82582" lon="1.79616">
        <ele>129.43</ele>
        <time>2012-05-03T15:43:04Z</time>
      </trkpt>
      <trkpt lat="48.82497" lon="1.79821">
        <ele>142.89</ele>
        <time>2012-05-03T15:43:10Z</time>
      </trkpt>
      <trkpt lat="48.82466" lon="1.80044">
        <ele>150.58</ele>
        <time>2012-05-03T15:43:15Z</time>
      </trkpt>
      <trkpt lat="48.82487" lon="1.80485">
        <ele>176.54</ele>
        <time>2012-05-03T15:43:24Z</time>
      </trkpt>
      <trkpt lat="48.8256" lon="1.80763">
        <ele>196.73</ele>
        <time>2012-05-03T15:43:30Z</time>
      </trkpt>
      <trkpt lat="48.82618" lon="1.80888">
        <ele>204.9</ele>
        <time>2012-05-03T15:43:33Z</time>
      </trkpt>
      <trkpt lat="48.82758" lon="1.81036">
        <ele>218.84</ele>
        <time>2012-05-03T15:43:38Z</time>
      </trkpt>
      <trkpt lat="48.82971" lon="1.81174">
        <ele>237.58</ele>
        <time>2012-05-03T15:43:45Z</time>
      </trkpt>
      <trkpt lat="48.83128" lon="1.81187">
        <ele>251.04</ele>
        <time>2012-05-03T15:43:50Z</time>
      </trkpt>
      <trkpt lat="48.83209" lon="1.81116">
        <ele>259.21</ele>
        <time>2012-05-03T15:43:53Z</time>
      </trkpt>
      <trkpt lat="48.83275" lon="1.80956">
        <ele>262.1</ele>
        <time>2012-05-03T15:43:57Z</time>
      </trkpt>
      <trkpt lat="48.83364" lon="1.80677">
        <ele>267.38</ele>
        <time>2012-05-03T15:44:04Z</time>
      </trkpt>
      <trkpt lat="48.83552" lon="1.80278">
        <ele>278.44</ele>
        <time>2012-05-03T15:44:16Z</time>
      </trkpt>
      <trkpt lat="48.83691" lon="1.79967">
        <ele>292.86</ele>
        <time>2012-05-03T15:44:26Z</time>
      </trkpt>
      <trkpt lat="48.83819" lon="1.79749">
        <ele>295.74</ele>
        <time>2012-05-03T15:44:34Z</time>
      </trkpt>
      <trkpt lat="48.83979" lon="1.79428">
        <ele>294.3</ele>
        <time>2012-05-03T15:44:45Z</time>
      </trkpt>
      <trkpt lat="48.84121" lon="1.79174">
        <ele>298.15</ele>
        <time>2012-05-03T15:44:54Z</time>
      </trkpt>
      <trkpt lat="48.84272" lon="1.78921">
        <ele>306.32</ele>
        <time>2012-05-03T15:45:04Z</time>
      </trkpt>
      <trkpt lat="48.84384" lon="1.78695">
        <ele>308.24</ele>
        <time>2012-05-03T15:45:12Z</time>
      </trkpt>
      <trkpt lat="48.84437" lon="1.78578">
        <ele>313.53</ele>
        <time>2012-05-03T15:45:16Z</time>
      </trkpt>
      <trkpt lat="48.84458" lon="1.78391">
        <ele>326.02</ele>
        <time>2012-05-03T15:45:22Z</time>
      </trkpt>
      <trkpt lat="48.84408" lon="1.78243">
        <ele>329.87</ele>
        <time>2012-05-03T15:45:27Z</time>
      </trkpt>
      <trkpt lat="48.84233" lon="1.77955">
        <ele>340.44</ele>
        <time>2012-05-03T15:45:38Z</time>
      </trkpt>
      <trkpt lat="48.84116" lon="1.77837">
        <ele>343.33</ele>
        <time>2012-05-03T15:45:45Z</time>
      </trkpt>
      <trkpt lat="48.83954" lon="1.77693">
        <ele>326.99</ele>
        <time>2012-05-03T15:45:54Z</time>
      </trkpt>
      <trkpt lat="48.83785" lon="1.77591">
        <ele>306.32</ele>
        <time>2012-05-03T15:46:04Z</time>
      </trkpt>
      <trkpt lat="48.83602" lon="1.77544">
        <ele>285.17</ele>
        <time>2012-05-03T15:46:13Z</time>
      </trkpt>
      <trkpt lat="48.83401" lon="1.77511">
        <ele>253.44</ele>
        <time>2012-05-03T15:46:23Z</time>
      </trkpt>
      <trkpt lat="48.83248" lon="1.77539">
        <ele>228.93</ele>
        <time>2012-05-03T15:46:31Z</time>
      </trkpt>
      <trkpt lat="48.8323" lon="1.77551">
        <ele>226.05</ele>
        <time>2012-05-03T15:46:32Z</time>
      </trkpt>
      <trkpt lat="48.8314" lon="1.77684">
        <ele>207.78</ele>
        <time>2012-05-03T15:46:38Z</time>
      </trkpt>
      <trkpt lat="48.83125" lon="1.77791">
        <ele>198.17</ele>
        <time>2012-05-03T15:46:41Z</time>
      </trkpt>
      <trkpt lat="48.83104" lon="1.78069">
        <ele>166.93</ele>
        <time>2012-05-03T15:46:48Z</time>
      </trkpt>
      <trkpt lat="48.83094" lon="1.78108">
        <ele>162.6</ele>
        <time>2012-05-03T15:46:49Z</time>
      </trkpt>
      <trkpt lat="48.83" lon="1.7831">
        <ele>139.53</ele>
        <time>2012-05-03T15:46:55Z</time>
      </trkpt>
      <trkpt lat="48.82925" lon="1.78511">
        <ele>124.15</ele>
        <time>2012-05-03T15:47:01Z</time>
      </trkpt>
      <trkpt lat="48.8285" lon="1.78792">
        <ele>100.11</ele>
        <time>2012-05-03T15:47:09Z</time>
      </trkpt>
      <trkpt lat="48.82782" lon="1.79043">
        <ele>88.1</ele>
        <time>2012-05-03T15:47:17Z</time>
      </trkpt>
      <trkpt lat="48.82737" lon="1.79161">
        <ele>89.06</ele>
        <time>2012-05-03T15:47:21Z</time>
      </trkpt>
      <trkpt lat="48.82685" lon="1.79403">
        <ele>94.35</ele>
        <time>2012-05-03T15:47:28Z</time>
      </trkpt>
      <trkpt lat="48.82622" lon="1.79767">
        <ele>105.4</ele>
        <time>2012-05-03T15:47:37Z</time>
      </trkpt>
      <trkpt lat="48.82564" lon="1.80146">
        <ele>118.86</ele>
        <time>2012-05-03T15:47:45Z</time>
      </trkpt>
      <trkpt lat="48.8251" lon="1.80493">
        <ele>133.76</ele>
        <time>2012-05-03T15:47:52Z</time>
      </trkpt>
      <trkpt lat="48.82539" lon="1.80736">
        <ele>156.35</ele>
        <time>2012-05-03T15:47:57Z</time>
      </trkpt>
      <trkpt lat="48.82626" lon="1.80872">
        <ele>173.17</ele>
        <time>2012-05-03T15:48:01Z</time>
      </trkpt>
      <trkpt lat="48.82683" lon="1.80911">
        <ele>181.35</ele>
        <time>2012-05-03T15:48:03Z</time>
      </trkpt>
      <trkpt lat="48.82862" lon="1.80937">
        <ele>211.63</ele>
        <time>2012-05-03T15:48:09Z</time>
      </trkpt>
      <trkpt lat="48.83007" lon="1.80837">
        <ele>230.37</ele>
        <time>2012-05-03T15:48:14Z</time>
      </trkpt>
      <trkpt lat="48.83029" lon="1.80805">
        <ele>233.26</ele>
        <time>2012-05-03T15:48:15Z</time>
      </trkpt>
      <trkpt lat="48.83189" lon="1.80496">
        <ele>241.43</ele>
        <time>2012-05-03T15:48:23Z</time>
      </trkpt>
      <trkpt lat="48.83378" lon="1.80115">
        <ele>233.74</ele>
        <time>2012-05-03T15:48:32Z</time>
      </trkpt>
      <trkpt lat="48.83557" lon="1.79767">
        <ele>216.43</ele>
        <time>2012-05-03T15:48:41Z</time>
      </trkpt>
      <trkpt lat="48.83664" lon="1.7954">
        <ele>207.3</ele>
        <time>2012-05-03T15:48:47Z</time>
      </trkpt>
      <trkpt lat="48.83796" lon="1.79275">
        <ele>202.49</ele>
        <time>2012-05-03T15:48:55Z</time>
      </trkpt>
      <trkpt lat="48.8383" lon="1.79065">
        <ele>205.86</ele>
        <time>2012-05-03T15:49:01Z</time>
      </trkpt>
      <trkpt lat="48.83831" lon="1.79033">
        <ele>206.82</ele>
        <time>2012-05-03T15:49:02Z</time>
      </trkpt>
      <trkpt lat="48.83829" lon="1.78966">
        <ele>208.26</ele>
        <time>2012-05-03T15:49:04Z</time>
      </trkpt>
      <trkpt lat="48.83793" lon="1.78841">
        <ele>205.86</ele>
        <time>2012-05-03T15:49:08Z</time>
      </trkpt>
      <trkpt lat="48.83606" lon="1.7857">
        <ele>177.98</ele>
        <time>2012-05-03T15:49:19Z</time>
      </trkpt>
      <trkpt lat="48.83432" lon="1.78397">
        <ele>158.27</ele>
        <time>2012-05-03T15:49:29Z</time>
      </trkpt>
      <trkpt lat="48.83241" lon="1.7827">
        <ele>144.34</ele>
        <time>2012-05-03T15:49:39Z</time>
      </trkpt>
      <trkpt lat="48.83197" lon="1.78254">
        <ele>140.01</ele>
        <time>2012-05-03T15:49:41Z</time>
      </trkpt>
      <trkpt lat="48.8308" lon="1.78273">
        <ele>131.36</ele>
        <time>2012-05-03T15:49:46Z</time>
      </trkpt>
      <trkpt lat="48.83007" lon="1.78367">
        <ele>121.74</ele>
        <time>2012-05-03T15:49:50Z</time>
      </trkpt>
      <trkpt lat="48.82868" lon="1.78721">
        <ele>97.23</ele>
        <time>2012-05-03T15:50:01Z</time>
      </trkpt>
      <trkpt lat="48.82801" lon="1.78963">
        <ele>87.14</ele>
        <time>2012-05-03T15:50:09Z</time>
      </trkpt>
      <trkpt lat="48.82765" lon="1.79112">
        <ele>85.69</ele>
        <time>2012-05-03T15:50:16Z</time>
      </trkpt>
      <trkpt lat="48.82745" lon="1.79179">
        <ele>87.14</ele>
        <time>2012-05-03T15:50:23Z</time>
      </trkpt>
      <trkpt lat="48.82734" lon="1.79216">
        <ele>88.58</ele>
        <time>2012-05-03T15:50:35Z</time>
      </trkpt>
      <trkpt lat="48.82718" lon="1.79262">
        <ele>90.02</ele>
        <time>2012-05-03T15:50:47Z</time>
      </trkpt>
      <trkpt lat="48.82705" lon="1.79305">
        <ele>89.54</ele>
        <time>2012-05-03T15:51:08Z</time>
      </trkpt>
      <trkpt lat="48.82706" lon="1.79321">
        <ele>88.1</ele>
        <time>2012-05-03T15:51:17Z</time>
      </trkpt>
      <trkpt lat="48.82722" lon="1.79332">
        <ele>87.14</ele>
        <time>2012-05-03T15:51:33Z</time>
      </trkpt>
      <trkpt lat="48.82727" lon="1.79336">
        <ele>87.14</ele>
        <time>2012-05-03T15:51:55Z</time>
      </trkpt>
      <trkpt lat="48.82727" lon="1.79336">
        <ele>86.66</ele>
        <time>2012-05-03T15:52:35Z</time>
      </trkpt>
      <trkpt lat="48.82727" lon="1.79336">
        <ele>87.14</ele>
        <time>2012-05-03T15:53:10Z</time>
      </trkpt>
      <trkpt lat="48.82727" lon="1.79336">
        <ele>87.14</ele>
        <time>2012-05-03T15:53:42Z</time>
      </trkpt>
      <trkpt lat="48.82727" lon="1.79336">
        <ele>87.14</ele>
        <time>2012-05-03T15:54:20Z</time>
      </trkpt>
      <trkpt lat="48.82727" lon="1.79336">
        <ele>87.14</ele>
        <time>2012-05-03T15:54:55Z</time>
      </trkpt>
    </trkseg>
  </trk>
</gpx>